[[{"header":{"parameterUnit":"m.s-1","parameterCategory":1,"la1":31.0,"la2":29.5877,"lo1":-88.7671,"lo2":-86.6584,"dy":0.0162,"dx":0.0185,"nx":115,"ny":88,"refTime":"2023-11-13T06:00:00:Z","depth":0,"parameterNumber":2,"parameterNumberName":"U-component_of_WINDS"},"data":[0.0,0.0,0.0,0.0,0.0,0.0,0.0,0.0,0.0,0.0,0.0,0.0,0.0,0.0,0.0,0.0,0.0,0.0,0.0,0.0,0.0,0.0,0.0,0.0,0.0,0.0,0.0,0.0,0.0,0.0,0.0,0.0,0.0,0.0,0.0,0.0,0.0,0.0,0.0,0.0,0.0,0.0,0.0,0.0,0.0,0.0,0.0,0.0,0.0,0.0,0.0,0.0,0.0,0.0,0.0,0.0,0.0,0.0,0.0,0.0,0.0,0.0,0.0,0.0,0.0,0.0,0.0,0.0,0.0,0.0,0.0,0.0,0.0,0.0,0.0,0.0,0.0,0.0,0.0,0.0,0.0,0.0,0.0,0.0,0.0,0.0,0.0,0.0,0.0,0.0,0.0,0.0,0.0,0.0,0.0,0.0,0.0,0.0,0.0,0.0,0.0,0.0,0.0,0.0,0.0,0.0,0.0,0.0,0.0,0.0,0.0,0.0,0.0,0.0,0.0,0.0,0.0,0.0,0.0,0.0,0.0,0.0,0.0,0.0,0.0,0.0,0.0,0.0,0.0,0.0,0.0,0.0,0.0,0.0,0.0,0.0,0.0,0.0,0.0,0.0,0.0,0.0,0.0,0.0,0.0,0.0,0.0,0.0,0.0,0.0,0.0,0.0,0.0,0.0,0.0,0.0,0.0,0.0,0.0,0.0,0.0,0.0,0.0,0.0,0.0,0.0,0.0,0.0,0.0,0.0,0.0,0.0,0.0,0.0,0.0,0.0,0.0,0.0,0.0,0.0,0.0,0.0,0.0,0.0,0.0,0.0,0.0,0.0,0.0,0.0,0.0,0.0,0.0,0.0,0.0,0.0,0.0,0.0,0.0,0.0,0.0,0.0,0.0,0.0,0.0,0.0,0.0,0.0,0.0,0.0,0.0,0.0,0.0,0.0,0.0,0.0,0.0,0.0,0.0,0.0,0.0,0.0,0.0,0.0,0.0,0.0,0.0,0.0,0.0,0.0,0.0,0.0,0.0,0.0,0.0,0.0,0.0,0.0,0.0,0.0,0.0,0.0,0.0,0.0,0.0,0.0,0.0,0.0,0.0,0.0,0.0,0.0,0.0,0.0,0.0,0.0,0.0,0.0,0.0,0.0,0.0,0.0,0.0,0.0,0.0,0.0,0.0,0.0,0.0,0.0,0.0,0.0,0.0,0.0,0.0,0.0,0.0,0.0,0.0,0.0,0.0,0.0,0.0,0.0,0.0,0.0,0.0,0.0,0.0,0.0,0.0,0.0,0.0,0.0,0.0,0.0,0.0,0.0,0.0,0.0,0.0,0.0,0.0,0.0,0.0,0.0,0.0,0.0,0.0,0.0,0.0,0.0,0.0,0.0,0.0,0.0,0.0,0.0,0.0,0.0,0.0,0.0,0.0,0.0,0.0,0.0,0.0,0.0,0.0,0.0,0.0,0.0,0.0,0.0,0.0,0.0,0.0,0.0,0.0,0.0,0.0,0.0,0.0,0.0,0.0,0.0,0.0,0.0,0.0,0.0,0.0,0.0,0.0,0.0,0.0,0.0,0.0,0.0,0.0,0.0,0.0,0.0,0.0,0.0,0.0,0.0,0.0,0.0,0.0,0.0,0.0,0.0,0.0,0.0,0.0,0.0,0.0,0.0,0.0,0.0,0.0,0.0,0.0,0.0,0.0,0.0,0.0,0.0,0.0,0.0,0.0,0.0,0.0,0.0,0.0,0.0,0.0,0.0,0.0,0.0,0.0,0.0,0.0,0.0,0.0,0.0,0.0,0.0,0.0,0.0,0.0,0.0,0.0,0.0,0.0,0.0,0.0,0.0,0.0,0.0,0.0,0.0,0.0,0.0,0.0,0.0,0.0,0.0,0.0,0.0,0.0,0.0,0.0,0.0,0.0,0.0,0.0,0.0,0.0,0.0,0.0,0.0,0.0,0.0,0.0,0.0,0.0,0.0,0.0,0.0,0.0,0.0,0.0,0.0,0.0,0.0,0.0,0.0,0.0,0.0,0.0,0.0,0.0,0.0,0.0,0.0,0.0,0.0,0.0,0.0,0.0,0.0,0.0,0.0,0.0,0.0,0.0,0.0,0.0,0.0,0.0,0.0,0.0,0.0,0.0,0.0,0.0,0.0,0.0,0.0,0.0,0.0,0.0,0.0,0.0,0.0,0.0,0.0,0.0,0.0,0.0,0.0,0.0,0.0,0.0,0.0,0.0,0.0,0.0,0.0,0.0,0.0,0.0,0.0,0.0,0.0,0.0,0.0,0.0,0.0,0.0,0.0,0.0,0.0,0.0,0.0,0.0,0.0,0.0,0.0,0.0,0.0,0.0,0.0,0.0,0.0,0.0,0.0,0.0,0.0,0.0,0.0,0.0,0.0,0.0,0.0,0.0,0.0,0.0,0.0,0.0,0.0,0.0,0.0,0.0,0.0,0.0,0.0,0.0,0.0,0.0,0.0,0.0,0.0,0.0,0.0,0.0,0.0,0.0,0.0,0.0,0.0,0.0,0.0,0.0,0.0,0.0,0.0,0.0,0.0,0.0,0.0,0.0,0.0,0.0,0.0,0.0,0.0,0.0,0.0,0.0,0.0,0.0,0.0,0.0,0.0,0.0,0.0,0.0,0.0,0.0,0.0,0.0,0.0,0.0,0.0,0.0,0.0,0.0,0.0,0.0,0.0,0.0,0.0,0.0,0.0,0.0,0.0,0.0,0.0,0.0,0.0,0.0,0.0,0.0,0.0,0.0,0.0,0.0,0.0,0.0,0.0,0.0,0.0,0.0,0.0,0.0,0.0,0.0,0.0,0.0,0.0,0.0,0.0,0.0,0.0,0.0,0.0,0.0,0.0,0.0,0.0,0.0,0.0,0.0,0.0,0.0,0.0,0.0,0.0,0.0,0.0,0.0,0.0,0.0,0.0,0.0,0.0,0.0,0.0,0.0,0.0,0.0,0.0,0.0,0.0,0.0,0.0,0.0,0.0,0.0,0.0,0.0,0.0,0.0,0.0,0.0,0.0,0.0,0.0,0.0,0.0,0.0,0.0,0.0,0.0,0.0,0.0,0.0,0.0,0.0,0.0,0.0,0.0,0.0,0.0,0.0,0.0,0.0,0.0,0.0,0.0,0.0,0.0,0.0,0.0,0.0,0.0,0.0,0.0,0.0,0.0,0.0,0.0,0.0,0.0,0.0,0.0,0.0,0.0,0.0,0.0,0.0,0.0,0.0,0.0,0.0,0.0,0.0,0.0,0.0,0.0,0.0,0.0,0.0,0.0,0.0,0.0,0.0,0.0,0.0,0.0,0.0,0.0,0.0,0.0,0.0,0.0,0.0,0.0,0.0,0.0,0.0,0.0,0.0,0.0,0.0,0.0,0.0,0.0,0.0,0.0,0.0,0.0,0.0,0.0,0.0,0.0,0.0,0.0,0.0,0.0,0.0,0.0,0.0,0.0,0.0,0.0,0.0,0.0,0.0,0.0,0.0,0.0,0.0,0.0,0.0,0.0,0.0,0.0,0.0,0.0,0.0,0.0,0.0,0.0,0.0,0.0,0.0,0.0,0.0,0.0,0.0,0.0,0.0,0.0,0.0,0.0,0.0,0.0,0.0,0.0,0.0,0.0,0.0,0.0,0.0,0.0,0.0,0.0,0.0,0.0,0.0,0.0,0.0,0.0,0.0,0.0,0.0,0.0,0.0,0.0,0.0,0.0,0.0,0.0,0.0,0.0,0.0,0.0,0.0,0.0,0.0,0.0,0.0,0.0,0.0,0.0,0.0,0.0,0.0,0.0,0.0,0.0,0.0,0.0,0.0,0.0,0.0,0.0,0.0,0.0,0.0,0.0,0.0,0.0,0.0,0.0,0.0,0.0,0.0,0.0,0.0,0.0,0.0,0.0,0.0,0.0,0.0,0.0,0.0,0.0,0.0,0.0,0.0,0.0,0.0,0.0,0.0,0.0,0.0,0.0,0.0,0.0,0.0,0.0,0.0,0.0,0.0,0.0,0.0,0.0,0.0,0.0,0.0,0.0,0.0,0.0,0.0,0.0,0.0,0.0,0.0,0.0,0.0,0.0,0.0,0.0,0.0,0.0,0.0,0.0,0.0,0.0,0.0,0.0,0.0,0.0,0.0,0.0,0.0,0.0,0.0,0.0,0.0,0.0,0.0,0.0,0.0,0.0,0.0,0.0,0.0,0.0,0.0,0.0,0.0,0.0,0.0,0.0,0.0,0.0,0.0,0.0,0.0,0.0,2.4599,0.0,0.0,0.0,0.0,0.0,0.0,0.0,0.0,0.0,0.0,0.0,0.0,0.0,0.0,0.0,0.0,0.0,0.0,0.0,0.0,0.0,0.0,0.0,0.0,0.0,0.0,0.0,0.0,0.0,0.0,0.0,0.0,0.0,0.0,0.0,0.0,0.0,0.0,0.0,0.0,0.0,0.0,0.0,0.0,0.0,0.0,0.0,0.0,0.0,0.0,0.0,0.0,0.0,0.0,0.0,0.0,0.0,0.0,0.0,0.0,0.0,0.0,0.0,0.0,0.0,0.0,0.0,0.0,0.0,0.0,0.0,0.0,0.0,0.0,0.0,0.0,0.0,0.0,0.0,0.0,0.0,0.0,0.0,0.0,0.0,0.0,0.0,0.0,0.0,0.0,0.0,0.0,0.0,0.0,0.0,0.0,0.0,0.0,0.0,0.0,0.0,0.0,0.0,0.0,0.0,0.0,0.0,0.0,0.0,0.0,2.4679,2.4863,2.4679,2.4679,2.4863,0.0,0.0,0.0,0.0,0.0,0.0,0.0,0.0,0.0,0.0,0.0,0.0,0.0,0.0,0.0,0.0,0.0,0.0,0.0,0.0,0.0,0.0,0.0,0.0,0.0,0.0,0.0,0.0,0.0,0.0,0.0,0.0,0.0,0.0,0.0,0.0,0.0,0.0,0.0,0.0,0.0,0.0,0.0,0.0,0.0,0.0,0.0,0.0,0.0,0.0,0.0,0.0,0.0,0.0,0.0,0.0,0.0,0.0,0.0,0.0,0.0,0.0,0.0,0.0,0.0,0.0,0.0,0.0,0.0,0.0,0.0,0.0,0.0,0.0,0.0,0.0,0.0,0.0,0.0,0.0,0.0,0.0,0.0,0.0,0.0,0.0,0.0,0.0,0.0,0.0,0.0,0.0,0.0,0.0,0.0,0.0,0.0,0.0,0.0,0.0,0.0,0.0,0.0,0.0,0.0,0.0,0.0,0.0,0.0,0.0,0.0,0.0,2.4719,2.4706,2.4957,0.0,0.0,0.0,0.0,0.0,0.0,0.0,0.0,0.0,0.0,0.0,0.0,0.0,0.0,0.0,0.0,0.0,0.0,0.0,0.0,0.0,0.0,0.0,0.0,0.0,0.0,0.0,0.0,0.0,0.0,0.0,0.0,0.0,0.0,0.0,0.0,0.0,0.0,0.0,0.0,0.0,0.0,0.0,0.0,0.0,0.0,0.0,0.0,0.0,0.0,0.0,0.0,0.0,0.0,0.0,0.0,0.0,0.0,0.0,0.0,0.0,0.0,0.0,0.0,0.0,0.0,0.0,0.0,0.0,0.0,0.0,0.0,0.0,0.0,0.0,0.0,0.0,0.0,0.0,0.0,0.0,0.0,0.0,0.0,0.0,0.0,0.0,0.0,0.0,0.0,0.0,0.0,0.0,0.0,0.0,0.0,0.0,0.0,0.0,0.0,0.0,0.0,0.0,0.0,0.0,0.0,0.0,0.0,0.0,0.0,2.4613,2.4639,2.4613,0.0,2.4626,0.0,0.0,0.0,0.0,0.0,0.0,0.0,0.0,0.0,0.0,0.0,0.0,0.0,0.0,0.0,0.0,0.0,0.0,0.0,0.0,0.0,0.0,0.0,0.0,0.0,0.0,0.0,0.0,0.0,0.0,0.0,0.0,0.0,0.0,0.0,0.0,0.0,0.0,0.0,0.0,0.0,0.0,0.0,0.0,0.0,0.0,0.0,0.0,0.0,0.0,0.0,0.0,0.0,0.0,0.0,0.0,0.0,0.0,0.0,0.0,0.0,0.0,0.0,0.0,0.0,0.0,0.0,0.0,0.0,0.0,0.0,0.0,0.0,0.0,0.0,0.0,0.0,0.0,0.0,0.0,0.0,0.0,0.0,0.0,0.0,0.0,0.0,0.0,0.0,0.0,0.0,0.0,0.0,0.0,0.0,0.0,0.0,0.0,0.0,0.0,0.0,0.0,0.0,0.0,0.0,0.0,0.0,0.0,0.0,0.0,2.4369,2.489,2.4903,2.481,0.0,0.0,0.0,0.0,0.0,0.0,0.0,0.0,0.0,0.0,0.0,0.0,0.0,0.0,0.0,0.0,0.0,0.0,0.0,0.0,0.0,0.0,0.0,0.0,0.0,0.0,0.0,0.0,0.0,0.0,0.0,0.0,0.0,0.0,0.0,0.0,0.0,0.0,0.0,0.0,0.0,0.0,0.0,0.0,0.0,0.0,0.0,0.0,0.0,0.0,0.0,0.0,0.0,0.0,0.0,0.0,0.0,0.0,0.0,0.0,0.0,0.0,0.0,0.0,0.0,0.0,0.0,0.0,0.0,0.0,0.0,0.0,0.0,0.0,0.0,0.0,0.0,0.0,0.0,0.0,0.0,0.0,0.0,0.0,0.0,0.0,0.0,0.0,0.0,0.0,0.0,0.0,0.0,0.0,0.0,0.0,0.0,0.0,0.0,0.0,0.0,0.0,0.0,0.0,0.0,0.0,0.0,0.0,0.0,0.0,2.4102,2.4231,2.4796,2.4793,2.4649,2.4516,0.0,0.0,0.0,0.0,0.0,0.0,0.0,0.0,0.0,0.0,0.0,0.0,0.0,0.0,0.0,0.0,0.0,0.0,0.0,0.0,0.0,0.0,0.0,0.0,0.0,0.0,0.0,0.0,0.0,0.0,0.0,0.0,0.0,0.0,0.0,0.0,0.0,0.0,0.0,0.0,0.0,0.0,0.0,0.0,0.0,0.0,0.0,0.0,0.0,0.0,0.0,0.0,0.0,0.0,0.0,0.0,0.0,0.0,0.0,0.0,0.0,0.0,0.0,0.0,0.0,0.0,0.0,0.0,0.0,0.0,0.0,0.0,0.0,0.0,0.0,0.0,0.0,0.0,0.0,0.0,0.0,0.0,0.0,0.0,0.0,0.0,0.0,0.0,0.0,0.0,0.0,0.0,0.0,0.0,0.0,0.0,0.0,0.0,0.0,0.0,0.0,0.0,0.0,0.0,0.0,0.0,0.0,0.0,2.4209,2.4182,2.4195,2.4222,2.3968,2.3955,0.0,0.0,0.0,0.0,0.0,0.0,0.0,0.0,0.0,0.0,0.0,0.0,0.0,0.0,0.0,0.0,0.0,0.0,0.0,0.0,0.0,0.0,0.0,0.0,0.0,0.0,0.0,0.0,0.0,0.0,0.0,0.0,0.0,0.0,0.0,0.0,0.0,0.0,0.0,0.0,0.0,0.0,0.0,0.0,0.0,0.0,0.0,0.0,0.0,0.0,0.0,0.0,0.0,0.0,0.0,0.0,0.0,0.0,0.0,0.0,0.0,0.0,0.0,0.0,0.0,0.0,0.0,0.0,0.0,0.0,0.0,0.0,0.0,0.0,0.0,0.0,0.0,0.0,0.0,0.0,0.0,0.0,0.0,0.0,0.0,0.0,0.0,0.0,0.0,0.0,0.0,0.0,0.0,0.0,0.0,0.0,0.0,0.0,0.0,0.0,0.0,0.0,0.0,0.0,0.0,0.0,0.0,0.0,0.0,2.3612,2.3447,2.3388,2.3388,2.3434,2.3621,0.0,0.0,0.0,0.0,0.0,0.0,0.0,0.0,0.0,0.0,0.0,0.0,0.0,0.0,0.0,0.0,0.0,0.0,0.0,0.0,0.0,0.0,0.0,0.0,0.0,0.0,0.0,0.0,0.0,0.0,0.0,0.0,0.0,0.0,0.0,0.0,0.0,0.0,0.0,0.0,0.0,0.0,0.0,0.0,0.0,0.0,0.0,0.0,0.0,0.0,0.0,0.0,0.0,0.0,0.0,0.0,0.0,0.0,0.0,0.0,0.0,0.0,0.0,0.0,0.0,0.0,0.0,0.0,0.0,0.0,0.0,0.0,0.0,0.0,0.0,0.0,0.0,0.0,0.0,0.0,0.0,0.0,0.0,0.0,0.0,0.0,0.0,0.0,0.0,0.0,0.0,0.0,0.0,0.0,0.0,0.0,0.0,0.0,0.0,0.0,0.0,0.0,0.0,0.0,0.0,0.0,0.0,0.0,0.0,2.318,0.0,2.28,0.0,2.306,2.3233,0.0,0.0,0.0,0.0,0.0,0.0,0.0,0.0,0.0,0.0,0.0,0.0,0.0,0.0,0.0,0.0,0.0,0.0,0.0,0.0,0.0,0.0,0.0,0.0,0.0,0.0,0.0,0.0,0.0,0.0,0.0,0.0,0.0,0.0,0.0,0.0,0.0,0.0,0.0,0.0,0.0,0.0,0.0,0.0,0.0,0.0,0.0,0.0,0.0,0.0,0.0,0.0,0.0,0.0,0.0,0.0,0.0,0.0,0.0,0.0,0.0,0.0,0.0,0.0,0.0,0.0,0.0,0.0,0.0,0.0,0.0,0.0,0.0,0.0,0.0,0.0,0.0,0.0,0.0,0.0,0.0,0.0,0.0,0.0,0.0,0.0,0.0,0.0,0.0,0.0,0.0,0.0,0.0,0.0,0.0,0.0,0.0,0.0,0.0,0.0,0.0,0.0,0.0,0.0,0.0,0.0,0.0,0.0,2.3153,2.2893,2.2565,2.2552,2.288,2.288,2.2746,0.0,0.0,0.0,0.0,0.0,0.0,0.0,0.0,0.0,0.0,0.0,0.0,0.0,0.0,0.0,0.0,0.0,0.0,0.0,0.0,0.0,0.0,0.0,0.0,0.0,0.0,0.0,0.0,0.0,0.0,0.0,0.0,0.0,0.0,0.0,0.0,0.0,0.0,0.0,0.0,0.0,0.0,0.0,0.0,0.0,0.0,0.0,0.0,0.0,0.0,0.0,0.0,0.0,0.0,0.0,0.0,0.0,0.0,0.0,0.0,0.0,0.0,0.0,0.0,0.0,0.0,0.0,0.0,0.0,0.0,0.0,0.0,0.0,0.0,0.0,0.0,0.0,0.0,0.0,0.0,0.0,0.0,0.0,0.0,0.0,0.0,0.0,0.0,0.0,0.0,0.0,0.0,0.0,0.0,0.0,0.0,0.0,0.0,0.0,0.0,0.0,0.0,0.0,0.0,0.0,0.0,0.0,0.0,0.0,2.2552,2.2271,2.2258,2.2539,2.2398,2.2311,0.0,0.0,0.0,0.0,0.0,0.0,0.0,0.0,0.0,0.0,0.0,0.0,0.0,0.0,0.0,0.0,0.0,0.0,0.0,0.0,0.0,0.0,0.0,0.0,0.0,0.0,0.0,0.0,0.0,0.0,0.0,0.0,0.0,0.0,0.0,0.0,0.0,0.0,0.0,0.0,0.0,0.0,0.0,0.0,0.0,0.0,0.0,0.0,0.0,0.0,0.0,0.0,0.0,0.0,0.0,0.0,0.0,0.0,0.0,0.0,0.0,0.0,0.0,0.0,0.0,0.0,0.0,0.0,0.0,0.0,0.0,0.0,0.0,0.0,0.0,0.0,0.0,0.0,0.0,0.0,0.0,0.0,0.0,0.0,0.0,0.0,0.0,0.0,0.0,0.0,0.0,0.0,0.0,0.0,0.0,0.0,0.0,0.0,0.0,0.0,0.0,0.0,0.0,0.0,0.0,0.0,0.0,0.0,0.0,2.3052,2.302,2.306,2.3198,2.306,2.2739,2.2285,0.0,0.0,0.0,0.0,0.0,0.0,0.0,0.0,0.0,0.0,0.0,0.0,0.0,0.0,0.0,0.0,0.0,0.0,0.0,0.0,0.0,0.0,0.0,0.0,0.0,0.0,0.0,0.0,0.0,0.0,0.0,0.0,0.0,0.0,0.0,0.0,0.0,0.0,0.0,0.0,0.0,0.0,0.0,0.0,0.0,0.0,0.0,0.0,0.0,0.0,0.0,0.0,0.0,0.0,0.0,0.0,0.0,0.0,0.0,0.0,0.0,0.0,0.0,0.0,0.0,0.0,0.0,0.0,0.0,0.0,0.0,0.0,0.0,0.0,0.0,0.0,0.0,0.0,0.0,0.0,0.0,0.0,0.0,0.0,0.0,0.0,0.0,0.0,0.0,0.0,0.0,0.0,0.0,0.0,0.0,0.0,0.0,0.0,0.0,0.0,0.0,0.0,0.0,0.0,0.0,0.0,0.0,0.0,2.4329,2.4666,2.4839,2.4746,2.4639,2.3812,0.0,0.0,0.0,0.0,0.0,0.0,0.0,0.0,0.0,0.0,0.0,0.0,0.0,0.0,0.0,0.0,0.0,0.0,0.0,0.0,0.0,0.0,0.0,0.0,0.0,0.0,0.0,0.0,0.0,0.0,0.0,0.0,0.0,0.0,0.0,0.0,0.0,0.0,0.0,0.0,0.0,0.0,0.0,0.0,0.0,0.0,0.0,0.0,0.0,0.0,0.0,0.0,0.0,0.0,0.0,0.0,0.0,0.0,0.0,0.0,0.0,0.0,0.0,0.0,0.0,0.0,0.0,0.0,0.0,0.0,0.0,0.0,0.0,0.0,0.0,0.0,0.0,0.0,0.0,0.0,0.0,0.0,0.0,0.0,0.0,0.0,0.0,0.0,0.0,0.0,0.0,0.0,0.0,0.0,0.0,0.0,0.0,0.0,0.0,0.0,0.0,0.0,0.0,0.0,0.0,0.0,0.0,0.0,0.0,2.5838,2.7388,2.7696,2.66,2.528,2.4386,0.0,0.0,0.0,0.0,0.0,0.0,0.0,0.0,0.0,0.0,0.0,0.0,0.0,0.0,0.0,0.0,0.0,0.0,0.0,0.0,0.0,0.0,0.0,0.0,0.0,0.0,0.0,0.0,0.0,0.0,0.0,0.0,0.0,0.0,0.0,0.0,0.0,0.0,0.0,0.0,0.0,0.0,0.0,0.0,0.0,0.0,0.0,0.0,0.0,0.0,0.0,0.0,0.0,0.0,0.0,0.0,0.0,0.0,0.0,0.0,0.0,0.0,0.0,0.0,0.0,0.0,0.0,0.0,0.0,0.0,0.0,0.0,0.0,0.0,0.0,0.0,0.0,0.0,0.0,0.0,0.0,0.0,0.0,0.0,0.0,0.0,0.0,0.0,0.0,0.0,0.0,0.0,0.0,0.0,0.0,0.0,0.0,0.0,0.0,0.0,0.0,0.0,0.0,0.0,0.0,0.0,0.0,0.0,2.6066,2.6413,2.9018,3.0038,2.9182,2.6921,2.5451,0.0,0.0,0.0,0.0,0.0,0.0,0.0,0.0,0.0,0.0,0.0,0.0,0.0,0.0,0.0,0.0,0.0,0.0,0.0,0.0,0.0,0.0,0.0,0.0,0.0,0.0,0.0,0.0,0.0,0.0,0.0,0.0,0.0,0.0,0.0,0.0,0.0,0.0,0.0,0.0,0.0,0.0,0.0,0.0,0.0,0.0,0.0,0.0,0.0,0.0,0.0,0.0,0.0,0.0,0.0,0.0,0.0,0.0,0.0,0.0,0.0,0.0,0.0,0.0,0.0,0.0,0.0,0.0,0.0,0.0,0.0,0.0,0.0,0.0,0.0,0.0,0.0,0.0,0.0,0.0,0.0,0.0,0.0,0.0,0.0,0.0,0.0,0.0,0.0,0.0,0.0,0.0,0.0,0.0,0.0,0.0,0.0,0.0,0.0,0.0,0.0,0.0,0.0,0.0,0.0,0.0,0.0,0.0,2.7308,2.672,2.9985,3.1711,3.1631,2.8861,2.6693,0.0,0.0,0.0,0.0,0.0,0.0,0.0,0.0,0.0,0.0,0.0,0.0,0.0,0.0,0.0,0.0,0.0,0.0,0.0,0.0,0.0,0.0,0.0,0.0,0.0,0.0,0.0,0.0,0.0,0.0,0.0,0.0,0.0,0.0,0.0,0.0,0.0,0.0,0.0,0.0,0.0,0.0,0.0,0.0,0.0,0.0,0.0,0.0,0.0,0.0,0.0,0.0,0.0,0.0,0.0,0.0,0.0,0.0,0.0,0.0,0.0,0.0,0.0,0.0,0.0,0.0,0.0,0.0,0.0,0.0,0.0,0.0,0.0,0.0,0.0,0.0,0.0,0.0,0.0,0.0,0.0,0.0,0.0,0.0,0.0,0.0,0.0,0.0,0.0,0.0,0.0,0.0,0.0,0.0,0.0,0.0,0.0,0.0,0.0,0.0,0.0,0.0,0.0,0.0,0.0,0.0,0.0,0.0,2.7441,2.8454,3.0568,3.1724,3.1711,2.8848,2.7162,0.0,0.0,0.0,0.0,0.0,0.0,0.0,0.0,0.0,0.0,0.0,0.0,0.0,0.0,0.0,0.0,0.0,0.0,0.0,0.0,0.0,0.0,0.0,0.0,0.0,0.0,0.0,0.0,0.0,0.0,0.0,0.0,0.0,0.0,0.0,0.0,0.0,0.0,0.0,0.0,0.0,0.0,0.0,0.0,0.0,0.0,0.0,0.0,1.6865,0.0,0.0,0.0,0.0,0.0,0.0,0.0,0.0,0.0,0.0,0.0,0.0,0.0,0.0,0.0,0.0,0.0,0.0,0.0,0.0,0.0,0.0,0.0,0.0,0.0,0.0,0.0,0.0,0.0,0.0,0.0,0.0,0.0,0.0,0.0,0.0,0.0,0.0,0.0,0.0,0.0,0.0,0.0,0.0,0.0,0.0,0.0,0.0,0.0,0.0,0.0,0.0,0.0,0.0,0.0,0.0,0.0,0.0,0.0,2.7507,2.8975,3.0768,3.1724,3.1644,2.953,2.8018,0.0,0.0,0.0,0.0,0.0,0.0,0.0,0.0,0.0,0.0,0.0,0.0,0.0,0.0,0.0,0.0,0.0,0.0,0.0,0.0,0.0,0.0,0.0,0.0,0.0,0.0,0.0,0.0,0.0,0.0,0.0,0.0,0.0,0.0,0.0,0.0,0.0,0.0,0.0,0.0,0.0,0.0,0.0,0.0,0.0,0.0,0.0,0.0,0.0,0.0,0.0,0.0,0.0,0.0,0.0,0.0,0.0,0.0,0.0,0.0,0.0,0.0,0.0,0.0,0.0,0.0,0.0,0.0,0.0,0.0,0.0,0.0,0.0,0.0,0.0,0.0,0.0,0.0,0.0,0.0,0.0,0.0,0.0,0.0,0.0,0.0,0.0,0.0,0.0,0.0,0.0,0.0,0.0,0.0,0.0,0.0,0.0,0.0,0.0,0.0,0.0,0.0,0.0,0.0,0.0,0.0,0.0,2.5732,2.7587,2.9362,3.0902,3.1724,3.1698,2.9975,2.8389,2.6898,0.0,0.0,0.0,0.0,0.0,0.0,0.0,0.0,0.0,0.0,0.0,0.0,0.0,0.0,0.0,0.0,0.0,0.0,0.0,0.0,0.0,0.0,0.0,0.0,0.0,0.0,0.0,0.0,0.0,0.0,0.0,0.0,0.0,0.0,0.0,0.0,0.0,0.0,1.4809,1.5092,0.0,0.0,0.0,0.0,0.0,0.0,0.0,0.0,1.5602,0.0,0.0,0.0,0.0,0.0,0.0,0.0,0.0,0.0,0.0,0.0,0.0,0.0,0.0,0.0,0.0,0.0,0.0,0.0,0.0,0.0,0.0,0.0,0.0,0.0,0.0,0.0,0.0,0.0,0.0,0.0,0.0,0.0,0.0,0.0,0.0,0.0,0.0,0.0,0.0,0.0,0.0,0.0,0.0,0.0,0.0,0.0,0.0,0.0,0.0,0.0,0.0,0.0,0.0,0.0,0.0,2.5516,2.6146,2.8016,3.1142,3.1517,3.1724,3.1623,2.8742,2.6475,2.4926,0.0,0.0,0.0,0.0,0.0,0.0,0.0,0.0,0.0,0.0,0.0,0.0,0.0,0.0,0.0,0.0,0.0,0.0,0.0,0.0,0.0,0.0,0.0,0.0,0.0,0.0,0.0,0.0,0.0,0.0,0.0,0.0,0.0,0.0,0.0,0.0,0.0,0.0,0.0,1.5499,1.5533,0.0,0.0,0.0,0.0,0.0,0.0,0.0,0.0,1.6022,0.0,0.0,0.0,0.0,0.0,0.0,0.0,0.0,0.0,0.0,0.0,0.0,0.0,0.0,0.0,0.0,0.0,0.0,0.0,0.0,0.0,0.0,0.0,0.0,0.0,0.0,0.0,0.0,0.0,0.0,0.0,0.0,0.0,0.0,0.0,0.0,0.0,0.0,0.0,0.0,0.0,0.0,0.0,0.0,0.0,0.0,0.0,0.0,0.0,0.0,0.0,0.0,0.0,0.0,0.0,2.5917,2.7148,2.9032,3.1604,3.1724,3.135,3.0642,2.8074,2.5187,0.0,0.0,0.0,0.0,0.0,0.0,0.0,0.0,0.0,0.0,0.0,0.0,0.0,0.0,0.0,0.0,0.0,0.0,0.0,0.0,0.0,0.0,0.0,0.0,0.0,0.0,0.0,0.0,0.0,0.0,0.0,0.0,0.0,0.0,0.0,0.0,0.0,0.0,0.0,0.0,1.5628,1.5832,1.6354,0.0,0.0,0.0,0.0,0.0,0.0,1.6168,1.5801,0.0,0.0,0.0,0.0,0.0,0.0,0.0,0.0,0.0,0.0,0.0,0.0,0.0,0.0,0.0,0.0,0.0,0.0,0.0,0.0,0.0,0.0,0.0,0.0,0.0,0.0,0.0,0.0,0.0,0.0,0.0,0.0,0.0,0.0,0.0,0.0,0.0,0.0,0.0,0.0,0.0,0.0,0.0,0.0,0.0,0.0,0.0,0.0,0.0,0.0,0.0,0.0,0.0,0.0,0.0,2.6052,2.7372,2.9111,3.1096,3.0955,3.0318,2.9189,2.6647,2.3446,0.0,0.0,0.0,0.0,0.0,0.0,0.0,0.0,0.0,0.0,0.0,0.0,0.0,0.0,0.0,0.0,0.0,0.0,0.0,0.0,0.0,0.0,0.0,0.0,0.0,0.0,0.0,0.0,0.0,0.0,0.0,0.0,0.0,0.0,0.0,0.0,0.0,0.0,0.0,0.0,0.0,1.6103,1.6615,1.6368,0.0,0.0,0.0,0.0,1.5906,1.5988,0.0,0.0,0.0,0.0,0.0,0.0,0.0,0.0,0.0,0.0,0.0,0.0,0.0,0.0,0.0,0.0,0.0,0.0,0.0,0.0,0.0,0.0,0.0,0.0,0.0,0.0,0.0,0.0,0.0,0.0,0.0,0.0,0.0,0.0,0.0,0.0,0.0,0.0,0.0,0.0,0.0,0.0,0.0,0.0,0.0,0.0,0.0,0.0,0.0,0.0,0.0,0.0,0.0,0.0,0.0,0.0,2.6175,2.5416,2.648,2.9455,2.8463,2.7729,2.7522,2.2948,2.0098,0.0,0.0,0.0,0.0,0.0,0.0,0.0,0.0,0.0,0.0,0.0,0.0,0.0,0.0,0.0,0.0,0.0,0.0,0.0,0.0,0.0,0.0,0.0,0.0,0.0,0.0,0.0,0.0,0.0,0.0,0.0,0.0,0.0,0.0,0.0,0.0,0.0,0.0,0.0,0.0,0.0,1.6225,1.6635,1.6368,1.6076,0.0,0.0,1.6815,1.6594,1.7175,0.0,0.0,0.0,0.0,0.0,0.0,0.0,0.0,0.0,0.0,0.0,0.0,0.0,0.0,0.0,0.0,0.0,0.0,0.0,0.0,0.0,0.0,0.0,0.0,0.0,0.0,0.0,0.0,0.0,0.0,0.0,0.0,0.0,0.0,0.0,0.0,0.0,0.0,0.0,0.0,0.0,0.0,0.0,0.0,0.0,0.0,0.0,0.0,0.0,0.0,0.0,0.0,0.0,0.0,0.0,2.3167,2.3664,2.5223,2.673,2.81,2.7135,2.6188,2.5419,2.1025,1.8265,0.0,0.0,0.0,0.0,0.0,0.0,0.0,0.0,0.0,0.0,0.0,0.0,0.0,0.0,0.0,0.0,0.0,0.0,0.0,0.0,0.0,0.0,0.0,0.0,0.0,0.0,0.0,0.0,0.0,0.0,0.0,0.0,0.0,0.0,0.0,0.0,0.0,0.0,0.0,0.0,0.0,0.0,1.6876,1.6714,0.0,0.0,0.0,1.6931,1.6442,0.0,0.0,0.0,0.0,0.0,0.0,0.0,0.0,0.0,0.0,0.0,0.0,0.0,0.0,0.0,0.0,0.0,0.0,0.0,0.0,0.0,0.0,0.0,0.0,0.0,0.0,0.0,0.0,0.0,0.0,0.0,0.0,0.0,0.0,0.0,0.0,0.0,0.0,0.0,0.0,0.0,0.0,0.0,0.0,0.0,0.0,0.0,0.0,0.0,0.0,0.0,0.0,0.0,0.0,0.0,0.0,0.0,2.1229,2.4152,2.5813,2.5916,2.4997,2.4053,2.3016,1.9651,0.0,0.0,0.0,0.0,0.0,0.0,0.0,0.0,0.0,0.0,0.0,0.0,0.0,0.0,0.0,0.0,0.0,0.0,0.0,0.0,0.0,0.0,0.0,0.0,0.0,0.0,0.0,1.2458,0.0,0.0,0.0,0.0,0.0,0.0,0.0,0.0,0.0,0.0,0.0,0.0,0.0,0.0,1.7134,1.6951,1.6924,1.6978,0.0,0.0,1.7066,1.67,1.7514,1.7813,0.0,0.0,0.0,0.0,0.0,0.0,0.0,0.0,0.0,0.0,0.0,0.0,0.0,0.0,0.0,0.0,0.0,0.0,0.0,0.0,0.0,0.0,0.0,0.0,0.0,0.0,0.0,0.0,0.0,0.0,0.0,0.0,0.0,0.0,0.0,0.0,0.0,0.0,0.0,0.0,0.0,0.0,0.0,0.0,0.0,0.0,0.0,0.0,0.0,0.0,0.0,0.0,0.0,0.0,0.0,2.0198,2.0983,2.1786,2.2282,2.1088,2.0418,2.0427,1.8444,1.6818,0.0,0.0,0.0,0.0,0.0,0.0,0.0,0.0,0.0,0.0,0.0,0.0,0.0,0.0,0.0,0.0,0.0,0.0,0.0,0.0,0.0,0.0,0.0,0.0,0.0,0.0,0.0,0.0,0.0,0.0,0.0,0.0,0.0,0.0,0.0,0.0,0.0,0.0,0.0,0.0,0.0,1.6581,1.6696,1.6768,1.7167,0.0,0.0,1.7412,1.8063,1.8681,1.8565,1.6905,0.0,0.0,0.0,0.0,0.0,0.0,0.0,0.0,0.0,0.0,0.0,0.0,0.0,0.0,0.0,0.0,0.0,0.0,0.0,0.0,0.0,0.0,0.0,0.0,0.0,0.0,0.0,0.0,0.0,0.0,0.0,0.0,0.0,0.0,0.0,0.0,0.0,0.0,0.0,0.0,0.0,0.0,0.0,0.0,0.0,0.0,0.0,0.0,0.0,0.0,0.0,0.0,0.0,1.7827,1.7135,1.9361,2.0652,2.0822,1.9958,1.9454,1.9523,1.7589,1.6036,0.0,0.0,0.0,0.0,0.0,0.0,0.0,0.0,0.0,0.0,0.0,0.0,0.0,0.0,0.0,0.0,0.0,0.0,0.0,0.0,0.0,0.0,0.0,0.0,0.0,0.0,0.0,0.0,1.4373,1.4448,1.4434,0.0,0.0,0.0,0.0,0.0,0.0,0.0,0.0,0.0,0.0,1.7304,1.7541,1.7656,0.0,0.0,1.8089,1.7955,1.7792,1.8186,1.8023,1.6571,1.6185,0.0,0.0,0.0,0.0,0.0,0.0,0.0,0.0,0.0,0.0,0.0,0.0,0.0,0.0,0.0,0.0,0.0,0.0,0.0,0.0,0.0,0.0,0.0,0.0,0.0,0.0,0.0,0.0,0.0,0.0,0.0,0.0,0.0,0.0,0.0,0.0,0.0,0.0,0.0,0.0,0.0,0.0,0.0,0.0,0.0,0.0,0.0,0.0,0.0,0.0,0.0,0.0,1.6186,1.4788,1.81,1.9654,1.9447,1.8928,1.869,1.8712,1.7315,1.6029,0.0,0.0,0.0,0.0,0.0,0.0,0.0,0.0,0.0,0.0,0.0,0.0,0.0,0.0,0.0,0.0,0.0,0.0,0.0,0.0,0.0,0.0,0.0,0.0,0.0,0.0,0.0,0.0,1.4692,1.4706,1.4529,0.0,0.0,0.0,0.0,0.0,0.0,0.0,0.0,0.0,0.0,1.7724,1.7758,1.7853,1.7935,1.7975,1.784,1.7636,1.7392,1.7541,1.7385,1.6497,0.0,0.0,0.0,0.0,0.0,0.0,0.0,0.0,0.0,0.0,0.0,0.0,0.0,0.0,0.0,0.0,0.0,0.0,0.0,0.0,0.0,0.0,0.0,0.0,0.0,0.0,0.0,2.2024,0.0,0.0,2.1641,0.0,0.0,0.0,0.0,0.0,0.0,0.0,0.0,0.0,0.0,0.0,0.0,0.0,0.0,0.0,0.0,0.0,0.0,0.0,0.0,0.0,0.0,1.4823,1.3908,1.7147,1.8463,1.7732,1.7643,1.7772,1.7957,1.7697,1.7128,1.6252,0.0,0.0,0.0,0.0,0.0,0.0,0.0,0.0,0.0,0.0,0.0,0.0,0.0,0.0,0.0,0.0,0.0,0.0,0.0,0.0,0.0,0.0,0.0,0.0,0.0,0.0,1.3342,1.3928,1.4373,0.0,0.0,0.0,0.0,0.0,0.0,0.0,0.0,0.0,0.0,1.6822,1.7691,1.7093,1.7012,1.71,1.7243,1.653,1.6289,1.7087,1.7024,1.6867,0.0,0.0,0.0,0.0,0.0,0.0,0.0,0.0,0.0,0.0,0.0,0.0,0.0,0.0,0.0,0.0,0.0,0.0,0.0,0.0,0.0,0.0,0.0,0.0,0.0,0.0,0.0,2.4329,2.4315,0.0,0.0,0.0,0.0,0.0,0.0,0.0,0.0,0.0,0.0,0.0,2.6907,2.53,0.0,0.0,0.0,0.0,0.0,0.0,0.0,0.0,0.0,0.0,0.0,0.0,1.4138,1.4231,1.6805,1.8122,1.7935,1.7987,1.8062,1.8165,1.8124,1.7487,1.6198,0.0,0.0,0.0,0.0,0.0,0.0,0.0,0.0,0.0,0.0,0.0,0.0,0.0,0.0,0.0,0.0,0.0,0.0,0.0,0.0,0.0,0.0,0.0,0.0,0.0,1.4007,0.0,0.0,0.0,0.0,0.0,0.0,0.0,0.0,0.0,0.0,0.0,1.5282,1.5927,1.6137,1.6374,1.6768,1.6917,1.7236,0.0,0.0,0.0,0.0,0.0,0.0,0.0,0.0,0.0,0.0,0.0,0.0,0.0,0.0,1.6951,1.5961,1.6341,1.6822,1.677,0.0,0.0,0.0,0.0,0.0,0.0,0.0,0.0,0.0,0.0,0.0,0.0,0.0,0.0,2.6587,0.0,2.6386,0.0,0.0,0.0,0.0,0.0,0.0,0.0,0.0,2.6626,2.7396,2.7898,2.6366,2.531,0.0,2.1841,1.8881,0.0,0.0,0.0,0.0,0.0,0.0,0.0,0.0,1.3973,1.4455,1.6727,1.8043,1.824,1.8342,1.8396,1.8389,1.8389,1.7914,1.689,1.5845,1.4767,0.0,0.0,0.0,0.0,0.0,0.0,0.0,0.0,0.0,0.0,0.0,0.0,0.0,0.0,0.0,0.0,0.0,0.0,0.0,0.0,0.0,0.0,0.0,1.4156,0.0,0.0,0.0,0.0,0.0,0.0,0.0,0.0,0.0,1.4794,1.5181,1.5669,1.63,1.6361,1.6354,1.631,0.0,0.0,0.0,0.0,0.0,0.0,0.0,1.6157,1.5934,1.6114,1.6581,1.7419,1.8023,1.8369,1.826,0.0,0.0,1.7046,1.7331,1.7785,1.7731,1.8002,1.8165,1.797,1.7915,1.7806,0.0,0.0,0.0,0.0,0.0,0.0,0.0,0.0,2.9873,2.8751,0.0,2.8724,0.0,0.0,0.0,0.0,2.5669,2.7715,0.0,0.0,3.0302,3.0383,2.7039,2.6787,2.5839,2.4116,2.2114,1.9616,1.6917,1.6078,0.0,0.0,0.0,0.0,0.0,0.0,1.4245,1.4672,1.6924,1.8247,1.8467,1.8538,1.8481,1.8538,1.8538,1.8464,1.8287,1.7324,1.6707,1.6476,1.437,0.0,0.0,0.0,0.0,0.0,0.0,0.0,0.0,0.0,0.0,0.0,0.0,0.0,0.0,0.0,0.0,0.0,0.0,0.0,0.0,1.419,0.0,0.0,0.0,0.0,0.0,0.0,0.0,0.0,0.0,0.0,1.4604,1.5527,1.6263,1.6442,0.0,0.0,0.0,0.0,1.6449,1.5073,1.4816,1.497,1.5181,1.5988,1.679,1.7487,0.0,0.0,1.9807,1.9427,1.902,1.8643,1.9488,1.9725,1.845,1.8253,1.8219,1.8077,1.8219,1.8158,1.8085,1.8221,1.8097,3.4038,0.0,0.0,0.0,0.0,2.9713,3.0742,3.2278,3.2158,3.1717,3.1116,3.1537,0.0,0.0,0.0,0.0,0.0,0.0,2.6789,2.6893,2.8119,2.898,2.9512,2.8284,2.6988,2.5551,2.378,2.208,2.0436,1.9333,1.6847,1.3035,0.0,0.0,0.0,0.0,1.4848,1.6067,1.7629,1.8498,1.8694,1.8694,1.8701,1.8694,1.8694,1.8626,1.8477,1.8179,1.7555,1.6564,1.5872,0.0,0.0,0.0,0.0,0.0,0.0,0.0,0.0,0.0,0.0,0.0,0.0,0.0,0.0,0.0,0.0,0.0,0.0,0.0,1.4299,1.4835,1.478,0.0,0.0,0.0,0.0,0.0,0.0,0.0,0.0,0.0,1.5541,1.5296,1.5235,0.0,0.0,1.493,1.457,1.556,1.6449,1.6716,1.6992,0.0,1.8255,1.8111,1.7974,1.819,1.9218,2.0064,2.0044,2.0512,2.0838,2.0627,2.0787,2.0885,2.0451,2.0234,2.0139,2.0112,2.0139,2.0153,2.0112,2.0017,1.9984,3.7705,3.5243,3.2341,3.1543,3.2185,3.2318,3.336,3.4977,3.4803,3.4215,3.3387,3.3895,3.2572,2.9855,2.8968,0.0,0.0,0.0,2.7062,2.7623,2.7808,2.8026,2.8193,2.7234,2.6139,2.4879,2.387,2.2793,2.1564,2.0289,1.793,1.4588,0.0,0.0,1.3722,1.4701,1.5796,1.6953,1.8138,1.8762,1.8909,1.8847,1.882,1.882,1.8881,1.8782,1.8633,1.8681,1.8314,1.7446,1.7005,1.609,0.0,0.0,0.0,0.0,0.0,0.0,0.0,0.0,0.0,0.0,0.0,1.3607,1.3261,0.0,0.0,0.0,1.4685,1.4767,1.4782,1.4843,0.0,0.0,0.0,0.0,0.0,0.0,0.0,1.4238,1.5418,1.6266,1.613,1.5778,1.5708,1.6347,1.611,1.5791,1.5527,0.0,1.7446,1.7779,1.803,1.8403,1.9027,1.9149,1.9291,1.9712,2.0404,2.0899,2.0851,2.1353,2.1706,2.1638,2.1618,2.1584,2.1496,2.1408,2.1258,2.1048,2.1001,2.1001,2.1001,2.0967,2.0946,4.0327,3.9488,3.4419,3.3187,3.4589,3.4831,3.5858,3.7395,3.7395,3.6193,3.4322,3.5859,3.4206,3.0135,2.8327,0.0,2.7709,2.7983,2.809,2.8142,2.8553,2.7183,2.4438,2.4537,2.3977,2.2732,2.274,2.2099,2.0864,1.9626,1.8412,1.7235,1.6768,1.6096,1.5282,1.6123,1.6817,1.7405,1.8348,1.8891,1.9,1.8871,1.8854,1.8803,1.8932,1.8938,1.8847,1.8918,1.8925,1.882,1.7908,1.7297,1.7127,0.0,0.0,0.0,0.0,0.0,0.0,0.0,0.0,0.0,0.0,0.0,0.0,0.0,0.0,0.0,1.5438,0.0,1.5735,1.4762,0.0,0.0,0.0,1.5092,1.6191,1.6381,1.6395,1.63,0.0,0.0,1.6581,1.6736,1.723,1.8342,1.8694,1.8559,1.7703,1.8484,1.9,1.8396,1.8491,1.8626,1.8932,1.9637,2.0546,2.1408,2.1835,2.1862,2.1842,2.1869,2.1896,2.1869,2.1876,2.1869,2.1876,2.1842,2.1713,2.119,2.1082,2.1068,2.1068,2.1157,2.1252,4.0681,3.92,3.7866,3.7235,3.6981,3.7048,3.7328,3.7702,3.7716,3.7261,3.6593,3.6994,3.5681,3.3017,3.1189,2.9795,2.8652,2.8705,2.7616,2.5686,2.5796,2.4897,2.333,2.3372,2.274,2.1559,2.15,2.0923,1.9831,1.94,1.8481,1.7229,1.6978,1.6307,1.5235,1.5323,1.6008,1.7236,1.7494,1.8118,1.9108,1.9115,1.9101,1.9094,1.9135,1.9081,1.8945,1.8972,1.8972,1.8932,1.8694,1.8145,1.7222,1.5655,0.0,0.0,0.0,0.0,0.0,0.0,0.0,0.0,0.0,1.3166,1.2526,0.0,1.3741,0.0,1.5703,1.6876,1.7088,1.7012,0.0,0.0,1.6069,1.5988,1.6286,1.7012,1.7148,1.6239,1.7032,1.7677,1.7711,1.7941,1.8481,1.959,1.8559,1.7623,1.7602,1.8749,1.9583,1.9685,2.037,2.0987,2.0845,2.1184,2.1597,2.2099,2.2201,2.2194,2.2079,2.2059,2.2025,2.1909,2.1882,2.1882,2.1889,2.1882,2.1848,2.1699,2.1591,2.1475,2.1367,2.1455,2.1557,4.0355,3.9332,3.902,3.8678,3.8223,3.821,3.8223,3.821,3.8076,3.7461,3.6439,3.5516,3.3948,3.2046,3.1032,2.9323,2.7193,2.7135,2.598,2.3977,2.4003,2.3394,2.2216,2.2286,2.1668,2.0479,2.0479,2.0169,1.9522,1.9379,1.8925,1.8192,1.8043,1.7372,1.6198,1.5438,1.554,1.6439,1.7026,1.7948,1.9244,1.9237,1.8891,1.8247,1.8274,1.7921,1.7127,1.7161,1.7168,1.7107,1.7222,1.6998,1.6313,1.5086,1.4089,0.0,0.0,0.0,0.0,0.0,0.0,0.0,0.0,0.0,0.0,0.0,1.4566,1.4814,1.6388,1.7304,1.7073,1.7066,1.7133,1.7114,1.7046,1.7209,1.7738,1.8371,1.8466,1.7813,1.8335,1.8816,1.8877,1.9081,1.9488,2.0171,1.944,1.8871,1.9156,1.9976,2.0621,2.0811,2.1414,2.1862,2.1774,2.1889,2.2038,2.2201,2.2296,2.231,2.2228,2.2215,2.2181,2.2106,2.2086,2.2086,2.2086,2.2086,2.2072,2.1991,2.1923,2.1815,2.1672,2.176,2.1869,4.0,3.9666,3.9118,3.869,3.8417,3.8436,3.8396,3.8343,3.8078,3.6884,3.4916,3.2817,3.0992,2.9515,2.9108,2.7435,2.4938,2.4702,2.3927,2.2761,2.2913,2.2335,2.1166,2.1284,2.0758,1.978,1.9739,1.9732,1.9745,1.9535,1.9366,1.9176,1.904,1.8369,1.7161,1.5866,1.535,1.56,1.6784,1.796,1.9103,1.8905,1.8124,1.689,1.691,1.6286,1.4836,1.4909,1.4909,1.4787,1.5038,1.5269,1.5425,1.4319,1.3797,0.0,1.2705,0.0,0.0,0.0,0.0,0.0,0.0,0.0,0.0,1.5499,1.5906,1.6456,1.7222,1.7419,1.6795,1.6619,1.701,1.7955,1.8147,1.8518,1.9575,1.9725,1.9725,1.9725,1.9725,1.9773,1.9813,2.0003,2.009,1.9869,1.9914,1.9829,2.0155,2.0857,2.1543,2.1686,2.1578,2.1092,2.0779,2.0937,2.094,2.1116,2.1001,2.1524,2.1669,2.1738,2.1889,2.2185,2.2247,2.2261,2.2337,2.233,2.222,2.2167,2.2133,2.2059,2.1889,2.1937,2.2079,4.0788,4.0281,3.9933,3.8688,3.7003,3.6836,3.661,3.6396,3.6404,3.5148,3.3001,3.0905,2.9917,2.9558,2.7048,2.5719,2.5265,2.4186,2.3046,2.185,2.188,2.1304,2.0208,2.0125,2.0031,1.999,1.9834,1.978,1.9895,1.9685,1.9,1.7826,1.7772,1.71,1.5845,0.0,0.0,0.0,1.6885,1.7669,1.7879,1.6831,1.6134,1.59,1.5749,0.0,1.5126,1.5018,1.5003,1.4936,1.5139,0.0,0.0,0.0,0.0,0.0,0.0,0.0,0.0,0.0,0.0,0.0,1.5568,1.5486,1.5492,1.571,1.635,1.7493,1.7724,1.8158,1.9011,1.9065,1.9133,1.9344,1.9378,1.942,1.9711,1.9664,1.9725,1.9725,1.9664,1.9719,1.9731,2.001,1.946,1.8031,1.8081,1.7638,1.6136,1.9019,2.1363,2.1713,2.0223,1.8578,1.6962,1.6784,1.6998,1.671,1.6747,1.7562,1.916,1.9527,2.0338,2.1675,2.2344,2.2199,2.2199,2.2344,2.2109,2.2227,2.2214,2.2181,2.1801,2.1828,2.1923,4.1002,4.0441,4.0,3.8574,0.0,3.648,3.5262,3.3454,3.4147,3.3336,3.1282,2.8741,2.7671,2.7657,2.5535,2.4246,2.3719,2.3047,2.2069,2.085,2.0843,2.0585,1.9983,1.9908,1.9956,2.0092,1.9949,1.9915,1.9976,1.9915,1.9488,1.8755,1.8742,1.8403,1.769,1.666,1.6267,1.6588,1.6327,1.6509,1.707,1.5562,1.4361,1.3608,1.3519,0.0,0.0,0.0,0.0,0.0,0.0,0.0,0.0,1.2935,0.0,1.3677,1.3051,1.2973,1.366,1.4598,1.5462,1.6235,1.6291,1.6407,1.6743,1.7277,1.7935,1.8725,1.8807,1.9058,1.9643,1.9725,1.9725,1.9725,1.9725,1.9353,1.8428,1.8245,1.7818,1.6959,1.6776,1.6822,1.6944,1.707,1.6762,1.5929,1.5977,1.5437,1.4295,1.6279,1.8393,1.8698,1.7885,1.6706,1.5796,1.5436,1.5335,1.546,1.5475,1.5976,1.6983,1.7199,1.7647,1.8731,1.8967,1.8967,1.9104,1.98,2.0539,2.0688,2.1354,2.1963,2.1747,2.1903,2.2086,4.0924,4.0088,3.9507,3.7869,3.5754,3.5706,3.3466,3.0068,3.15,0.0,0.0,2.6803,2.5607,2.5311,2.4176,2.3006,2.2015,2.1775,2.1092,2.0098,2.0098,2.0098,2.0098,2.0071,2.0092,2.0139,2.0085,2.0092,2.0139,2.0112,2.0098,2.0098,1.9725,1.9339,1.8927,1.7267,1.656,1.682,1.5104,1.4734,1.5739,1.4045,1.2376,1.0907,1.0819,1.0124,0.8702,0.8594,0.8579,0.8597,0.8901,0.9204,0.951,0.991,1.0314,1.0634,1.0707,1.1126,1.2227,1.3819,1.5127,1.611,1.6221,1.6477,1.7104,1.7967,1.8488,1.8671,1.8677,1.8617,1.8677,1.8684,1.8677,1.8677,1.8677,1.794,1.6465,1.6155,1.5611,1.4144,1.396,1.3744,1.3754,1.3787,1.3365,1.3101,1.2898,1.2654,1.1793,1.2958,1.4402,1.4065,1.3744,1.3765,1.3439,1.3091,1.3515,1.2907,1.3119,1.3681,1.3983,1.4116,1.4287,1.489,1.5004,1.5251,1.5344,1.6883,1.807,1.8145,1.9473,2.0721,2.0644,2.1135,2.1585,4.0513,3.8661,3.8047,3.5672,3.2277,3.2146,2.9975,2.6869,2.8099,2.7897,2.6552,2.615,2.5308,2.4208,2.2874,2.2201,2.1891,2.0844,2.0285,2.0098,2.0098,2.0098,2.0092,1.9969,2.0044,2.0261,2.0031,2.0044,2.0261,2.0104,2.0098,1.985,1.8343,1.6546,1.4892,1.4439,1.4311,1.429,1.2947,1.2311,1.2513,1.1117,0.9745,0.8507,0.8214,0.7488,0.6166,0.6022,0.5932,0.5987,0.7186,0.836,0.9549,1.0707,1.2038,1.3138,1.3282,1.3348,1.3461,1.3842,1.4012,1.4186,1.4205,1.4268,1.4346,1.4487,1.4618,1.4633,1.4756,1.4633,1.4633,1.4694,1.4694,1.4694,1.4633,1.445,1.4078,1.4083,1.3838,1.3344,1.3777,1.3038,1.1956,1.1952,1.0911,0.8811,0.8459,0.7646,0.6812,0.8842,1.0253,0.9145,0.8613,0.7809,0.7153,0.6001,0.6558,0.5846,0.6326,0.7366,0.8941,0.9193,0.9753,1.1466,1.2371,1.3127,1.3363,1.4778,1.5403,1.5601,1.605,1.6394,1.6364,1.7656,1.9468,3.9629,3.8423,3.6763,3.4443,3.1641,2.9609,2.7412,2.5339,2.5908,2.5663,2.4875,2.4269,2.3635,2.3021,2.1737,2.1153,2.1153,2.0587,2.0343,2.0336,2.0336,2.0343,2.0336,2.0268,2.0309,2.0424,2.0227,1.9664,1.8824,1.8586,1.7983,1.704,1.6035,1.4521,1.2538,1.1733,1.0732,0.9598,1.0023,1.0231,1.0261,0.7854,0.6317,0.5745,0.5645,0.5331,0.4694,0.4637,0.4616,0.4578,0.524,0.5894,0.6459,0.7145,0.78,0.841,0.843,0.843,0.8433,0.9474,1.0088,1.0088,1.0088,0.9597,0.8492,1.1747,1.3777,1.3777,1.3156,1.2718,1.2657,1.2045,1.1613,1.1613,1.1613,1.1184,1.0268,1.0088,0.9597,0.8676,0.8433,0.8199,0.7612,0.7576,0.7256,0.5503,0.4925,0.408,0.314,0.404,0.5282,0.5572,0.578,0.5445,0.444,0.4305,0.4312,0.4326,0.4326,0.4743,0.5723,0.5845,0.634,0.7206,0.8115,0.8372,0.8558,0.9922,1.0877,1.128,1.2221,1.2658,1.2991,1.4232,1.6765,3.8507,3.7187,3.509,3.2863,3.0476,2.7524,2.5449,2.4206,2.4206,2.3842,2.3161,2.2574,2.218,2.1817,2.0928,2.0539,2.0539,2.0539,2.0476,2.0539,2.0539,2.0462,2.0499,2.0428,2.0238,1.9838,1.9676,1.8616,1.6997,1.667,1.5395,1.3432,1.2924,1.1728,0.9615,0.8549,0.717,0.5682,0.6689,0.7503,0.768,0.5224,0.3793,0.3539,0.3512,0.3374,0.3055,0.3018,0.3004,0.302,0.3313,0.3494,0.3451,0.3762,0.3885,0.3885,0.3885,0.3885,0.4008,0.5299,0.6218,0.622,0.622,0.5543,0.4561,0.8556,1.1563,1.1441,1.0387,0.9894,0.9713,0.9035,0.848,0.848,0.848,0.7869,0.6523,0.6218,0.5666,0.4192,0.3885,0.3955,0.3541,0.3489,0.345,0.3054,0.2196,0.1694,0.1501,0.066,0.1132,0.2475,0.3356,0.3229,0.3365,0.323,0.3165,0.337,0.3239,0.3179,0.3316,0.3313,0.3316,0.3541,0.3868,0.4202,0.4209,0.554,0.6781,0.7198,0.8236,0.927,1.0,1.0835,1.342,3.7154,3.3626,3.2542,3.0234,2.7224,2.5767,2.4325,2.3056,2.2992,2.2122,2.1125,2.2033,2.185,2.0773,2.0596,2.0539,2.0539,2.0539,2.0539,2.0539,2.0539,2.0408,2.0244,2.0293,1.9392,1.7809,1.7533,1.651,1.4652,1.4455,1.2911,0.9968,0.8489,0.6927,0.4977,0.4652,0.4365,0.4057,0.3161,0.3235,0.435,0.4126,0.3442,0.2295,0.2278,0.1634,0.0562,0.0372,0.0,0.0432,0.1541,0.2157,0.2282,0.3207,0.3885,0.3823,0.3823,0.3885,0.3885,0.4069,0.413,0.4192,0.413,0.4069,0.3823,0.4438,0.4868,0.4991,0.4806,0.4929,0.4621,0.4621,0.456,0.462,0.4558,0.4375,0.4192,0.4192,0.4069,0.3947,0.3577,0.3455,0.2413,0.2178,0.1696,0.0,0.0,0.0,0.0,0.0,0.0,0.0,0.0,0.0,0.0,0.0,0.0,0.0,0.0,0.0,0.0,0.0,0.0,0.0,0.1622,0.2286,0.2628,0.3488,0.4378,0.4443,0.4891,0.54,0.7042,0.7776,0.9975,3.4143,3.1618,2.9942,2.7409,2.4637,2.3992,2.2964,2.1683,2.1703,2.1284,2.0637,2.1272,2.1138,2.0539,2.0539,2.0539,2.0539,2.0539,2.0539,2.0539,2.0476,1.9871,1.8741,1.8671,1.7587,1.5723,1.5409,1.3976,1.1424,0.9332,0.7582,0.6341,0.5656,0.489,0.4045,0.326,0.2862,0.2783,0.1527,0.1083,0.1526,0.1599,0.1413,0.0962,0.0889,0.0631,0.0,0.0,0.0,0.0,0.0555,0.0802,0.0802,0.1296,0.1604,0.1604,0.1604,0.1604,0.1604,0.1604,0.1604,0.1604,0.1604,0.1604,0.1604,0.1604,0.1604,0.1666,0.2344,0.2775,0.2714,0.2098,0.1604,0.1604,0.1604,0.0,0.1604,0.0,0.1604,0.1604,0.1604,0.0,0.0933,0.0816,0.057,0.0,0.0,0.0,0.0,0.0,0.0,0.0,0.0,0.0,0.0,0.0,0.0,0.0,0.0,0.0,0.0,0.0,0.0,0.0,0.0,0.0,0.0872,0.1203,0.1724,0.0,0.0,0.2226,0.3925,0.4331,0.5789,3.1592,2.9891,2.7435,2.5135,2.3063,2.2717,2.1938,2.0977,2.1014,2.0885,2.0627,2.0722,2.0689,2.0553,2.0539,2.0539,2.0539,2.0539,2.0222,1.977,1.9643,1.8624,1.677,1.6642,1.536,1.3286,1.2851,1.1075,0.7911,0.5027,0.3538,0.3525,0.3152,0.2967,0.2836,0.1989,0.1534,0.1468,0.0,0.0,0.0,0.0,0.0,0.0,0.0,0.0,0.0,0.0,0.0,0.0,0.0,0.0,0.0,0.0,0.0,0.0,0.0,0.0,0.0,0.0,0.0,0.0,0.0,0.0,0.0,0.0,0.0,0.0,0.0926,0.142,0.1357,0.0555,0.0,0.0,0.0,0.0,0.0,0.0,0.0,0.0,0.0,0.0,0.0,0.0,0.0,0.0,0.0,0.0,0.0,0.0,0.0,0.0,0.0,0.0,0.0,0.0,0.0,0.0,0.0,0.0,0.0,0.0,0.0,0.0,0.0,0.0,0.0,0.0,0.0,0.0,0.0,0.0,0.1631,0.0,0.0,3.024,2.8059,2.5231,2.3634,2.3111,2.2006,2.1392,2.1163,2.119,2.1034,2.077,2.0763,2.0682,2.0349,2.0285,2.0412,2.0412,2.0222,1.9197,1.7726,1.7599,1.6514,1.4592,1.4465,1.2732,0.9714,0.9497,0.7767,0.4509,0.2967,0.2193,0.2127,0.1032,0.0,0.0,0.0,0.0,0.0,0.0,0.0,0.0,0.0,0.0,0.0,0.0,0.0,0.0,0.0,0.0,0.0,0.0,0.0,0.0,0.0,0.0,0.0,0.0,0.0,0.0,0.0,0.0,0.0,0.0,0.0,0.0,0.0,0.0,0.0,0.0,0.0,0.0,0.0,0.0,0.0,0.0,0.0,0.0,0.0,0.0,0.0,0.0,0.0,0.0,0.0,0.0,0.0,0.0,0.0,0.0,0.0,0.0,0.0,0.0,0.0,0.0,0.0,0.0,0.0,0.0,0.0,0.0,0.0,0.0,0.0,0.0,0.0,0.0,0.0,0.0,0.0,0.0,0.0,0.0,0.0,0.0,2.7665,2.5046,2.3067,2.2178,2.2027,2.1554,2.1353,2.1218,2.1211,2.1048,2.0868,2.0834,1.9978,1.8561,1.8561,1.8555,1.8427,1.7216,1.619,1.5556,1.5487,1.3948,1.1318,1.1126,0.9329,0.6373,0.5899,0.4851,0.2866,0.1413,0.0772,0.0706,0.0258,0.0,0.0,0.0,0.0,0.0,0.0,0.0,0.0,0.0,0.0,0.0,0.0,0.0,0.0,0.0,0.0,0.0,0.0,0.0,0.0,0.0,0.0,0.0,0.0,0.0,0.0,0.0,0.0,0.0,0.0,0.0,0.0,0.0,0.0,0.0,0.0,0.0,0.0,0.0,0.0,0.0,0.0,0.0,0.0,0.0,0.0,0.0,0.0,0.0,0.0,0.0,0.0,0.0,0.0,0.0,0.0,0.0,0.0,0.0,0.0,0.0,0.0,0.0,0.0,0.0,0.0,0.0,0.0,0.0,0.0,0.0,0.0,0.0,0.0,0.0,0.0,0.0,0.0,0.0,0.0,0.0,0.0,2.5222,2.2906,2.1888,2.1482,2.1375,2.1375,2.1314,2.1285,2.1285,2.0724,2.0032,1.9864,1.8604,1.6595,1.5807,1.5232,1.4907,1.4465,1.4021,1.3377,1.2988,1.119,0.8626,0.7854,0.6182,0.3737,0.2888,0.2171,0.14,0.0449,0.0,0.0,0.0,0.0,0.0,0.0,0.0,0.0,0.0,0.0,0.0,0.0,0.0,0.0,0.0,0.0,0.0,0.0,0.0,0.0,0.0,0.0,0.0,0.0,0.0,0.0,0.0,0.0,0.0,0.0,0.0,0.0,0.0,0.0,0.0,0.0,0.0,0.0,0.0,0.0,0.0,0.0,0.0,0.0,0.0,0.0,0.0,0.0,0.0,0.0,0.0,0.0,0.0,0.0,0.0,0.0,0.0,0.0,0.0,0.0,0.0,0.0,0.0,0.0,0.0,0.0,0.0,0.0,0.0,0.0,0.0,0.0,0.0,0.0,0.0,0.0,0.0,0.0,0.0,0.0,0.0,0.0,0.0,0.0,0.0,2.2896,2.1595,2.1604,2.1564,2.1382,2.1375,2.1368,2.1156,2.1149,1.9844,1.7989,1.7776,1.6275,1.4251,1.2304,1.0687,1.0164,1.2087,1.2351,1.088,0.9782,0.8176,0.6124,0.4964,0.3675,0.2065,0.0774,0.0,0.0,0.0,0.0,0.0,0.0,0.0,0.0,0.0,0.0,0.0,0.0,0.0,0.0,0.0,0.0,0.0,0.0,0.0,0.0,0.0,0.0,0.0,0.0,0.0,0.0,0.0,0.0,0.0,0.0,0.0,0.0,0.0,0.0,0.0,0.0,0.0,0.0,0.0,0.0,0.0,0.0,0.0,0.0,0.0,0.0,0.0,0.0,0.0,0.0,0.0,0.0,0.0,0.0,0.0,0.0,0.0,0.0,0.0,0.0,0.0,0.0,0.0,0.0,0.0,0.0,0.0,0.0,0.0,0.0,0.0,0.0,0.0,0.0,0.0,0.0,0.0,0.0,0.0,0.0,0.0,0.0,0.0,0.0,0.0,0.0,0.0,0.0,2.1814,2.1448,2.1489,2.1489,2.1375,2.1375,2.0639,1.9225,1.914,1.7791,1.5862,1.4598,1.293,1.097,0.9206,0.7503,0.5929,0.6892,0.6956,0.6379,0.5929,0.4963,0.3612,0.2967,0.2,0.0774,0.0258,0.0,0.0,0.0,0.0,0.0,0.0,0.0,0.0,0.0,0.0,0.0,0.0,0.0,0.0,0.0,0.0,0.0,0.0,0.0,0.0,0.0,0.0,0.0,0.0,0.0,0.0,0.0,0.0,0.0,0.0,0.0,0.0,0.0,0.0,0.0,0.0,0.0,0.0,0.0,0.0,0.0,0.0,0.0,0.0,-0.1302,-0.1612,0.0,0.0,0.0,0.0,0.0,0.0,0.0,0.0,0.0,0.0,0.0,0.0,0.0,0.0,0.0,0.0,0.0,0.0,0.0,0.0,0.0,0.0,0.0,0.0,0.0,0.0,0.0,0.0,0.0,0.0,0.0,0.0,0.0,0.0,0.0,0.0,0.0,0.0,0.0,0.0,0.0,0.0,2.1375,2.1375,2.1375,2.0904,2.024,2.0234,1.9032,1.7085,1.6347,1.49,1.2867,1.123,0.938,0.756,0.6445,0.506,0.3484,0.3354,0.3096,0.2774,0.3225,0.2839,0.2065,0.1484,0.0903,0.0,0.0,0.0,0.0,0.0,0.0,0.0,0.0,0.0,0.0,0.0,0.0,0.0,0.0,0.0,0.0,0.0,0.0,0.0,0.0,0.0,0.0,-0.0684,-0.0746,0.0,0.0,0.0,0.0,0.0,0.0,0.0,0.0,0.0,0.0,0.0,0.0,0.0,0.0,0.0,0.0,0.0,0.0,-0.0992,0.0,-0.1609,0.0,-0.3958,-0.4331,-0.3821,0.0,-0.2949,-0.2657,-0.1984,0.0,0.0,0.0,-0.1547,-0.1548,-0.1548,-0.1548,-0.1548,-0.1548,-0.1161,-0.1032,0.0,0.0,0.0,0.0,0.0,0.0,0.0,0.0,0.0,0.0,0.0,0.0,0.0,0.0,0.0,0.0,0.0,0.0,0.0,0.0,0.0,0.0,0.0,0.0,0.0,0.0,2.1302,2.1242,2.1176,1.9902,1.8167,1.8028,1.6696,1.4624,1.3408,1.156,0.9384,0.7769,0.6068,0.438,0.3913,0.3053,0.2132,0.2,0.1419,0.0903,0.1355,0.1807,0.1613,0.071,0.0,0.0,0.0,0.0,0.0,0.0,0.0,0.0,0.0,0.0,0.0,0.0,0.0,0.0,0.0,0.0,0.0,0.0,0.0,0.0,0.0,0.0,0.0,-0.2962,-0.2653,0.0,0.0,0.0,0.0,0.0,0.0,0.0,0.0,0.0,0.0,0.0,0.0,0.0,0.0,0.0,0.0,0.0,-0.2435,-0.3666,-0.3728,-0.4712,-0.6963,-0.8003,-0.8615,-0.9791,-0.847,-0.7494,-0.7177,-0.5573,-0.4823,-0.4633,-0.4444,-0.4513,-0.4641,-0.4639,-0.4639,-0.4639,-0.4639,-0.4253,-0.3673,-0.3414,-0.2128,0.0,0.0,0.0,0.0,0.0,0.0,0.0,0.0,0.0,0.0,0.0,0.0,0.0,0.0,0.0,0.0,0.0,0.0,0.0,0.0,0.0,0.0,0.0,0.0,2.0506,1.9098,1.9032,1.7834,1.5963,1.583,1.4018,1.1273,1.0668,0.8575,0.5959,0.4202,0.3376,0.2628,0.1568,0.0844,0.0,0.0,0.0452,0.0129,0.0323,0.0516,0.0516,0.0,0.0,0.0,0.0,0.0,0.0,0.0,0.0,0.0,0.0,0.0,0.0,0.0,0.0,0.0,-0.1601,-0.2297,-0.2736,-0.4647,-0.5853,-0.5972,-0.6546,-0.6948,-0.7192,-0.7683,-0.6828,-0.45,-0.2894,-0.2951,-0.399,-0.3123,-0.2933,-0.4035,-0.4291,-0.479,-0.5219,-0.4369,-0.4686,-0.6781,-0.5506,-0.5748,-0.7108,-0.7175,-0.7473,-0.8014,-0.8014,-0.8316,-0.9406,-1.0755,-1.2683,-1.4678,-1.2361,-0.9935,-0.9604,-0.9052,-0.8658,-0.8685,-0.8586,-0.8544,-0.855,-0.855,-0.855,-0.855,-0.8486,-0.8293,-0.7525,-0.733,-0.6559,-0.5792,0.0,0.0,0.0,0.0,0.0,0.0,0.0,0.0,0.0,0.0,0.0,0.0,0.0,0.0,0.0,0.0,0.0,0.0,0.0,0.0,0.0,0.0,0.0,1.9218,1.802,1.7208,1.5291,1.2941,1.2779,1.076,0.775,0.6734,0.5463,0.3397,0.1927,0.1255,0.1181,0.0392,0.0,0.0,0.0,0.0,0.0,0.0,0.0,0.0,0.0,0.0,0.0,0.0,0.0,0.0,0.0,0.0,0.0,0.0,0.0,0.0,-0.0968,-0.1612,-0.2447,-0.4103,-0.5438,-0.6259,-0.7809,-0.857,-0.8915,-0.9582,-1.007,-1.0809,-1.1058,-0.9955,-0.7869,-0.6503,-0.643,-0.7284,-0.653,-0.6399,-0.7497,-0.7518,-0.7895,-0.8329,-0.7552,-0.7899,-0.9289,-0.8689,-0.8905,-0.9566,-0.9989,-1.0027,-1.0925,-1.1069,-1.1767,-1.3147,-1.4679,-1.6551,-1.7873,-1.5989,-1.3972,-1.3362,-1.2504,-1.2107,-1.2027,-1.2039,-1.2011,-1.2011,-1.2075,-1.2075,-1.2011,-1.1887,-1.1503,-1.0987,-1.1175,-1.0851,-0.9573,-0.855,-0.7525,-0.6309,-0.5088,-0.3866,-0.3485,-0.3104,-0.1954,0.0,0.0,0.0,0.0,0.0,-0.1257,-0.2037,-0.2939,0.0,0.0,0.0,-0.4014,-0.3813,-0.2855,-0.3113,1.7488,1.6973,1.5218,1.2387,0.9429,0.9052,0.7312,0.4321,0.3175,0.2377,0.1717,0.0593,0.0,0.0,0.0,0.0,0.0,0.0,0.0,0.0,0.0,0.0,0.0,0.0,0.0,0.0,0.0,0.0,0.0,0.0,0.0,0.0,0.0,0.0,-0.2062,-0.3222,-0.4443,-0.5788,-0.7631,-0.9103,-1.017,-1.1071,-1.1674,-1.1642,-1.1845,-1.2579,-1.3504,-1.3626,-1.2884,-1.105,-1.043,-1.0112,-1.0276,-1.0328,-1.0306,-1.0448,-1.0632,-1.0719,-1.0651,-1.0783,-1.0738,-1.1521,-1.1432,-1.096,-1.1816,-1.2216,-1.2724,-1.4025,-1.3634,-1.5011,-1.6849,-1.8799,-1.9202,-1.9614,-1.9477,-1.8957,-1.7765,-1.603,-1.503,-1.504,-1.504,-1.504,-1.504,-1.504,-1.5104,-1.56,-1.5477,-1.5217,-1.4829,-1.4765,-1.3802,-1.2199,-1.1303,-1.047,-0.9256,-0.7975,-0.6757,-0.5862,-0.5798,-0.4982,-0.3649,0.0,0.0,-0.2828,-0.4337,-0.5507,-0.6331,-0.7401,-0.8211,-0.8211,-0.7441,-0.8584,-0.9599,-0.7989,-0.7492,1.3887,1.1394,1.0952,0.8719,0.5751,0.5414,0.4436,0.266,0.2312,0.1518,0.0,0.0,0.0,0.0,0.0,0.0,0.0,0.0,0.0,0.0,0.0,0.0,0.0,0.0,0.0,0.0,0.0,0.0,0.0,0.0,-0.0968,-0.2579,-0.3735,-0.4762,-0.6305,-0.7451,-0.8801,-0.9497,-1.1119,-1.2338,-1.3319,-1.5078,-1.6024,-1.6048,-1.6561,-1.7362,-1.7952,-1.8077,-1.7829,-1.6846,-1.4405,-1.3031,-1.3766,-1.3083,-1.3065,-1.3981,-1.437,-1.4826,-1.5441,-1.4603,-1.4888,-1.6618,-1.5724,-1.5943,-1.7585,-1.7258,-1.7579,-1.8211,-1.824,-1.8222,-1.9008,-1.9482,-1.9719,-1.9793,-1.9841,-1.9765,-1.9371,-1.9025,-1.8697,-1.8842,-1.8873,-1.9134,-1.907,-1.8746,-1.8809,-1.907,-1.8943,-1.8943,-1.8491,-1.7975,-1.6817,-1.5079,-1.4892,-1.4126,-1.2463,-1.1246,-1.0093,-0.9198,-0.8938,-0.958,-0.8219,-0.6898,-0.7046,-0.763,-0.8593,-0.9545,-1.0115,-1.0143,-1.0616,-1.0705,-1.1063,-1.1848,-1.2393,-1.1685,-1.1969,1.0788,0.8507,0.7554,0.566,0.3554,0.3283,0.2497,0.1317,0.1178,0.0719,0.0,0.0,0.0,0.0,0.0,0.0,0.0,0.0,0.0,0.0,0.0,0.0,-0.1603,-0.1993,-0.2191,-0.1741,0.0,-0.277,-0.3671,-0.4374,-0.5724,-0.6369,-0.7199,-0.7903,-0.9307,-1.0883,-1.1904,-1.2941,-1.4599,-1.5935,-1.7021,-1.8176,-1.9047,-1.8993,-1.9332,-1.9563,-1.9415,-1.9361,-1.9421,-1.8918,-1.7229,-1.6287,-1.7197,-1.6648,-1.6648,-1.7331,-1.7575,-1.7818,-1.8062,-1.7886,-1.7788,-1.9562,-1.8707,-1.8997,-1.9568,-1.9813,-1.9827,-1.9807,-1.9658,-1.9685,-1.9807,-1.9745,-1.9752,-1.9807,-1.9766,-1.98,-1.9902,-2.0139,-2.0349,-2.0438,-2.0181,-2.0272,-2.0476,-2.0539,-2.0412,-1.977,-1.977,-1.977,-1.9834,-1.9382,-1.9382,-1.8549,-1.8618,-1.7784,-1.5865,-1.4524,-1.3624,-1.2979,-1.2723,-1.4062,-1.4735,-1.3314,-1.207,-1.2118,-1.1913,-1.2808,-1.3301,-1.3248,-1.4021,-1.5564,-1.6146,-1.5622,-1.5543,-1.6245,-1.6587,0.7795,0.6369,0.4713,0.3152,0.1969,0.1827,0.1237,0.0,0.0,0.0,0.0,0.0,0.0,0.0,0.0,0.0,0.0,0.0,0.0,0.0,0.0,-0.2351,-0.3828,-0.4984,-0.5696,-0.4686,-0.5454,-0.6732,-0.8002,-0.9548,-0.935,-1.0446,-1.104,-1.154,-1.1967,-1.3325,-1.5017,-1.6188,-1.7499,-1.8717,-1.9648,-2.0068,-2.004,-1.9839,-1.9637,-1.9569,-1.9501,-1.9434,-1.9413,-1.9461,-1.936,-1.9481,-1.9583,-1.9624,-1.9603,-1.9529,-1.9247,-1.926,-1.928,-1.9367,-1.9482,-1.9882,-1.9766,-1.982,-1.9936,-1.9875,-1.9875,-1.9841,-1.9732,-1.9766,-1.9875,-1.9793,-1.9725,-1.9773,-1.9719,-1.9786,-1.9854,-2.0112,-2.0268,-2.0349,-2.0424,-2.0465,-2.0519,-2.0539,-2.0539,-2.0539,-2.0539,-2.0532,-2.0469,-2.0476,-2.0285,-2.0222,-1.9904,-1.977,-1.8109,-1.7408,-1.6504,-1.6121,-1.5993,-1.7211,-1.8943,-1.775,-1.5868,-1.4848,-1.4892,-1.5736,-1.6516,-1.6884,-1.8205,-2.0486,-2.0277,-1.8681,-1.9316,-2.0853,-2.0482,0.4198,0.2972,0.2589,0.1683,0.0,0.0,0.0,0.0,0.0,0.0,0.0,0.0,0.0,0.0,0.0,0.0,0.0,0.0,-0.1555,-0.2753,-0.3694,-0.5206,-0.7044,-0.8463,-0.9664,-1.0553,-1.0332,-0.9959,-0.9942,-0.9959,-1.1963,-1.2809,-1.3938,-1.5093,-1.6562,-1.8226,-1.841,-1.8599,-1.937,-1.9994,-2.023,-2.0376,-2.0315,-2.001,-1.9698,-1.9535,-1.9522,-1.9379,-1.9359,-1.9569,-1.9373,-1.9352,-1.9427,-1.9461,-1.9406,-1.9345,-1.9325,-1.9373,-1.9447,-1.9474,-1.9549,-1.9711,-1.9752,-1.9759,-1.9786,-1.9793,-1.9786,-1.9773,-1.9759,-1.9739,-1.9691,-1.9739,-1.9739,-1.9752,-1.9752,-1.9739,-1.9827,-1.9936,-2.018,-2.0282,-2.0343,-2.0424,-2.0492,-2.0469,-2.0455,-2.0455,-2.0462,-2.0449,-2.0428,-2.0455,-2.0476,-2.0412,-2.0412,-2.0349,-1.9961,-1.977,-1.9261,-1.8937,-1.8809,-1.8746,-2.0,-2.0298,-1.9478,-1.7791,-1.7727,-1.8729,-1.951,-1.9817,-2.0145,-2.0746,-2.0967,-2.1129,-2.117,-2.1211,-2.1285,0.2245,0.1026,0.1022,0.0638,0.0,0.0,0.0,0.0,0.0,0.0,0.0,0.0,0.0,0.0,-0.0745,-0.1733,-0.32,-0.4667,-0.5466,-0.661,-0.7197,-0.8538,-1.0487,-1.1846,-1.3584,-1.4891,-1.5098,-1.451,-1.4264,-1.506,-1.5493,-1.6628,-1.7596,-1.8403,-1.9139,-1.9591,-2.0056,-2.0085,-2.0105,-2.0146,-2.0193,-2.0234,-2.0126,-2.0017,-1.9678,-1.9454,-1.9379,-1.9312,-1.9264,-1.9359,-1.9278,-1.9257,-1.9271,-1.9244,-1.921,-1.9189,-1.9189,-1.9223,-1.9298,-1.9312,-1.9352,-1.9413,-1.9495,-1.9542,-1.9569,-1.961,-1.9718,-1.9725,-1.9725,-1.9725,-1.9732,-1.9725,-1.9725,-1.9725,-1.9725,-1.9759,-1.982,-1.9902,-1.9997,-2.02,-2.0349,-2.0444,-2.0512,-2.0462,-2.0428,-2.0428,-2.0442,-2.0428,-2.0401,-2.0435,-2.0539,-2.0539,-2.0539,-2.0476,-2.0476,-2.0476,-2.0539,-2.0539,-2.0539,-2.0539,-2.0573,-2.0604,-2.0584,-1.9809,-2.0486,-2.0675,-2.0604,-2.0264,-2.0628,-2.0885,-2.1048,-2.1204,-2.1306,-2.1314,-2.1355,0.1019,0.0,0.0,0.0,0.0,0.0,0.0,0.0,0.0,0.0,0.0,0.0,0.0,-0.1351,-0.2928,-0.4906,-0.7277,-0.871,-0.9242,-0.9954,-1.0499,-1.1755,-1.3691,-1.5187,-1.6557,-1.7671,-1.8426,-1.9314,-1.8219,-1.8715,-1.9745,-1.9598,-1.9925,-2.0126,-2.009,-1.9948,-1.9976,-1.9942,-1.9949,-1.9956,-2.0031,-1.9969,-1.9984,-2.001,-1.9651,-1.9379,-1.9312,-1.9237,-1.9203,-1.9217,-1.9183,-1.9156,-1.9135,-1.902,-1.9,-1.9088,-1.9108,-1.9122,-1.9156,-1.9162,-1.9203,-1.9318,-1.9319,-1.9434,-1.9508,-1.961,-1.9725,-1.9725,-1.9725,-1.9725,-1.9725,-1.9725,-1.9725,-1.9725,-1.9732,-1.9752,-1.9807,-1.9813,-1.9868,-2.0078,-2.0315,-2.039,-2.039,-2.039,-2.0336,-2.041,-2.0424,-2.0415,-2.0401,-2.0449,-2.0539,-2.0539,-2.0539,-2.0539,-2.0476,-2.0476,-2.0539,-2.0539,-2.0539,-2.0539,-2.0573,-2.0627,-2.0587,-2.0489,-2.0594,-2.0641,-2.0641,-2.0709,-2.0872,-2.1021,-2.1157,-2.1272,-2.1301,-2.1341,-2.1362,0.0126,0.0,0.0,0.0,0.0,0.0,0.0,0.0,0.0,0.0,0.0,-0.1394,-0.2723,-0.4581,-0.7215,-0.8583,-0.9305,-1.0139,-1.1299,-1.2536,-1.3414,-1.4813,-1.6758,-1.8148,-1.844,-1.9138,-1.9388,-1.9522,-1.942,-1.9725,-1.9915,-1.9963,-2.0037,-2.0058,-1.9976,-1.9888,-1.982,-1.9759,-1.982,-1.9936,-2.0037,-1.9942,-1.9888,-1.982,-1.9603,-1.9333,-1.9332,-1.9244,-1.9183,-1.9169,-1.9074,-1.9027,-1.8993,-1.8871,-1.881,-1.8868,-1.8888,-1.8871,-1.8986,-1.9033,-1.9122,-1.9278,-1.94,-1.9501,-1.9583,-1.9684,-1.9725,-1.9725,-1.9725,-1.9725,-1.9725,-1.9725,-1.9725,-1.9725,-1.9725,-1.9732,-1.9773,-1.9759,-1.982,-1.9888,-2.0105,-2.0146,-2.0153,-2.0166,-2.0187,-2.0275,-2.0356,-2.0347,-2.0401,-2.0442,-2.0539,-2.0539,-2.0539,-2.0539,-2.0539,-2.0539,-2.0539,-2.0539,-2.0539,-2.0539,-2.056,-2.0587,-2.0566,-2.0489,-2.0594,-2.0655,-2.0709,-2.0824,-2.1001,-2.1136,-2.1252,-2.134,-2.1355,-2.1375,-2.1375,0.0,0.0,0.0,0.0,0.0,0.0,0.0,0.0,-0.0789,-0.1628,-0.2695,-0.4006,-0.5958,-0.8479,-1.0864,-1.2272,-1.318,-1.3985,-1.5082,-1.5691,-1.6639,-1.749,-1.8282,-1.9019,-1.9413,-1.94,-1.9501,-1.9542,-1.9603,-1.9678,-1.978,-1.9922,-1.9861,-1.9875,-1.9841,-1.9786,-1.9732,-1.9759,-1.9793,-1.9888,-1.9895,-1.9847,-1.9854,-1.9847,-1.9501,-1.9345,-1.9278,-1.9162,-1.9088,-1.9074,-1.9006,-1.8993,-1.8959,-1.8857,-1.882,-1.882,-1.8827,-1.8854,-1.8857,-1.9004,-1.9074,-1.9196,-1.9339,-1.9495,-1.9624,-1.9718,-1.9718,-1.9725,-1.9725,-1.9725,-1.9725,-1.9725,-1.9725,-1.9725,-1.9725,-1.9773,-1.9786,-1.9712,-1.9759,-1.982,-1.9875,-1.9936,-1.9997,-2.0064,-2.0119,-2.0214,-2.0295,-2.0356,-2.0424,-2.0478,-2.0512,-2.0539,-2.0539,-2.0539,-2.0539,-2.0539,-2.0539,-2.0539,-2.0539,-2.0539,-2.0539,-2.0546,-2.0483,-2.0483,-2.0503,-2.0648,-2.0756,-2.0878,-2.1007,-2.1163,-2.1267,-2.1314,-2.1362,-2.1375,-2.1368,0.0,0.0,0.0,0.0,0.0,0.0,0.0,0.0,-0.2152,-0.3749,-0.581,-0.7693,-1.0081,-1.2362,-1.4113,-1.5537,-1.6657,-1.8175,-1.8713,-1.8945,-1.9033,-1.8976,-1.9037,-1.9244,-1.9264,-1.9196,-1.9393,-1.944,-1.944,-1.9522,-1.9671,-1.9868,-1.9739,-1.9793,-1.9827,-1.9793,-1.9732,-1.9732,-1.9732,-1.9793,-1.9786,-1.9786,-1.98,-1.9664,-1.9461,-1.9203,-1.9183,-1.9595,-1.9591,-1.899,-1.9968,-2.0085,-1.9211,-1.9279,-1.947,-1.9535,-1.9535,-1.9797,-1.9788,-1.9676,-1.9203,-1.9156,-1.9305,-1.9556,-1.9624,-1.9644,-1.9637,-1.9718,-1.9603,-1.9617,-1.9711,-1.9725,-1.9725,-1.9725,-1.9725,-1.98,-1.9841,-1.98,-1.9705,-1.98,-1.9841,-1.9807,-1.9881,-1.9976,-2.0064,-2.0153,-2.0227,-2.0309,-2.039,-2.0478,-2.0505,-2.0539,-2.0539,-2.0539,-2.0539,-2.0539,-2.0539,-2.0539,-2.0539,-2.0573,-2.0594,-2.058,-2.0503,-2.0503,-2.0516,-2.0655,-2.0777,-2.0885,-2.1001,-2.1157,-2.1292,-2.1301,-2.1348,-2.1362,-2.1368,0.0,0.0,0.0,0.0,0.0,0.0,-0.1727,-0.3918,-0.4336,-0.6373,-0.9386,-1.2075,-1.4115,-1.5628,-1.6932,-1.7967,-1.8523,-1.8704,-1.8762,-1.8769,-1.8861,-1.8891,-1.8972,-1.9033,-1.9101,-1.9156,-1.9278,-1.9271,-1.9264,-1.9406,-1.9542,-1.9711,-1.9718,-1.9725,-1.9745,-1.9745,-1.9739,-1.9745,-1.9759,-1.9745,-1.978,-1.9752,-1.9752,-1.9677,-1.946,-1.9203,-1.9322,-2.0361,-2.0841,-1.9811,-2.1215,-2.1325,-2.0073,-2.0335,-2.0708,-2.0634,-2.0671,-2.114,-2.1473,-2.0592,-1.9445,-1.9405,-1.9522,-1.9624,-1.9718,-1.9589,-1.9589,-1.9759,-1.9765,-1.969,-1.9745,-1.9725,-1.9725,-1.9725,-1.9732,-1.9773,-1.98,-1.9766,-1.9739,-1.9739,-1.9786,-1.9807,-1.9888,-2.0017,-2.0119,-2.0214,-2.0275,-2.0356,-2.0444,-2.0519,-2.0526,-2.0539,-2.0539,-2.0539,-2.0539,-2.0539,-2.0539,-2.0539,-2.0539,-2.0607,-2.0682,-2.0648,-2.051,-2.0661,-2.0695,-2.0743,-2.0783,-2.0878,-2.0987,-2.1136,-2.1258,-2.1294,-2.1348,-2.1362,-2.1375,0.0,0.0,0.0,0.0,-0.0177,-0.1987,-0.3501,-0.5026,-0.7288,-1.0226,-1.3324,-1.5642,-1.7077,-1.7743,-1.7984,-1.8599,-1.8779,-1.8654,-1.864,-1.866,-1.8715,-1.8735,-1.8796,-1.8891,-1.8986,-1.8993,-1.9088,-1.9142,-1.9101,-1.9284,-1.942,-1.9522,-1.9657,-1.9718,-1.9725,-1.9732,-1.9766,-1.9834,-1.9848,-1.9848,-1.9854,-1.9786,-1.9814,-1.9705,-2.0498,-2.1183,-2.2097,-2.2256,-2.2593,-2.2997,-2.3196,-2.2446,-2.1701,-2.2153,-2.2356,-2.2302,-2.2342,-2.2838,-2.3144,-2.2185,-2.1331,-2.0572,-2.023,-1.9847,-2.0083,-2.0309,-2.0195,-2.0223,-2.0377,-2.0605,-1.9812,-1.9725,-1.9725,-1.9725,-1.9806,-1.9901,-1.9976,-2.003,-2.0092,-2.0263,-2.0052,-1.9915,-2.0003,-2.0092,-2.0187,-2.0282,-2.0336,-2.0404,-2.0485,-2.0539,-2.0539,-2.0539,-2.0539,-2.0539,-2.0539,-2.0539,-2.0539,-2.0539,-2.0539,-2.0627,-2.0702,-2.0614,-2.0573,-2.0689,-2.0841,-2.0834,-2.0797,-2.0865,-2.098,-2.1123,-2.1265,-2.1321,-2.1355,-2.1368,-2.1375,0.0,0.0,0.0,-0.023,-0.0869,-0.3402,-0.5425,-0.712,-1.0196,-1.3536,-1.6567,-1.7956,-1.8559,-1.8654,-1.8586,-1.8559,-1.8766,-1.8674,-1.8626,-1.8654,-1.8701,-1.8687,-1.8728,-1.881,-1.8932,-1.8915,-1.8972,-1.9067,-1.8938,-1.9176,-1.9291,-1.9386,-1.9508,-1.959,-1.9725,-1.9732,-1.9793,-1.9841,-1.9827,-2.0216,-2.0338,-2.048,-2.0858,-2.0911,-2.1714,-2.281,-2.4096,-2.4584,-2.4841,-2.5491,-2.5743,-2.518,-2.4704,-2.4587,-2.5095,-2.5064,-2.5055,-2.5275,-2.5536,-2.3867,-2.3065,-2.2129,-2.157,-2.1108,-2.11,-2.1608,-2.1677,-2.1328,-2.1722,-2.1707,-2.0722,-2.1108,-2.1229,-2.1471,-2.0776,-2.0704,-2.0746,-2.0829,-2.086,-2.0883,-2.0952,-2.1385,-2.0651,-2.0735,-2.0463,-2.0482,-2.041,-2.0458,-2.0499,-2.0539,-2.0539,-2.0539,-2.0539,-2.0539,-2.0539,-2.0539,-2.0539,-2.0539,-2.056,-2.0648,-2.0682,-2.0594,-2.0641,-2.0804,-2.0851,-2.0861,-2.0838,-2.0926,-2.1021,-2.1116,-2.1265,-2.1355,-2.1362,-2.1375,-2.1375,0.0,0.0,0.0,-0.085,-0.2125,-0.3932,-0.7062,-1.0649,-1.3025,-1.551,-1.7971,-1.864,-1.8715,-1.8807,-1.8752,-1.8779,-1.8793,-1.88,-1.8715,-1.8701,-1.8728,-1.8749,-1.8782,-1.8843,-1.8943,-1.883,-1.8898,-1.8918,-1.8847,-1.8986,-1.9108,-1.9349,-1.9559,-1.9717,-1.9711,-1.9725,-1.98,-1.9895,-1.9929,-2.0643,-2.1564,-2.1917,-2.2616,-2.3158,-2.4093,-2.5362,-2.689,-2.7561,-2.7835,-2.804,-2.9848,-2.9098,-2.6949,-2.8812,-2.973,-2.9901,-3.0049,-3.0805,-3.1937,-2.6745,-2.4794,-2.4322,-2.427,-2.3676,-2.3411,-2.3466,-2.3246,-2.2772,-2.3114,-2.3278,-2.3206,-2.3218,-2.3,-2.2714,-2.1956,-2.1777,-2.1891,-2.1921,-2.2018,-2.2159,-2.3006,-2.3486,-2.2348,-2.1524,-2.1027,-2.0754,-2.0548,-2.0519,-2.0532,-2.0539,-2.0539,-2.0539,-2.0539,-2.0539,-2.0539,-2.0539,-2.0539,-2.0539,-2.056,-2.0627,-2.0661,-2.0621,-2.0722,-2.0906,-2.0885,-2.0797,-2.0885,-2.1001,-2.1082,-2.117,-2.1313,-2.1368,-2.1368,-2.1375,-2.1375,0.0,0.0,-0.2132,-0.3706,-0.4966,-0.6724,-0.9554,-1.3049,-1.578,-1.7633,-1.84,-1.8694,-1.882,-1.882,-1.882,-1.882,-1.882,-1.8813,-1.8793,-1.8633,-1.8715,-1.8674,-1.8701,-1.8769,-1.8875,-1.8847,-1.8823,-1.894,-1.8834,-1.9176,-1.9097,-1.9219,-2.0214,-2.0285,-1.9927,-1.9793,-2.0037,-2.0937,-2.1243,-2.1824,-2.3234,-2.4304,-2.5147,-2.5803,-2.7292,-2.9028,-3.065,-3.0954,-3.105,-3.1449,-3.3409,-3.193,-3.0463,-3.2159,-3.2253,-3.2165,-3.2051,-3.2197,-3.2589,-3.0398,-2.9575,-2.8683,-2.76,-2.6653,-2.5686,-2.6267,-2.5497,-2.4391,-2.4529,-2.4357,-2.3676,-2.3642,-2.3553,-2.3428,-2.309,-2.3288,-2.3375,-2.3391,-2.3462,-2.3668,-2.4294,-2.4473,-2.3763,-2.2984,-2.2424,-2.1933,-2.178,-2.097,-2.0793,-2.0603,-2.0539,-2.0539,-2.0539,-2.0539,-2.0539,-2.0539,-2.0539,-2.0539,-2.0539,-2.056,-2.0587,-2.0614,-2.0709,-2.0845,-2.0824,-2.0804,-2.0953,-2.1082,-2.1136,-2.1231,-2.1294,-2.1348,-2.1335,-2.1348,-2.1375,-0.0224,-0.0898,-0.3415,-0.5815,-0.7881,-0.9742,-1.2386,-1.5447,-1.7723,-1.8647,-1.864,-1.8721,-1.882,-1.882,-1.882,-1.882,-1.882,-1.882,-1.88,-1.8626,-1.8708,-1.8701,-1.8687,-1.8701,-1.882,-1.8865,-1.9171,-1.9388,-1.956,-1.99,-2.0321,-2.0864,-2.1443,-2.1654,-2.1299,-2.1365,-2.1606,-2.2489,-2.3045,-2.4262,-2.5746,-2.7088,-2.8391,-2.931,-3.0658,-3.2464,-3.3806,-3.4439,-3.4439,-3.5236,-3.5246,-3.4368,-3.4203,-3.446,-3.4694,-3.4687,-3.4721,-3.4854,-3.4927,-3.4988,-3.4264,-3.3782,-3.1874,-3.004,-2.8742,-2.8812,-2.7917,-2.686,-2.627,-2.5723,-2.5294,-2.5147,-2.5103,-2.5043,-2.4743,-2.4953,-2.4888,-2.4905,-2.5005,-2.5215,-2.565,-2.5613,-2.5244,-2.4631,-2.4,-2.3566,-2.3139,-2.2189,-2.1238,-2.092,-2.0666,-2.0539,-2.0539,-2.0539,-2.0539,-2.0539,-2.0539,-2.0539,-2.0476,-2.0476,-2.0594,-2.0641,-2.0716,-2.0777,-2.0797,-2.0865,-2.1048,-2.1163,-2.1245,-2.1306,-2.1314,-2.1335,-2.1307,-2.1335,-2.1368,-0.0786,-0.2074,-0.3917,-0.7153,-1.0679,-1.2815,-1.5485,-1.8269,-1.8474,-1.8613,-1.8742,-1.8735,-1.882,-1.882,-1.882,-1.882,-1.882,-1.882,-1.8807,-1.88,-1.8807,-1.88,-1.88,-1.8807,-1.8994,-1.9286,-1.9634,-2.018,-2.0679,-2.1137,-2.1877,-2.2662,-2.3294,-2.3626,-2.375,-2.4459,-2.4483,-2.4906,-2.5846,-2.7208,-2.8759,-3.0346,-3.1592,-3.2529,-3.3569,-3.464,-3.5516,-3.5909,-3.5909,-3.649,-3.7193,-3.6884,-3.7077,-3.7704,-3.8298,-3.853,-3.8272,-3.8084,-3.791,-3.7762,-3.7891,-3.6875,-3.4992,-3.3629,-3.2568,-3.1564,-3.0605,-2.9665,-2.8961,-2.8382,-2.7966,-2.781,-2.7713,-2.7304,-2.6768,-2.6637,-2.6433,-2.6441,-2.6547,-2.6895,-2.7594,-2.754,-2.6715,-2.6033,-2.5601,-2.5412,-2.4899,-2.4142,-2.3068,-2.1428,-2.1111,-2.0539,-2.0539,-2.0539,-2.0539,-2.0539,-2.0539,-2.0539,-2.0483,-2.0489,-2.0607,-2.0655,-2.0702,-2.075,-2.0811,-2.0926,-2.1109,-2.1258,-2.1374,-2.1414,-2.1586,-2.1533,-2.1579,-2.1408,-2.1375,-0.2242,-0.4085,-0.7487,-1.0329,-1.2839,-1.5497,-1.7304,-1.817,-1.8423,-1.8565,-1.8599,-1.8715,-1.8807,-1.882,-1.882,-1.882,-1.882,-1.882,-1.882,-1.882,-1.882,-1.882,-1.882,-1.8936,-1.9342,-1.9857,-2.0352,-2.1006,-2.1559,-2.2188,-2.2408,-2.2644,-2.5149,-2.608,-2.7399,-2.8979,-2.8305,-2.8054,-2.901,-3.0304,-3.1879,-3.3439,-3.45,-3.5196,-3.612,-3.6972,-3.7361,-3.7567,-3.758,-3.7987,-3.8277,-3.8142,-3.8214,-3.8427,-3.866,-3.866,-3.866,-3.866,-3.8718,-3.8718,-3.8718,-3.8718,-3.7354,-3.6467,-3.5402,-3.4288,-3.3335,-3.2273,-3.1338,-3.0672,-3.0281,-3.0155,-2.9734,-2.9062,-2.8498,-2.7987,-2.7723,-2.7547,-2.7657,-2.78,-2.8499,-2.8374,-2.7612,-2.7549,-2.7173,-2.711,-2.667,-2.5844,-2.4584,-2.2878,-2.1682,-2.1047,-2.0539,-2.0539,-2.0539,-2.0539,-2.0539,-2.0539,-2.0483,-2.0483,-2.0503,-2.0607,-2.0668,-2.0912,-2.1314,-2.1308,-2.117,-2.1503,-2.2275,-2.202,-2.2058,-2.1895,-2.1791,-2.1819,-2.17,-0.3806,-0.5704,-0.9939,-1.3056,-1.5284,-1.7135,-1.7976,-1.8043,-1.8253,-1.8409,-1.8531,-1.8626,-1.8701,-1.8813,-1.882,-1.882,-1.882,-1.882,-1.882,-1.882,-1.882,-1.882,-1.882,-1.9284,-1.9914,-2.0534,-2.1388,-2.2277,-2.2764,-2.3504,-2.3884,-2.5404,-2.7666,-2.8769,-3.0256,-3.2069,-3.2782,-3.2321,-3.2509,-3.3486,-3.4618,-3.6028,-3.6807,-3.7255,-3.8364,-3.857,-3.8718,-3.8718,-3.8718,-3.8718,-3.8718,-3.866,-3.866,-3.866,-3.8718,-3.8718,-3.8718,-3.8718,-3.8718,-3.8718,-3.8718,-3.8718,-3.866,-3.8066,-3.7063,-3.6,-3.5109,-3.4217,-3.3464,-3.2813,-3.2615,-3.2365,-3.1545,-3.0726,-3.0026,-2.9243,-2.8875,-2.8558,-2.8533,-2.849,-2.8562,-2.8562,-2.8499,-2.8624,-2.8562,-2.8114,-2.7675,-2.7038,-2.5529,-2.3637,-2.2569,-2.1809,-2.1047,-2.0539,-2.0539,-2.0603,-2.0539,-2.0539,-2.0476,-2.0476,-2.0539,-2.0714,-2.0988,-2.1452,-2.2081,-2.2253,-2.2667,-2.3054,-2.3597,-2.3339,-2.3317,-2.3618,-2.3457,-2.287,-2.2686,-0.5412,-0.7081,-1.1697,-1.5249,-1.7674,-1.7833,-1.7908,-1.7936,-1.803,-1.8226,-1.8393,-1.8525,-1.8613,-1.8701,-1.88,-1.882,-1.882,-1.882,-1.882,-1.882,-1.882,-1.8878,-1.9451,-2.003,-2.0775,-2.1523,-2.2375,-2.3328,-2.4213,-2.5113,-2.6617,-2.8755,-2.9936,-3.1058,-3.27,-3.4893,-3.5624,-3.5578,-3.5519,-3.6024,-3.6434,-3.76,-3.8718,-3.8557,-3.866,-3.8718,-3.8718,-3.8718,-3.8718,-3.8718,-3.8718,-3.8718,-3.8718,-3.8718,-3.8718,-3.8718,-3.8718,-3.8718,-3.8718,-3.8718,-3.8718,-3.8718,-3.866,-3.8544,-3.7891,-3.7296,-3.6467,-3.6116,-3.5473,-3.5099,-3.4891,-3.4216,-3.3412,-3.235,-3.1393,-3.0444,-2.9687,-2.9144,-2.8605,-2.8624,-2.8624,-2.8624,-2.8624,-2.8624,-2.8624,-2.8562,-2.8374,-2.78,-2.6787,-2.4773,-2.3763,-2.2886,-2.1872,-2.1238,-2.0984,-2.0984,-2.0603,-2.0539,-2.0603,-2.0539,-2.0539,-2.0855,-2.1321,-2.214,-2.2979,-2.4068,-2.4702,-2.4799,-2.4799,-2.4981,-2.5097,-2.564,-2.5327,-2.4602,-2.4066,-0.7131,-0.9808,-1.451,-1.6983,-1.7636,-1.7642,-1.7772,-1.7915,-1.7956,-1.803,-1.8213,-1.8416,-1.8552,-1.8606,-1.8779,-1.882,-1.882,-1.8987,-1.882,-1.8994,-1.8987,-1.9683,-2.0088,-2.0833,-2.1756,-2.2956,-2.3814,-2.4614,-2.5427,-2.6708,-2.79,-2.8872,-3.1137,-3.3714,-3.4557,-3.6673,-3.7665,-3.7593,-3.7704,-3.7717,-3.7949,-3.8124,-3.8718,-3.8718,-3.8718,-3.8718,-3.8718,-3.8718,-3.8718,-3.8718,-3.8718,-3.8718,-3.8718,-3.8718,-3.8718,-3.8718,-3.8718,-3.8718,-3.8718,-3.8718,-3.8718,-3.8718,-3.8718,-3.8718,-3.8485,-3.8182,-3.7949,-3.7717,-3.7555,-3.7244,-3.6898,-3.605,-3.5154,-3.3943,-3.2829,-3.1701,-3.0577,-2.9717,-2.8836,-2.873,-2.873,-2.8624,-2.8624,-2.8624,-2.8624,-2.8562,-2.8562,-2.8311,-2.7926,-2.6536,-2.5475,-2.4458,-2.3012,-2.2252,-2.1935,-2.1745,-2.1555,-2.1174,-2.1238,-2.092,-2.0666,-2.1619,-2.2645,-2.324,-2.4053,-2.5264,-2.596,-2.559,-2.5722,-2.6314,-2.6782,-2.7251,-2.7317,-2.6791,-2.6059,-0.8175,-1.0236,-1.5236,-1.7467,-1.7494,-1.7561,-1.7642,-1.7772,-1.7888,-1.7963,-1.803,-1.8287,-1.8464,-1.8481,-1.8694,-1.8865,-1.8929,-1.9451,-1.9625,-1.9683,-2.0146,-2.0833,-2.1352,-2.1979,-2.3696,-2.5029,-2.6498,-2.7381,-2.7323,-2.8473,-2.9679,-3.0663,-3.3754,-3.5428,-3.6059,-3.7712,-3.8517,-3.846,-3.8638,-3.8704,-3.8718,-3.8718,-3.8718,-3.8718,-3.8718,-3.8718,-3.8718,-3.8718,-3.8718,-3.8718,-3.8718,-3.8718,-3.8718,-3.8718,-3.8718,-3.8718,-3.8718,-3.8718,-3.8718,-3.8718,-3.8718,-3.8718,-3.8718,-3.8718,-3.8718,-3.8427,-3.8427,-3.824,-3.824,-3.8047,-3.8002,-3.7347,-3.6487,-3.5393,-3.4676,-3.3783,-3.2358,-3.1019,-3.0361,-2.9978,-2.955,-2.8624,-2.8624,-2.8624,-2.8624,-2.8624,-2.8624,-2.8624,-2.8239,-2.8051,-2.7047,-2.6104,-2.4647,-2.3708,-2.3455,-2.3202,-2.2886,-2.2506,-2.1999,-2.1999,-2.214,-2.3097,-2.3994,-2.453,-2.5331,-2.6744,-2.7099,-2.702,-2.7431,-2.8161,-2.8497,-2.8778,-2.8712,-2.859,-2.8065,-0.9168,-1.0474,-1.5236,-1.7378,-1.7412,-1.7473,-1.7541,-1.7588,-1.7765,-1.7888,-1.788,-1.8158,-1.8355,-1.8491,-1.8654,-1.8817,-1.9256,-1.99,-2.0363,-2.1064,-2.1756,-2.216,-2.2958,-2.3992,-2.575,-2.7456,-2.9112,-2.958,-2.9715,-3.0771,-3.188,-3.345,-3.4696,-3.5809,-3.7092,-3.7863,-3.8223,-3.8414,-3.8491,-3.8651,-3.8691,-3.8718,-3.8718,-3.8718,-3.8718,-3.8718,-3.8718,-3.8718,-3.8718,-3.8718,-3.8718,-3.8718,-3.8718,-3.8718,-3.8718,-3.8718,-3.8718,-3.8718,-3.8718,-3.8718,-3.8718,-3.8718,-3.8718,-3.8718,-3.8718,-3.8718,-3.8718,-3.8718,-3.8718,-3.866,-3.8673,-3.8467,-3.7561,-3.6841,-3.6232,-3.5405,-3.3794,-3.2358,-3.1874,-3.1447,-3.0587,-2.9498,-2.934,-2.9278,-2.8952,-2.8952,-2.8668,-2.8615,-2.8562,-2.8436,-2.7926,-2.7361,-2.6482,-2.5727,-2.5034,-2.4403,-2.4024,-2.3771,-2.3392,-2.3392,-2.3636,-2.4541,-2.5287,-2.5708,-2.6652,-2.8,-2.8752,-2.8938,-2.9479,-2.9545,-2.9489,-2.9367,-2.9461,-2.9404,-2.9704,-1.1245,-1.5568,-1.669,-1.7127,-1.7236,-1.7277,-1.7344,-1.7426,-1.7575,-1.7636,-1.7772,-1.7982,-1.8158,-1.8192,-1.8464,-1.8924,-1.9885,-2.0577,-2.1337,-2.2094,-2.2678,-2.3196,-2.4279,-2.5968,-2.7897,-2.961,-3.0781,-3.0562,-3.1461,-3.2471,-3.3114,-3.3721,-3.6028,-3.6907,-3.7211,-3.7756,-3.8036,-3.8183,-3.8428,-3.8531,-3.8691,-3.8718,-3.8718,-3.8718,-3.8718,-3.8718,-3.8718,-3.8718,-3.8718,-3.8718,-3.8718,-3.8718,-3.8718,-3.8718,-3.8718,-3.8718,-3.8718,-3.8718,-3.8718,-3.8718,-3.8718,-3.8718,-3.8718,-3.8718,-3.8718,-3.8718,-3.8718,-3.8718,-3.8718,-3.8718,-3.866,-3.866,-3.8054,-3.7711,-3.7202,-3.5867,-3.4363,-3.3783,-3.3307,-3.3099,-3.2729,-3.2197,-3.2097,-3.161,-3.0701,-3.0309,-2.9331,-2.9216,-2.9005,-2.8836,-2.8677,-2.8248,-2.78,-2.7298,-2.641,-2.5412,-2.497,-2.4781,-2.4781,-2.4781,-2.5124,-2.593,-2.654,-2.6609,-2.7748,-2.9191,-2.9853,-2.9937,-2.9872,-2.9741,-2.9806,-2.9816,-2.9994,-3.034,-3.0677]},{"header":{"parameterUnit":"m.s-1","parameterCategory":1,"la1":31.0,"la2":29.5877,"lo1":-88.7671,"lo2":-86.6584,"dy":0.0162,"dx":0.0185,"nx":115,"ny":88,"refTime":"2023-11-13T06:00:00:Z","depth":0,"parameterNumber":3,"parameterNumberName":"V-component_of_WINDS"},"data":[0.0,0.0,0.0,0.0,0.0,0.0,0.0,0.0,0.0,0.0,0.0,0.0,0.0,0.0,0.0,0.0,0.0,0.0,0.0,0.0,0.0,0.0,0.0,0.0,0.0,0.0,0.0,0.0,0.0,0.0,0.0,0.0,0.0,0.0,0.0,0.0,0.0,0.0,0.0,0.0,0.0,0.0,0.0,0.0,0.0,0.0,0.0,0.0,0.0,0.0,0.0,0.0,0.0,0.0,0.0,0.0,0.0,0.0,0.0,0.0,0.0,0.0,0.0,0.0,0.0,0.0,0.0,0.0,0.0,0.0,0.0,0.0,0.0,0.0,0.0,0.0,0.0,0.0,0.0,0.0,0.0,0.0,0.0,0.0,0.0,0.0,0.0,0.0,0.0,0.0,0.0,0.0,0.0,0.0,0.0,0.0,0.0,0.0,0.0,0.0,0.0,0.0,0.0,0.0,0.0,0.0,0.0,0.0,0.0,0.0,0.0,0.0,0.0,0.0,0.0,0.0,0.0,0.0,0.0,0.0,0.0,0.0,0.0,0.0,0.0,0.0,0.0,0.0,0.0,0.0,0.0,0.0,0.0,0.0,0.0,0.0,0.0,0.0,0.0,0.0,0.0,0.0,0.0,0.0,0.0,0.0,0.0,0.0,0.0,0.0,0.0,0.0,0.0,0.0,0.0,0.0,0.0,0.0,0.0,0.0,0.0,0.0,0.0,0.0,0.0,0.0,0.0,0.0,0.0,0.0,0.0,0.0,0.0,0.0,0.0,0.0,0.0,0.0,0.0,0.0,0.0,0.0,0.0,0.0,0.0,0.0,0.0,0.0,0.0,0.0,0.0,0.0,0.0,0.0,0.0,0.0,0.0,0.0,0.0,0.0,0.0,0.0,0.0,0.0,0.0,0.0,0.0,0.0,0.0,0.0,0.0,0.0,0.0,0.0,0.0,0.0,0.0,0.0,0.0,0.0,0.0,0.0,0.0,0.0,0.0,0.0,0.0,0.0,0.0,0.0,0.0,0.0,0.0,0.0,0.0,0.0,0.0,0.0,0.0,0.0,0.0,0.0,0.0,0.0,0.0,0.0,0.0,0.0,0.0,0.0,0.0,0.0,0.0,0.0,0.0,0.0,0.0,0.0,0.0,0.0,0.0,0.0,0.0,0.0,0.0,0.0,0.0,0.0,0.0,0.0,0.0,0.0,0.0,0.0,0.0,0.0,0.0,0.0,0.0,0.0,0.0,0.0,0.0,0.0,0.0,0.0,0.0,0.0,0.0,0.0,0.0,0.0,0.0,0.0,0.0,0.0,0.0,0.0,0.0,0.0,0.0,0.0,0.0,0.0,0.0,0.0,0.0,0.0,0.0,0.0,0.0,0.0,0.0,0.0,0.0,0.0,0.0,0.0,0.0,0.0,0.0,0.0,0.0,0.0,0.0,0.0,0.0,0.0,0.0,0.0,0.0,0.0,0.0,0.0,0.0,0.0,0.0,0.0,0.0,0.0,0.0,0.0,0.0,0.0,0.0,0.0,0.0,0.0,0.0,0.0,0.0,0.0,0.0,0.0,0.0,0.0,0.0,0.0,0.0,0.0,0.0,0.0,0.0,0.0,0.0,0.0,0.0,0.0,0.0,0.0,0.0,0.0,0.0,0.0,0.0,0.0,0.0,0.0,0.0,0.0,0.0,0.0,0.0,0.0,0.0,0.0,0.0,0.0,0.0,0.0,0.0,0.0,0.0,0.0,0.0,0.0,0.0,0.0,0.0,0.0,0.0,0.0,0.0,0.0,0.0,0.0,0.0,0.0,0.0,0.0,0.0,0.0,0.0,0.0,0.0,0.0,0.0,0.0,0.0,0.0,0.0,0.0,0.0,0.0,0.0,0.0,0.0,0.0,0.0,0.0,0.0,0.0,0.0,0.0,0.0,0.0,0.0,0.0,0.0,0.0,0.0,0.0,0.0,0.0,0.0,0.0,0.0,0.0,0.0,0.0,0.0,0.0,0.0,0.0,0.0,0.0,0.0,0.0,0.0,0.0,0.0,0.0,0.0,0.0,0.0,0.0,0.0,0.0,0.0,0.0,0.0,0.0,0.0,0.0,0.0,0.0,0.0,0.0,0.0,0.0,0.0,0.0,0.0,0.0,0.0,0.0,0.0,0.0,0.0,0.0,0.0,0.0,0.0,0.0,0.0,0.0,0.0,0.0,0.0,0.0,0.0,0.0,0.0,0.0,0.0,0.0,0.0,0.0,0.0,0.0,0.0,0.0,0.0,0.0,0.0,0.0,0.0,0.0,0.0,0.0,0.0,0.0,0.0,0.0,0.0,0.0,0.0,0.0,0.0,0.0,0.0,0.0,0.0,0.0,0.0,0.0,0.0,0.0,0.0,0.0,0.0,0.0,0.0,0.0,0.0,0.0,0.0,0.0,0.0,0.0,0.0,0.0,0.0,0.0,0.0,0.0,0.0,0.0,0.0,0.0,0.0,0.0,0.0,0.0,0.0,0.0,0.0,0.0,0.0,0.0,0.0,0.0,0.0,0.0,0.0,0.0,0.0,0.0,0.0,0.0,0.0,0.0,0.0,0.0,0.0,0.0,0.0,0.0,0.0,0.0,0.0,0.0,0.0,0.0,0.0,0.0,0.0,0.0,0.0,0.0,0.0,0.0,0.0,0.0,0.0,0.0,0.0,0.0,0.0,0.0,0.0,0.0,0.0,0.0,0.0,0.0,0.0,0.0,0.0,0.0,0.0,0.0,0.0,0.0,0.0,0.0,0.0,0.0,0.0,0.0,0.0,0.0,0.0,0.0,0.0,0.0,0.0,0.0,0.0,0.0,0.0,0.0,0.0,0.0,0.0,0.0,0.0,0.0,0.0,0.0,0.0,0.0,0.0,0.0,0.0,0.0,0.0,0.0,0.0,0.0,0.0,0.0,0.0,0.0,0.0,0.0,0.0,0.0,0.0,0.0,0.0,0.0,0.0,0.0,0.0,0.0,0.0,0.0,0.0,0.0,0.0,0.0,0.0,0.0,0.0,0.0,0.0,0.0,0.0,0.0,0.0,0.0,0.0,0.0,0.0,0.0,0.0,0.0,0.0,0.0,0.0,0.0,0.0,0.0,0.0,0.0,0.0,0.0,0.0,0.0,0.0,0.0,0.0,0.0,0.0,0.0,0.0,0.0,0.0,0.0,0.0,0.0,0.0,0.0,0.0,0.0,0.0,0.0,0.0,0.0,0.0,0.0,0.0,0.0,0.0,0.0,0.0,0.0,0.0,0.0,0.0,0.0,0.0,0.0,0.0,0.0,0.0,0.0,0.0,0.0,0.0,0.0,0.0,0.0,0.0,0.0,0.0,0.0,0.0,0.0,0.0,0.0,0.0,0.0,0.0,0.0,0.0,0.0,0.0,0.0,0.0,0.0,0.0,0.0,0.0,0.0,0.0,0.0,0.0,0.0,0.0,0.0,0.0,0.0,0.0,0.0,0.0,0.0,0.0,0.0,0.0,0.0,0.0,0.0,0.0,0.0,0.0,0.0,0.0,0.0,0.0,0.0,0.0,0.0,0.0,0.0,0.0,0.0,0.0,0.0,0.0,0.0,0.0,0.0,0.0,0.0,0.0,0.0,0.0,0.0,0.0,0.0,0.0,0.0,0.0,0.0,0.0,0.0,0.0,0.0,0.0,0.0,0.0,0.0,0.0,0.0,0.0,0.0,0.0,0.0,0.0,0.0,0.0,0.0,0.0,0.0,0.0,0.0,0.0,0.0,0.0,0.0,0.0,0.0,0.0,0.0,0.0,0.0,0.0,0.0,0.0,0.0,0.0,0.0,0.0,0.0,0.0,0.0,0.0,0.0,0.0,0.0,0.0,0.0,0.0,0.0,0.0,0.0,0.0,0.0,0.0,0.0,0.0,0.0,0.0,0.0,0.0,0.0,0.0,0.0,0.0,0.0,0.0,0.0,0.0,0.0,0.0,0.0,0.0,0.0,0.0,0.0,0.0,0.0,0.0,0.0,0.0,0.0,0.0,0.0,0.0,0.0,0.0,0.0,0.0,0.0,0.0,0.0,0.0,0.0,0.0,0.0,0.0,0.0,0.0,0.0,0.0,0.0,0.0,0.0,0.0,0.0,0.0,0.0,0.0,0.0,0.0,0.0,0.0,0.0,0.0,0.0,0.0,0.0,0.0,0.0,0.0,0.0,0.0,0.0,0.0,0.0,0.0,0.0,0.0,0.0,0.0,0.0,0.0,0.0,0.0,0.0,0.0,0.0,0.0,0.0,6.77,0.0,0.0,0.0,0.0,0.0,0.0,0.0,0.0,0.0,0.0,0.0,0.0,0.0,0.0,0.0,0.0,0.0,0.0,0.0,0.0,0.0,0.0,0.0,0.0,0.0,0.0,0.0,0.0,0.0,0.0,0.0,0.0,0.0,0.0,0.0,0.0,0.0,0.0,0.0,0.0,0.0,0.0,0.0,0.0,0.0,0.0,0.0,0.0,0.0,0.0,0.0,0.0,0.0,0.0,0.0,0.0,0.0,0.0,0.0,0.0,0.0,0.0,0.0,0.0,0.0,0.0,0.0,0.0,0.0,0.0,0.0,0.0,0.0,0.0,0.0,0.0,0.0,0.0,0.0,0.0,0.0,0.0,0.0,0.0,0.0,0.0,0.0,0.0,0.0,0.0,0.0,0.0,0.0,0.0,0.0,0.0,0.0,0.0,0.0,0.0,0.0,0.0,0.0,0.0,0.0,0.0,0.0,0.0,0.0,0.0,6.7921,6.8311,6.7921,6.7921,6.8311,0.0,0.0,0.0,0.0,0.0,0.0,0.0,0.0,0.0,0.0,0.0,0.0,0.0,0.0,0.0,0.0,0.0,0.0,0.0,0.0,0.0,0.0,0.0,0.0,0.0,0.0,0.0,0.0,0.0,0.0,0.0,0.0,0.0,0.0,0.0,0.0,0.0,0.0,0.0,0.0,0.0,0.0,0.0,0.0,0.0,0.0,0.0,0.0,0.0,0.0,0.0,0.0,0.0,0.0,0.0,0.0,0.0,0.0,0.0,0.0,0.0,0.0,0.0,0.0,0.0,0.0,0.0,0.0,0.0,0.0,0.0,0.0,0.0,0.0,0.0,0.0,0.0,0.0,0.0,0.0,0.0,0.0,0.0,0.0,0.0,0.0,0.0,0.0,0.0,0.0,0.0,0.0,0.0,0.0,0.0,0.0,0.0,0.0,0.0,0.0,0.0,0.0,0.0,0.0,0.0,0.0,0.0,0.0,0.0,0.0,0.0,0.0,6.8031,6.7994,6.8568,0.0,0.0,0.0,0.0,0.0,0.0,0.0,0.0,0.0,0.0,0.0,0.0,0.0,0.0,0.0,0.0,0.0,0.0,0.0,0.0,0.0,0.0,0.0,0.0,0.0,0.0,0.0,0.0,0.0,0.0,0.0,0.0,0.0,0.0,0.0,0.0,0.0,0.0,0.0,0.0,0.0,0.0,0.0,0.0,0.0,0.0,0.0,0.0,0.0,0.0,0.0,0.0,0.0,0.0,0.0,0.0,0.0,0.0,0.0,0.0,0.0,0.0,0.0,0.0,0.0,0.0,0.0,0.0,0.0,0.0,0.0,0.0,0.0,0.0,0.0,0.0,0.0,0.0,0.0,0.0,0.0,0.0,0.0,0.0,0.0,0.0,0.0,0.0,0.0,0.0,0.0,0.0,0.0,0.0,0.0,0.0,0.0,0.0,0.0,0.0,0.0,0.0,0.0,0.0,0.0,0.0,0.0,0.0,0.0,0.0,6.7737,6.7811,6.7737,0.0,6.7774,0.0,0.0,0.0,0.0,0.0,0.0,0.0,0.0,0.0,0.0,0.0,0.0,0.0,0.0,0.0,0.0,0.0,0.0,0.0,0.0,0.0,0.0,0.0,0.0,0.0,0.0,0.0,0.0,0.0,0.0,0.0,0.0,0.0,0.0,0.0,0.0,0.0,0.0,0.0,0.0,0.0,0.0,0.0,0.0,0.0,0.0,0.0,0.0,0.0,0.0,0.0,0.0,0.0,0.0,0.0,0.0,0.0,0.0,0.0,0.0,0.0,0.0,0.0,0.0,0.0,0.0,0.0,0.0,0.0,0.0,0.0,0.0,0.0,0.0,0.0,0.0,0.0,0.0,0.0,0.0,0.0,0.0,0.0,0.0,0.0,0.0,0.0,0.0,0.0,0.0,0.0,0.0,0.0,0.0,0.0,0.0,0.0,0.0,0.0,0.0,0.0,0.0,0.0,0.0,0.0,0.0,0.0,0.0,0.0,0.0,6.6953,6.8385,6.8421,6.8164,0.0,0.0,0.0,0.0,0.0,0.0,0.0,0.0,0.0,0.0,0.0,0.0,0.0,0.0,0.0,0.0,0.0,0.0,0.0,0.0,0.0,0.0,0.0,0.0,0.0,0.0,0.0,0.0,0.0,0.0,0.0,0.0,0.0,0.0,0.0,0.0,0.0,0.0,0.0,0.0,0.0,0.0,0.0,0.0,0.0,0.0,0.0,0.0,0.0,0.0,0.0,0.0,0.0,0.0,0.0,0.0,0.0,0.0,0.0,0.0,0.0,0.0,0.0,0.0,0.0,0.0,0.0,0.0,0.0,0.0,0.0,0.0,0.0,0.0,0.0,0.0,0.0,0.0,0.0,0.0,0.0,0.0,0.0,0.0,0.0,0.0,0.0,0.0,0.0,0.0,0.0,0.0,0.0,0.0,0.0,0.0,0.0,0.0,0.0,0.0,0.0,0.0,0.0,0.0,0.0,0.0,0.0,0.0,0.0,0.0,6.6219,6.6463,6.8128,6.8004,6.7724,6.7357,0.0,0.0,0.0,0.0,0.0,0.0,0.0,0.0,0.0,0.0,0.0,0.0,0.0,0.0,0.0,0.0,0.0,0.0,0.0,0.0,0.0,0.0,0.0,0.0,0.0,0.0,0.0,0.0,0.0,0.0,0.0,0.0,0.0,0.0,0.0,0.0,0.0,0.0,0.0,0.0,0.0,0.0,0.0,0.0,0.0,0.0,0.0,0.0,0.0,0.0,0.0,0.0,0.0,0.0,0.0,0.0,0.0,0.0,0.0,0.0,0.0,0.0,0.0,0.0,0.0,0.0,0.0,0.0,0.0,0.0,0.0,0.0,0.0,0.0,0.0,0.0,0.0,0.0,0.0,0.0,0.0,0.0,0.0,0.0,0.0,0.0,0.0,0.0,0.0,0.0,0.0,0.0,0.0,0.0,0.0,0.0,0.0,0.0,0.0,0.0,0.0,0.0,0.0,0.0,0.0,0.0,0.0,0.0,6.6512,6.6439,6.6476,6.6549,6.5852,6.5815,0.0,0.0,0.0,0.0,0.0,0.0,0.0,0.0,0.0,0.0,0.0,0.0,0.0,0.0,0.0,0.0,0.0,0.0,0.0,0.0,0.0,0.0,0.0,0.0,0.0,0.0,0.0,0.0,0.0,0.0,0.0,0.0,0.0,0.0,0.0,0.0,0.0,0.0,0.0,0.0,0.0,0.0,0.0,0.0,0.0,0.0,0.0,0.0,0.0,0.0,0.0,0.0,0.0,0.0,0.0,0.0,0.0,0.0,0.0,0.0,0.0,0.0,0.0,0.0,0.0,0.0,0.0,0.0,0.0,0.0,0.0,0.0,0.0,0.0,0.0,0.0,0.0,0.0,0.0,0.0,0.0,0.0,0.0,0.0,0.0,0.0,0.0,0.0,0.0,0.0,0.0,0.0,0.0,0.0,0.0,0.0,0.0,0.0,0.0,0.0,0.0,0.0,0.0,0.0,0.0,0.0,0.0,0.0,0.0,6.4984,6.442,6.415,6.415,6.4383,6.4897,0.0,0.0,0.0,0.0,0.0,0.0,0.0,0.0,0.0,0.0,0.0,0.0,0.0,0.0,0.0,0.0,0.0,0.0,0.0,0.0,0.0,0.0,0.0,0.0,0.0,0.0,0.0,0.0,0.0,0.0,0.0,0.0,0.0,0.0,0.0,0.0,0.0,0.0,0.0,0.0,0.0,0.0,0.0,0.0,0.0,0.0,0.0,0.0,0.0,0.0,0.0,0.0,0.0,0.0,0.0,0.0,0.0,0.0,0.0,0.0,0.0,0.0,0.0,0.0,0.0,0.0,0.0,0.0,0.0,0.0,0.0,0.0,0.0,0.0,0.0,0.0,0.0,0.0,0.0,0.0,0.0,0.0,0.0,0.0,0.0,0.0,0.0,0.0,0.0,0.0,0.0,0.0,0.0,0.0,0.0,0.0,0.0,0.0,0.0,0.0,0.0,0.0,0.0,0.0,0.0,0.0,0.0,0.0,0.0,6.3686,0.0,6.2536,0.0,6.3356,6.3833,0.0,0.0,0.0,0.0,0.0,0.0,0.0,0.0,0.0,0.0,0.0,0.0,0.0,0.0,0.0,0.0,0.0,0.0,0.0,0.0,0.0,0.0,0.0,0.0,0.0,0.0,0.0,0.0,0.0,0.0,0.0,0.0,0.0,0.0,0.0,0.0,0.0,0.0,0.0,0.0,0.0,0.0,0.0,0.0,0.0,0.0,0.0,0.0,0.0,0.0,0.0,0.0,0.0,0.0,0.0,0.0,0.0,0.0,0.0,0.0,0.0,0.0,0.0,0.0,0.0,0.0,0.0,0.0,0.0,0.0,0.0,0.0,0.0,0.0,0.0,0.0,0.0,0.0,0.0,0.0,0.0,0.0,0.0,0.0,0.0,0.0,0.0,0.0,0.0,0.0,0.0,0.0,0.0,0.0,0.0,0.0,0.0,0.0,0.0,0.0,0.0,0.0,0.0,0.0,0.0,0.0,0.0,0.0,6.3613,6.2793,6.1998,6.1961,6.2756,6.2756,6.2389,0.0,0.0,0.0,0.0,0.0,0.0,0.0,0.0,0.0,0.0,0.0,0.0,0.0,0.0,0.0,0.0,0.0,0.0,0.0,0.0,0.0,0.0,0.0,0.0,0.0,0.0,0.0,0.0,0.0,0.0,0.0,0.0,0.0,0.0,0.0,0.0,0.0,0.0,0.0,0.0,0.0,0.0,0.0,0.0,0.0,0.0,0.0,0.0,0.0,0.0,0.0,0.0,0.0,0.0,0.0,0.0,0.0,0.0,0.0,0.0,0.0,0.0,0.0,0.0,0.0,0.0,0.0,0.0,0.0,0.0,0.0,0.0,0.0,0.0,0.0,0.0,0.0,0.0,0.0,0.0,0.0,0.0,0.0,0.0,0.0,0.0,0.0,0.0,0.0,0.0,0.0,0.0,0.0,0.0,0.0,0.0,0.0,0.0,0.0,0.0,0.0,0.0,0.0,0.0,0.0,0.0,0.0,0.0,0.0,6.1961,6.119,6.1153,6.1924,6.1435,6.13,0.0,0.0,0.0,0.0,0.0,0.0,0.0,0.0,0.0,0.0,0.0,0.0,0.0,0.0,0.0,0.0,0.0,0.0,0.0,0.0,0.0,0.0,0.0,0.0,0.0,0.0,0.0,0.0,0.0,0.0,0.0,0.0,0.0,0.0,0.0,0.0,0.0,0.0,0.0,0.0,0.0,0.0,0.0,0.0,0.0,0.0,0.0,0.0,0.0,0.0,0.0,0.0,0.0,0.0,0.0,0.0,0.0,0.0,0.0,0.0,0.0,0.0,0.0,0.0,0.0,0.0,0.0,0.0,0.0,0.0,0.0,0.0,0.0,0.0,0.0,0.0,0.0,0.0,0.0,0.0,0.0,0.0,0.0,0.0,0.0,0.0,0.0,0.0,0.0,0.0,0.0,0.0,0.0,0.0,0.0,0.0,0.0,0.0,0.0,0.0,0.0,0.0,0.0,0.0,0.0,0.0,0.0,0.0,0.0,6.3442,6.3246,6.3356,6.3846,6.3356,6.2475,6.1227,0.0,0.0,0.0,0.0,0.0,0.0,0.0,0.0,0.0,0.0,0.0,0.0,0.0,0.0,0.0,0.0,0.0,0.0,0.0,0.0,0.0,0.0,0.0,0.0,0.0,0.0,0.0,0.0,0.0,0.0,0.0,0.0,0.0,0.0,0.0,0.0,0.0,0.0,0.0,0.0,0.0,0.0,0.0,0.0,0.0,0.0,0.0,0.0,0.0,0.0,0.0,0.0,0.0,0.0,0.0,0.0,0.0,0.0,0.0,0.0,0.0,0.0,0.0,0.0,0.0,0.0,0.0,0.0,0.0,0.0,0.0,0.0,0.0,0.0,0.0,0.0,0.0,0.0,0.0,0.0,0.0,0.0,0.0,0.0,0.0,0.0,0.0,0.0,0.0,0.0,0.0,0.0,0.0,0.0,0.0,0.0,0.0,0.0,0.0,0.0,0.0,0.0,0.0,0.0,0.0,0.0,0.0,0.0,6.6843,6.7884,6.8361,6.8104,6.7811,6.5534,0.0,0.0,0.0,0.0,0.0,0.0,0.0,0.0,0.0,0.0,0.0,0.0,0.0,0.0,0.0,0.0,0.0,0.0,0.0,0.0,0.0,0.0,0.0,0.0,0.0,0.0,0.0,0.0,0.0,0.0,0.0,0.0,0.0,0.0,0.0,0.0,0.0,0.0,0.0,0.0,0.0,0.0,0.0,0.0,0.0,0.0,0.0,0.0,0.0,0.0,0.0,0.0,0.0,0.0,0.0,0.0,0.0,0.0,0.0,0.0,0.0,0.0,0.0,0.0,0.0,0.0,0.0,0.0,0.0,0.0,0.0,0.0,0.0,0.0,0.0,0.0,0.0,0.0,0.0,0.0,0.0,0.0,0.0,0.0,0.0,0.0,0.0,0.0,0.0,0.0,0.0,0.0,0.0,0.0,0.0,0.0,0.0,0.0,0.0,0.0,0.0,0.0,0.0,0.0,0.0,0.0,0.0,0.0,0.0,7.0991,7.5249,7.6093,7.3083,6.9573,6.7113,0.0,0.0,0.0,0.0,0.0,0.0,0.0,0.0,0.0,0.0,0.0,0.0,0.0,0.0,0.0,0.0,0.0,0.0,0.0,0.0,0.0,0.0,0.0,0.0,0.0,0.0,0.0,0.0,0.0,0.0,0.0,0.0,0.0,0.0,0.0,0.0,0.0,0.0,0.0,0.0,0.0,0.0,0.0,0.0,0.0,0.0,0.0,0.0,0.0,0.0,0.0,0.0,0.0,0.0,0.0,0.0,0.0,0.0,0.0,0.0,0.0,0.0,0.0,0.0,0.0,0.0,0.0,0.0,0.0,0.0,0.0,0.0,0.0,0.0,0.0,0.0,0.0,0.0,0.0,0.0,0.0,0.0,0.0,0.0,0.0,0.0,0.0,0.0,0.0,0.0,0.0,0.0,0.0,0.0,0.0,0.0,0.0,0.0,0.0,0.0,0.0,0.0,0.0,0.0,0.0,0.0,0.0,0.0,7.1615,7.2569,7.9727,8.239,8.0041,7.3964,6.9926,0.0,0.0,0.0,0.0,0.0,0.0,0.0,0.0,0.0,0.0,0.0,0.0,0.0,0.0,0.0,0.0,0.0,0.0,0.0,0.0,0.0,0.0,0.0,0.0,0.0,0.0,0.0,0.0,0.0,0.0,0.0,0.0,0.0,0.0,0.0,0.0,0.0,0.0,0.0,0.0,0.0,0.0,0.0,0.0,0.0,0.0,0.0,0.0,0.0,0.0,0.0,0.0,0.0,0.0,0.0,0.0,0.0,0.0,0.0,0.0,0.0,0.0,0.0,0.0,0.0,0.0,0.0,0.0,0.0,0.0,0.0,0.0,0.0,0.0,0.0,0.0,0.0,0.0,0.0,0.0,0.0,0.0,0.0,0.0,0.0,0.0,0.0,0.0,0.0,0.0,0.0,0.0,0.0,0.0,0.0,0.0,0.0,0.0,0.0,0.0,0.0,0.0,0.0,0.0,0.0,0.0,0.0,0.0,7.5028,7.3413,8.2243,8.6978,8.6757,7.9161,7.3215,0.0,0.0,0.0,0.0,0.0,0.0,0.0,0.0,0.0,0.0,0.0,0.0,0.0,0.0,0.0,0.0,0.0,0.0,0.0,0.0,0.0,0.0,0.0,0.0,0.0,0.0,0.0,0.0,0.0,0.0,0.0,0.0,0.0,0.0,0.0,0.0,0.0,0.0,0.0,0.0,0.0,0.0,0.0,0.0,0.0,0.0,0.0,0.0,0.0,0.0,0.0,0.0,0.0,0.0,0.0,0.0,0.0,0.0,0.0,0.0,0.0,0.0,0.0,0.0,0.0,0.0,0.0,0.0,0.0,0.0,0.0,0.0,0.0,0.0,0.0,0.0,0.0,0.0,0.0,0.0,0.0,0.0,0.0,0.0,0.0,0.0,0.0,0.0,0.0,0.0,0.0,0.0,0.0,0.0,0.0,0.0,0.0,0.0,0.0,0.0,0.0,0.0,0.0,0.0,0.0,0.0,0.0,0.0,7.5521,7.8311,8.3985,8.7014,8.6978,7.9124,7.45,0.0,0.0,0.0,0.0,0.0,0.0,0.0,0.0,0.0,0.0,0.0,0.0,0.0,0.0,0.0,0.0,0.0,0.0,0.0,0.0,0.0,0.0,0.0,0.0,0.0,0.0,0.0,0.0,0.0,0.0,0.0,0.0,0.0,0.0,0.0,0.0,0.0,0.0,0.0,0.0,0.0,0.0,0.0,0.0,0.0,0.0,0.0,0.0,8.8565,0.0,0.0,0.0,0.0,0.0,0.0,0.0,0.0,0.0,0.0,0.0,0.0,0.0,0.0,0.0,0.0,0.0,0.0,0.0,0.0,0.0,0.0,0.0,0.0,0.0,0.0,0.0,0.0,0.0,0.0,0.0,0.0,0.0,0.0,0.0,0.0,0.0,0.0,0.0,0.0,0.0,0.0,0.0,0.0,0.0,0.0,0.0,0.0,0.0,0.0,0.0,0.0,0.0,0.0,0.0,0.0,0.0,0.0,0.0,7.5704,7.9743,8.4535,8.7014,8.6794,8.0995,7.6848,0.0,0.0,0.0,0.0,0.0,0.0,0.0,0.0,0.0,0.0,0.0,0.0,0.0,0.0,0.0,0.0,0.0,0.0,0.0,0.0,0.0,0.0,0.0,0.0,0.0,0.0,0.0,0.0,0.0,0.0,0.0,0.0,0.0,0.0,0.0,0.0,0.0,0.0,0.0,0.0,0.0,0.0,0.0,0.0,0.0,0.0,0.0,0.0,0.0,0.0,0.0,0.0,0.0,0.0,0.0,0.0,0.0,0.0,0.0,0.0,0.0,0.0,0.0,0.0,0.0,0.0,0.0,0.0,0.0,0.0,0.0,0.0,0.0,0.0,0.0,0.0,0.0,0.0,0.0,0.0,0.0,0.0,0.0,0.0,0.0,0.0,0.0,0.0,0.0,0.0,0.0,0.0,0.0,0.0,0.0,0.0,0.0,0.0,0.0,0.0,0.0,0.0,0.0,0.0,0.0,0.0,0.0,7.0697,7.5924,8.0807,8.4903,8.7014,8.6941,8.3202,7.9206,7.5176,0.0,0.0,0.0,0.0,0.0,0.0,0.0,0.0,0.0,0.0,0.0,0.0,0.0,0.0,0.0,0.0,0.0,0.0,0.0,0.0,0.0,0.0,0.0,0.0,0.0,0.0,0.0,0.0,0.0,0.0,0.0,0.0,0.0,0.0,0.0,0.0,0.0,0.0,8.4255,8.5593,0.0,0.0,0.0,0.0,0.0,0.0,0.0,0.0,8.7645,0.0,0.0,0.0,0.0,0.0,0.0,0.0,0.0,0.0,0.0,0.0,0.0,0.0,0.0,0.0,0.0,0.0,0.0,0.0,0.0,0.0,0.0,0.0,0.0,0.0,0.0,0.0,0.0,0.0,0.0,0.0,0.0,0.0,0.0,0.0,0.0,0.0,0.0,0.0,0.0,0.0,0.0,0.0,0.0,0.0,0.0,0.0,0.0,0.0,0.0,0.0,0.0,0.0,0.0,0.0,0.0,6.9986,7.1835,7.6974,8.5563,8.6591,8.7014,8.6885,8.3471,7.9702,7.573,0.0,0.0,0.0,0.0,0.0,0.0,0.0,0.0,0.0,0.0,0.0,0.0,0.0,0.0,0.0,0.0,0.0,0.0,0.0,0.0,0.0,0.0,0.0,0.0,0.0,0.0,0.0,0.0,0.0,0.0,0.0,0.0,0.0,0.0,0.0,0.0,0.0,0.0,0.0,8.7902,8.8094,0.0,0.0,0.0,0.0,0.0,0.0,0.0,0.0,8.8602,0.0,0.0,0.0,0.0,0.0,0.0,0.0,0.0,0.0,0.0,0.0,0.0,0.0,0.0,0.0,0.0,0.0,0.0,0.0,0.0,0.0,0.0,0.0,0.0,0.0,0.0,0.0,0.0,0.0,0.0,0.0,0.0,0.0,0.0,0.0,0.0,0.0,0.0,0.0,0.0,0.0,0.0,0.0,0.0,0.0,0.0,0.0,0.0,0.0,0.0,0.0,0.0,0.0,0.0,0.0,7.1087,7.4588,7.9764,8.6684,8.7014,8.7316,8.7898,8.3904,8.0036,0.0,0.0,0.0,0.0,0.0,0.0,0.0,0.0,0.0,0.0,0.0,0.0,0.0,0.0,0.0,0.0,0.0,0.0,0.0,0.0,0.0,0.0,0.0,0.0,0.0,0.0,0.0,0.0,0.0,0.0,0.0,0.0,0.0,0.0,0.0,0.0,0.0,0.0,0.0,0.0,8.8632,8.9787,9.2749,0.0,0.0,0.0,0.0,0.0,0.0,8.9687,8.8761,0.0,0.0,0.0,0.0,0.0,0.0,0.0,0.0,0.0,0.0,0.0,0.0,0.0,0.0,0.0,0.0,0.0,0.0,0.0,0.0,0.0,0.0,0.0,0.0,0.0,0.0,0.0,0.0,0.0,0.0,0.0,0.0,0.0,0.0,0.0,0.0,0.0,0.0,0.0,0.0,0.0,0.0,0.0,0.0,0.0,0.0,0.0,0.0,0.0,0.0,0.0,0.0,0.0,0.0,0.0,7.1578,7.7164,8.235,8.6909,8.7415,8.8051,8.9008,8.3876,7.9791,0.0,0.0,0.0,0.0,0.0,0.0,0.0,0.0,0.0,0.0,0.0,0.0,0.0,0.0,0.0,0.0,0.0,0.0,0.0,0.0,0.0,0.0,0.0,0.0,0.0,0.0,0.0,0.0,0.0,0.0,0.0,0.0,0.0,0.0,0.0,0.0,0.0,0.0,0.0,0.0,0.0,9.1325,9.4527,9.2826,0.0,0.0,0.0,0.0,9.021,9.0671,0.0,0.0,0.0,0.0,0.0,0.0,0.0,0.0,0.0,0.0,0.0,0.0,0.0,0.0,0.0,0.0,0.0,0.0,0.0,0.0,0.0,0.0,0.0,0.0,0.0,0.0,0.0,0.0,0.0,0.0,0.0,0.0,0.0,0.0,0.0,0.0,0.0,0.0,0.0,0.0,0.0,0.0,0.0,0.0,0.0,0.0,0.0,0.0,0.0,0.0,0.0,0.0,0.0,0.0,0.0,0.0,7.2406,7.8077,8.3192,8.7396,8.8751,8.9473,8.9496,8.2573,7.8241,0.0,0.0,0.0,0.0,0.0,0.0,0.0,0.0,0.0,0.0,0.0,0.0,0.0,0.0,0.0,0.0,0.0,0.0,0.0,0.0,0.0,0.0,0.0,0.0,0.0,0.0,0.0,0.0,0.0,0.0,0.0,0.0,0.0,0.0,0.0,0.0,0.0,0.0,0.0,0.0,0.0,9.2018,9.4643,9.2826,9.1171,0.0,0.0,9.5365,9.4412,9.7403,0.0,0.0,0.0,0.0,0.0,0.0,0.0,0.0,0.0,0.0,0.0,0.0,0.0,0.0,0.0,0.0,0.0,0.0,0.0,0.0,0.0,0.0,0.0,0.0,0.0,0.0,0.0,0.0,0.0,0.0,0.0,0.0,0.0,0.0,0.0,0.0,0.0,0.0,0.0,0.0,0.0,0.0,0.0,0.0,0.0,0.0,0.0,0.0,0.0,0.0,0.0,0.0,0.0,0.0,0.0,7.1168,7.3511,8.1703,8.692,8.8784,8.9982,9.0953,9.1658,8.3165,7.8529,0.0,0.0,0.0,0.0,0.0,0.0,0.0,0.0,0.0,0.0,0.0,0.0,0.0,0.0,0.0,0.0,0.0,0.0,0.0,0.0,0.0,0.0,0.0,0.0,0.0,0.0,0.0,0.0,0.0,0.0,0.0,0.0,0.0,0.0,0.0,0.0,0.0,0.0,0.0,0.0,0.0,0.0,9.5711,9.4788,0.0,0.0,0.0,9.6019,9.3249,0.0,0.0,0.0,0.0,0.0,0.0,0.0,0.0,0.0,0.0,0.0,0.0,0.0,0.0,0.0,0.0,0.0,0.0,0.0,0.0,0.0,0.0,0.0,0.0,0.0,0.0,0.0,0.0,0.0,0.0,0.0,0.0,0.0,0.0,0.0,0.0,0.0,0.0,0.0,0.0,0.0,0.0,0.0,0.0,0.0,0.0,0.0,0.0,0.0,0.0,0.0,0.0,0.0,0.0,0.0,0.0,0.0,7.4495,8.4751,9.0207,9.0381,9.149,9.2591,9.3618,8.5545,0.0,0.0,0.0,0.0,0.0,0.0,0.0,0.0,0.0,0.0,0.0,0.0,0.0,0.0,0.0,0.0,0.0,0.0,0.0,0.0,0.0,0.0,0.0,0.0,0.0,0.0,0.0,7.043,0.0,0.0,0.0,0.0,0.0,0.0,0.0,0.0,0.0,0.0,0.0,0.0,0.0,0.0,9.7173,9.6134,9.598,9.6288,0.0,0.0,9.6788,9.4711,9.9327,10.0702,0.0,0.0,0.0,0.0,0.0,0.0,0.0,0.0,0.0,0.0,0.0,0.0,0.0,0.0,0.0,0.0,0.0,0.0,0.0,0.0,0.0,0.0,0.0,0.0,0.0,0.0,0.0,0.0,0.0,0.0,0.0,0.0,0.0,0.0,0.0,0.0,0.0,0.0,0.0,0.0,0.0,0.0,0.0,0.0,0.0,0.0,0.0,0.0,0.0,0.0,0.0,0.0,0.0,0.0,0.0,7.5711,8.5952,9.1625,9.2149,9.3431,9.4539,9.5336,9.0403,8.5032,0.0,0.0,0.0,0.0,0.0,0.0,0.0,0.0,0.0,0.0,0.0,0.0,0.0,0.0,0.0,0.0,0.0,0.0,0.0,0.0,0.0,0.0,0.0,0.0,0.0,0.0,0.0,0.0,0.0,0.0,0.0,0.0,0.0,0.0,0.0,0.0,0.0,0.0,0.0,0.0,0.0,9.4335,9.4989,9.5095,9.7048,0.0,0.0,9.875,10.2443,10.5944,10.529,9.6182,0.0,0.0,0.0,0.0,0.0,0.0,0.0,0.0,0.0,0.0,0.0,0.0,0.0,0.0,0.0,0.0,0.0,0.0,0.0,0.0,0.0,0.0,0.0,0.0,0.0,0.0,0.0,0.0,0.0,0.0,0.0,0.0,0.0,0.0,0.0,0.0,0.0,0.0,0.0,0.0,0.0,0.0,0.0,0.0,0.0,0.0,0.0,0.0,0.0,0.0,0.0,0.0,0.0,7.5341,7.6503,8.8013,9.4128,9.4411,9.5954,9.6974,9.7319,9.2642,8.7051,0.0,0.0,0.0,0.0,0.0,0.0,0.0,0.0,0.0,0.0,0.0,0.0,0.0,0.0,0.0,0.0,0.0,0.0,0.0,0.0,0.0,0.0,0.0,0.0,0.0,0.0,0.0,0.0,8.1516,8.1939,8.1862,0.0,0.0,0.0,0.0,0.0,0.0,0.0,0.0,0.0,0.0,9.8134,9.9481,10.0135,0.0,0.0,10.2914,10.1827,10.0904,10.3135,10.2212,9.398,9.1787,0.0,0.0,0.0,0.0,0.0,0.0,0.0,0.0,0.0,0.0,0.0,0.0,0.0,0.0,0.0,0.0,0.0,0.0,0.0,0.0,0.0,0.0,0.0,0.0,0.0,0.0,0.0,0.0,0.0,0.0,0.0,0.0,0.0,0.0,0.0,0.0,0.0,0.0,0.0,0.0,0.0,0.0,0.0,0.0,0.0,0.0,0.0,0.0,0.0,0.0,0.0,0.0,7.615,7.7428,8.9716,9.6336,9.6936,9.8232,9.9033,9.9148,9.5752,9.0902,0.0,0.0,0.0,0.0,0.0,0.0,0.0,0.0,0.0,0.0,0.0,0.0,0.0,0.0,0.0,0.0,0.0,0.0,0.0,0.0,0.0,0.0,0.0,0.0,0.0,0.0,0.0,0.0,8.3324,8.3401,8.2401,0.0,0.0,0.0,0.0,0.0,0.0,0.0,0.0,0.0,0.0,10.0519,10.0712,10.125,10.1712,10.1943,10.1173,10.0019,9.8634,9.9481,9.8596,9.3557,0.0,0.0,0.0,0.0,0.0,0.0,0.0,0.0,0.0,0.0,0.0,0.0,0.0,0.0,0.0,0.0,0.0,0.0,0.0,0.0,0.0,0.0,0.0,0.0,0.0,0.0,0.0,6.0407,0.0,0.0,5.9258,0.0,0.0,0.0,0.0,0.0,0.0,0.0,0.0,0.0,0.0,0.0,0.0,0.0,0.0,0.0,0.0,0.0,0.0,0.0,0.0,0.0,0.0,7.7382,7.8623,9.0857,9.8122,9.9923,10.0058,10.0471,10.1192,10.0366,9.7451,9.2172,0.0,0.0,0.0,0.0,0.0,0.0,0.0,0.0,0.0,0.0,0.0,0.0,0.0,0.0,0.0,0.0,0.0,0.0,0.0,0.0,0.0,0.0,0.0,0.0,0.0,0.0,7.5668,7.8738,8.1516,0.0,0.0,0.0,0.0,0.0,0.0,0.0,0.0,0.0,0.0,9.5403,10.001,9.6942,9.648,9.698,9.7788,9.3749,9.2086,9.6903,9.624,9.5355,0.0,0.0,0.0,0.0,0.0,0.0,0.0,0.0,0.0,0.0,0.0,0.0,0.0,0.0,0.0,0.0,0.0,0.0,0.0,0.0,0.0,0.0,0.0,0.0,0.0,0.0,0.0,6.6843,6.6806,0.0,0.0,0.0,0.0,0.0,0.0,0.0,0.0,0.0,0.0,0.0,7.4052,7.3088,0.0,0.0,0.0,0.0,0.0,0.0,0.0,0.0,0.0,0.0,0.0,0.0,7.8185,8.0708,9.3224,10.0528,10.1712,10.2337,10.276,10.302,10.2789,9.9173,9.1864,0.0,0.0,0.0,0.0,0.0,0.0,0.0,0.0,0.0,0.0,0.0,0.0,0.0,0.0,0.0,0.0,0.0,0.0,0.0,0.0,0.0,0.0,0.0,0.0,0.0,7.9438,0.0,0.0,0.0,0.0,0.0,0.0,0.0,0.0,0.0,0.0,0.0,8.6671,9.0325,9.1518,9.2864,9.5095,9.5942,9.775,0.0,0.0,0.0,0.0,0.0,0.0,0.0,0.0,0.0,0.0,0.0,0.0,0.0,0.0,9.6134,9.0517,9.2672,9.5403,9.5412,0.0,0.0,0.0,0.0,0.0,0.0,0.0,0.0,0.0,0.0,0.0,0.0,0.0,0.0,7.3046,0.0,7.2496,0.0,0.0,0.0,0.0,0.0,0.0,0.0,0.0,7.5977,7.9142,8.248,8.1752,8.1512,0.0,8.0285,7.5205,0.0,0.0,0.0,0.0,0.0,0.0,0.0,0.0,7.9246,8.1977,9.4864,10.2327,10.3443,10.402,10.4328,10.4289,10.4289,10.1597,9.5788,8.9863,8.3747,0.0,0.0,0.0,0.0,0.0,0.0,0.0,0.0,0.0,0.0,0.0,0.0,0.0,0.0,0.0,0.0,0.0,0.0,0.0,0.0,0.0,0.0,0.0,8.0285,0.0,0.0,0.0,0.0,0.0,0.0,0.0,0.0,0.0,8.3901,8.6094,8.8863,9.2441,9.2787,9.2749,9.2796,0.0,0.0,0.0,0.0,0.0,0.0,0.0,9.1633,9.0364,9.168,9.4335,9.8788,10.2212,10.4174,10.3558,0.0,0.0,9.6673,9.8288,10.0866,10.0558,10.2097,10.302,10.1587,10.1279,10.0981,0.0,0.0,0.0,0.0,0.0,0.0,0.0,0.0,8.2076,7.8993,0.0,7.8919,0.0,0.0,0.0,0.0,7.0886,7.6667,0.0,0.0,9.1726,9.4739,9.0378,9.0249,9.0484,9.0595,8.5507,8.3307,8.3618,8.0599,0.0,0.0,0.0,0.0,0.0,0.0,8.0785,8.3208,9.598,10.3482,10.5069,10.5136,10.5146,10.5136,10.5136,10.4713,10.3712,9.825,9.4749,9.3441,8.1239,0.0,0.0,0.0,0.0,0.0,0.0,0.0,0.0,0.0,0.0,0.0,0.0,0.0,0.0,0.0,0.0,0.0,0.0,0.0,0.0,8.0477,0.0,0.0,0.0,0.0,0.0,0.0,0.0,0.0,0.0,0.0,8.2824,8.8055,9.2527,9.3249,0.0,0.0,0.0,0.0,9.3287,8.5756,8.4294,8.4901,8.6094,9.0671,9.5528,9.949,0.0,0.0,11.2329,11.0175,10.7867,10.6069,11.0521,11.1868,10.4636,10.352,10.3328,10.252,10.3328,10.2981,10.2241,10.301,10.2635,8.5589,0.0,0.0,0.0,0.0,8.1636,8.4462,8.8683,8.8353,8.7142,8.549,8.65,0.0,0.0,0.0,0.0,0.0,0.0,8.26,8.8136,9.1438,9.4606,9.767,9.8032,9.8357,9.8578,9.7413,9.7331,9.8249,9.6918,8.7693,7.1199,0.0,0.0,0.0,0.0,8.4209,9.1411,9.9981,10.4905,10.602,10.602,10.6059,10.602,10.602,10.5636,10.4789,10.3097,9.9558,9.3941,9.0017,0.0,0.0,0.0,0.0,0.0,0.0,0.0,0.0,0.0,0.0,0.0,0.0,0.0,0.0,0.0,0.0,0.0,0.0,0.0,8.1093,8.4132,8.3824,0.0,0.0,0.0,0.0,0.0,0.0,0.0,0.0,0.0,8.7855,8.6748,8.6679,0.0,0.0,8.467,8.2631,8.8248,9.3287,9.5104,9.6365,0.0,10.3202,10.2712,10.226,10.3491,10.9339,11.3791,11.3676,11.633,11.8177,11.6984,11.8265,11.8446,11.5984,11.4753,11.4214,11.406,11.4214,11.4291,11.406,11.3522,11.2972,9.6027,9.1661,8.737,8.6664,8.8426,8.8793,9.1657,9.6098,9.5621,9.4006,9.173,9.3125,8.9491,8.2166,8.1944,0.0,0.0,0.0,8.8861,9.5743,9.6381,9.8959,10.2968,10.367,10.4112,10.438,10.4696,10.5255,10.5992,10.2583,9.4724,8.247,0.0,0.0,7.7823,8.364,8.9872,9.6451,10.2866,10.6405,10.6895,10.6549,10.6395,10.6395,10.6741,10.6521,10.5674,10.5944,10.3866,9.8942,9.6442,9.1248,0.0,0.0,0.0,0.0,0.0,0.0,0.0,0.0,0.0,0.0,0.0,7.7169,7.5207,0.0,0.0,0.0,8.3285,8.3747,8.4101,8.4447,0.0,0.0,0.0,0.0,0.0,0.0,0.0,8.0746,8.744,9.2249,9.1479,8.9479,8.9372,9.271,9.1364,8.9556,8.8055,0.0,9.8942,10.0827,10.2251,10.4366,10.7905,10.8598,10.9406,11.1791,11.5715,11.8523,11.8254,12.11,12.3101,12.2716,12.2601,12.2408,12.1908,12.1408,12.0562,11.9369,11.91,11.91,11.91,11.8908,11.8792,10.54,10.3713,9.314,9.1179,9.5034,9.586,9.8687,10.2742,10.2742,9.9438,9.4299,9.8521,9.43,8.3934,8.4355,0.0,9.3357,9.4091,9.756,10.3224,10.4732,10.5822,10.665,10.7348,10.7875,10.8104,10.8143,10.8315,10.8281,10.1558,9.7853,9.7432,9.5095,9.1287,8.6671,9.1441,9.5681,9.8711,10.4059,10.7136,10.7752,10.7021,10.6587,10.6636,10.7367,10.7405,10.6549,10.729,10.7328,10.6395,10.1241,9.8096,9.7134,0.0,0.0,0.0,0.0,0.0,0.0,0.0,0.0,0.0,0.0,0.0,0.0,0.0,0.0,0.0,8.7555,0.0,8.9526,8.3986,0.0,0.0,0.0,8.5593,9.1825,9.2903,9.2979,9.2441,0.0,0.0,9.4335,9.522,9.8028,10.402,10.602,10.5251,10.0721,10.4828,10.7752,10.4328,10.4866,10.5636,10.7367,11.1368,11.6522,12.1408,12.3832,12.3985,12.387,12.4024,12.4178,12.4024,12.4062,12.4024,12.4062,12.387,12.3139,12.0177,11.9562,11.9485,11.9485,11.9985,12.0523,10.7731,10.6615,10.3859,10.2301,10.1604,10.1788,10.2558,10.3586,10.3623,10.2375,10.054,10.1641,10.0411,9.7614,9.8172,9.9787,10.2232,10.2421,10.3973,10.6477,10.6932,10.7306,10.7737,10.7928,10.8143,10.8384,10.8396,10.8907,10.9666,10.7283,10.3162,9.7711,9.6288,9.2479,8.6401,8.6901,9.0787,9.775,9.9211,10.2751,10.8367,10.8406,10.8329,10.829,10.8521,10.8213,10.7444,10.7598,10.7598,10.7367,10.602,10.2904,9.7673,8.8786,0.0,0.0,0.0,0.0,0.0,0.0,0.0,0.0,0.0,7.4668,7.0815,0.0,7.8176,0.0,8.9056,9.5711,9.722,9.648,0.0,0.0,9.1133,9.0671,9.2364,9.648,9.725,9.2095,9.6596,10.025,10.0442,10.175,10.5146,11.1455,10.5251,9.9942,10.0144,10.6328,11.106,11.1637,11.5522,11.9023,11.8215,12.0139,12.2485,12.5332,12.5909,12.587,12.5216,12.5101,12.4909,12.4255,12.4101,12.4101,12.4139,12.4101,12.3909,12.3062,12.2447,12.1793,12.1177,12.1677,12.2254,10.9021,10.8064,10.7388,10.6266,10.5018,10.4981,10.5018,10.4981,10.4614,10.4338,10.4162,10.4067,10.4096,10.4207,10.4554,10.529,10.6344,10.6358,10.6928,10.7875,10.8269,10.8602,10.8889,10.9234,10.9557,10.9825,10.9825,11.0161,11.0714,10.9906,10.7328,10.3174,10.2327,9.8519,9.1864,8.7555,8.8132,9.3527,9.6557,10.1789,10.9136,10.9098,10.7136,10.3482,10.3635,10.1635,9.7134,9.7326,9.7365,9.7019,9.7673,9.6403,9.2518,8.5555,7.99,0.0,0.0,0.0,0.0,0.0,0.0,0.0,0.0,0.0,0.0,0.0,8.287,8.4016,9.2941,9.8134,9.6826,9.6788,9.6856,9.7057,9.6673,9.7596,10.0596,10.3856,10.4395,10.0702,10.3982,10.6713,10.7059,10.8213,11.0521,11.4764,11.0252,10.7021,10.8636,11.3291,11.6946,11.8023,12.1447,12.3985,12.3485,12.4139,12.4986,12.5909,12.6447,12.6524,12.6063,12.5986,12.5794,12.537,12.5255,12.5255,12.5255,12.5255,12.5178,12.4716,12.4332,12.3716,12.2908,12.3408,12.4024,10.99,10.8982,10.7477,10.6843,10.6817,10.6686,10.6576,10.6429,10.5694,10.562,10.6081,10.5891,10.6113,10.6655,10.6767,10.729,10.8018,10.8072,10.8206,10.8537,10.9264,10.9782,11.0172,11.0786,11.1323,11.1819,11.1588,11.1549,11.1626,11.0791,10.9829,10.8752,10.7982,10.4174,9.7326,8.9979,8.7055,8.8756,9.5489,10.2183,10.8685,10.7213,10.2789,9.5788,9.5903,9.2364,8.4409,8.4555,8.4555,8.3862,8.5286,8.6594,8.7478,8.1208,7.8246,0.0,7.2052,0.0,0.0,0.0,0.0,0.0,0.0,0.0,0.0,8.7902,9.021,9.3326,9.7673,9.8788,9.5249,9.4249,9.6163,10.1827,10.2587,10.502,11.0665,11.1511,11.1511,11.1511,11.1511,11.178,11.2368,11.3445,11.4302,11.5253,11.6275,11.6924,11.885,12.0592,12.2177,12.2985,12.3559,12.396,12.4172,12.4699,12.5135,12.5343,12.5917,12.6502,12.6517,12.6505,12.6558,12.6626,12.6575,12.6652,12.6678,12.664,12.6421,12.5717,12.5524,12.5101,12.4139,12.4409,12.5216,11.2065,11.0671,10.9716,10.925,10.9008,10.8322,10.7656,10.7027,10.686,10.6786,10.6692,10.6464,10.6746,10.7494,10.8234,10.8959,10.9706,10.9949,11.0194,11.0477,11.063,11.122,11.2099,11.1638,11.2171,11.3368,11.2126,11.1819,11.2472,11.1637,10.7752,10.1096,10.0789,9.698,8.9863,0.0,0.0,0.0,9.6066,10.0529,10.1722,9.5758,9.1796,9.0171,8.9603,0.0,8.5786,8.517,8.4816,8.4709,8.5585,0.0,0.0,0.0,0.0,0.0,0.0,0.0,0.0,0.0,0.0,0.0,8.8009,8.7547,8.8141,8.9094,9.2432,9.8894,10.0519,10.2981,10.7472,10.778,10.8164,10.9357,10.9549,11.0137,11.1434,11.1522,11.1511,11.1511,11.1522,11.1829,11.262,11.3483,11.4372,11.5475,11.7049,11.8459,11.9541,12.0935,12.2328,12.3536,12.3749,12.3848,12.4632,12.4341,12.4391,12.4824,12.5095,12.5456,12.5854,12.5956,12.6184,12.6555,12.6717,12.6703,12.6703,12.6717,12.6599,12.646,12.6383,12.5794,12.3639,12.3793,12.4332,11.2653,11.1111,10.99,10.9498,0.0,10.9225,10.9132,10.9209,10.8094,10.7774,10.7982,10.8686,10.9205,10.9652,11.0606,11.1376,11.1888,11.2029,11.2225,11.2498,11.246,11.2785,11.333,11.2906,11.3176,11.3945,11.3137,11.2945,11.3291,11.2945,11.0521,10.6367,10.629,10.4366,10.0644,10.0226,9.8193,9.4373,9.8222,10.2072,10.5542,10.222,9.8292,9.4217,9.3599,0.0,0.0,0.0,0.0,0.0,0.0,0.0,0.0,9.0249,0.0,9.4326,9.0706,9.0165,9.421,9.4504,9.6266,10.0375,10.0722,9.9041,9.5258,9.798,10.1712,10.5856,10.6318,10.7741,11.1049,11.1511,11.1511,11.1511,11.1511,11.1536,11.1614,11.1644,11.1713,11.1807,11.1834,11.2143,11.2955,11.337,11.4285,11.5626,11.6921,11.8254,11.9657,12.1098,12.2612,12.4186,12.4306,12.4273,12.4706,12.4594,12.4331,12.4788,12.4904,12.5038,12.5299,12.5349,12.5563,12.6274,12.6437,12.6437,12.6416,12.6348,12.6112,12.5731,12.5501,12.4959,12.3332,12.4216,12.5255,11.3014,11.1654,11.0036,10.9785,11.0451,11.0302,11.0757,11.1485,10.9626,0.0,0.0,11.1109,11.1752,11.1859,11.2829,11.3393,11.3589,11.3675,11.3804,11.3984,11.3984,11.3984,11.3984,11.383,11.3945,11.4214,11.3907,11.3945,11.4214,11.406,11.3984,11.3984,11.4049,11.4036,11.3867,11.3419,10.9576,10.2575,10.1065,10.3606,10.9815,10.8981,10.5055,9.8106,9.7802,9.4341,8.738,8.6292,8.6136,8.6802,8.6967,8.8036,9.0007,9.0946,9.2316,9.4246,9.4434,9.7177,10.3302,10.3653,10.5957,11.1538,11.1877,10.943,10.3597,10.773,11.0851,11.1573,11.1612,11.1622,11.1612,11.165,11.1612,11.1612,11.1612,11.1693,11.1841,11.1847,11.1964,11.2158,11.2181,11.2444,11.3033,11.3305,11.3985,11.5548,11.6593,11.7916,11.9733,12.138,12.283,12.4049,12.4242,12.4436,12.459,12.4548,12.466,12.4764,12.482,12.4917,12.5158,12.5104,12.5399,12.6391,12.6181,12.5915,12.6101,12.5589,12.5108,12.4663,12.4264,12.3825,12.3362,12.4627,12.562,11.4405,11.389,11.2284,11.2282,11.3264,11.257,11.2359,11.2459,11.1917,11.1887,11.2214,11.2428,11.2701,11.2982,11.3379,11.3553,11.3613,11.385,11.3951,11.3984,11.3984,11.3984,11.3945,11.3253,11.3676,11.4907,11.3599,11.3676,11.4907,11.4379,11.3984,11.4027,11.42,11.4119,11.3598,11.3499,11.2492,11.0407,10.4041,10.164,10.3307,9.71,9.3203,9.2029,9.1585,9.0119,8.8183,8.7488,8.6868,8.6981,8.7635,9.0984,9.7502,9.8757,10.2184,10.8465,10.9156,10.9698,11.0629,11.074,11.1112,11.1996,11.2151,11.167,11.0833,11.1445,11.1979,11.2096,11.2079,11.2096,11.2096,11.2088,11.2088,11.2088,11.2096,11.2119,11.2127,11.2166,11.2196,11.2217,11.2204,11.2253,11.257,11.312,11.3971,11.5171,11.6412,11.7642,11.9963,12.1671,12.2579,12.3059,12.3175,12.3268,12.3582,12.3526,12.385,12.455,12.4605,12.49,12.5894,12.5562,12.5677,12.7062,12.5603,12.4898,12.5816,12.428,12.3772,12.4259,12.4004,12.3486,12.3254,12.3668,12.3791,11.5706,11.5042,11.3778,11.3767,11.4578,11.4233,11.4177,11.4295,11.4207,11.3702,11.3077,11.3568,11.3941,11.4107,11.4835,11.5183,11.5183,11.5285,11.5368,11.533,11.533,11.5368,11.533,11.4945,11.5176,11.583,11.4714,11.4812,11.5982,11.5308,11.5167,11.5744,11.5927,11.5654,11.5061,11.4635,11.4066,11.3266,10.9738,10.811,10.8422,10.5685,10.4223,10.4177,10.34,10.2791,10.2392,10.1144,10.0675,10.1068,10.1036,10.28,10.6562,10.7223,10.8979,11.2342,11.2614,11.2614,11.2653,11.2531,11.2478,11.2478,11.2478,11.2521,11.261,11.2356,11.2204,11.2204,11.22,11.2172,11.2179,11.2246,11.2252,11.2252,11.2252,11.2296,11.2422,11.2478,11.2521,11.2596,11.2653,11.2827,11.3299,11.3693,11.4536,11.5885,11.7201,11.868,11.992,12.1378,12.2503,12.2999,12.3145,12.3161,12.3279,12.3284,12.3479,12.387,12.387,12.4167,12.483,12.4511,12.4878,12.5692,12.4853,12.4602,12.5333,12.4331,12.3545,12.2764,12.2713,12.2355,12.232,12.2535,12.2688,11.699,11.6391,11.5,11.4843,11.55,11.5757,11.5991,11.6057,11.6057,11.5255,11.4158,11.4793,11.5109,11.5258,11.6097,11.6484,11.6484,11.6484,11.6495,11.6484,11.6484,11.6418,11.6253,11.6226,11.6259,11.6209,11.5642,11.5897,11.6777,11.6311,11.6447,11.7319,11.7416,11.7109,11.6479,11.5896,11.5167,11.439,11.4492,11.4481,11.4312,11.5311,11.5875,11.5844,11.4946,11.452,11.4295,11.2889,11.2381,11.2967,11.2451,11.2367,11.2955,11.3023,11.3019,11.3019,11.3019,11.3019,11.3015,11.2883,11.2758,11.2797,11.2797,11.2832,11.2955,11.2644,11.2375,11.2388,11.2372,11.2378,11.2433,11.245,11.2454,11.2454,11.2454,11.2537,11.2702,11.2758,11.2826,11.2969,11.3019,11.3251,11.3851,11.4204,11.4987,11.6639,11.8417,11.9441,11.9678,12.0935,12.2065,12.2631,12.304,12.3317,12.3352,12.3356,12.3436,12.3548,12.3707,12.3982,12.4057,12.394,12.4057,12.4832,12.4393,12.4226,12.4421,12.3782,12.2977,12.2053,12.1596,12.1169,12.115,12.1549,12.192,11.8286,11.8241,11.6112,11.5604,11.647,11.7441,11.7588,11.7246,11.7259,11.687,11.6101,11.6052,11.6126,11.6324,11.6434,11.6484,11.6484,11.6484,11.6484,11.6484,11.6484,11.611,11.5544,11.5456,11.5492,11.5708,11.5592,11.6097,11.7213,11.7198,11.7299,11.7625,11.7702,11.7452,11.6925,11.6782,11.5933,11.4381,11.5894,11.6283,11.5543,11.6333,11.6824,11.6852,11.5993,11.5223,11.453,11.3593,11.3086,11.3163,11.3036,11.2987,11.3063,11.304,11.3019,11.3021,11.3021,11.3019,11.3019,11.2973,11.2971,11.2969,11.2971,11.2973,11.3021,11.2959,11.2903,11.2897,11.2905,11.29,11.2913,11.2913,11.2916,11.2874,11.2876,11.2923,11.2969,11.2969,11.2973,11.3017,11.3029,11.3072,11.3412,11.4081,11.5144,11.6758,11.8359,11.9414,11.9531,12.0312,12.1015,12.1406,12.2343,12.3281,12.3359,12.3476,12.3711,12.4336,12.457,12.4648,12.4843,12.4804,12.4883,12.4726,12.3934,12.326,12.3526,12.2958,12.1562,12.152,12.1112,12.066,12.0536,12.0648,12.0839,11.8825,11.9036,11.7898,11.755,11.7803,11.8255,11.814,11.7707,11.818,11.77,11.6665,11.6908,11.6893,11.6484,11.6484,11.6484,11.6484,11.6484,11.6484,11.6484,11.6495,11.6402,11.6273,11.6244,11.6374,11.6482,11.5579,11.5918,11.7296,11.7756,11.7646,11.7328,11.7755,11.7906,11.7665,11.7181,11.6566,11.5943,11.663,11.6792,11.6591,11.7254,11.7726,11.7613,11.6481,11.5623,11.5156,11.3945,11.3203,11.3203,11.3162,11.3161,11.3161,11.3117,11.3113,11.3113,11.3113,11.3113,11.3113,11.3113,11.3113,11.3113,11.3113,11.3113,11.3113,11.3113,11.3113,11.3112,11.3061,11.3052,11.3053,11.3105,11.3113,11.3113,11.3113,11.3125,11.3113,11.3125,11.3113,11.3113,11.3113,11.3359,11.398,11.5114,11.6131,11.7031,11.8125,11.8828,11.8906,11.957,12.0078,12.0273,12.1172,12.2109,12.2617,12.3203,12.3593,12.3906,12.4023,12.4258,12.4375,12.4336,12.414,12.4531,12.3593,12.289,12.3044,12.2572,12.155,12.1172,12.0508,12.0018,11.9896,12.0273,12.0525,11.973,12.0166,12.0029,11.9534,11.8996,11.9301,11.909,11.8588,11.9177,11.8446,11.6984,11.7523,11.733,11.6561,11.6484,11.6484,11.6484,11.6484,11.654,11.6577,11.6599,11.6766,11.7007,11.7025,11.7161,11.7179,11.6166,11.6349,11.7742,11.8096,11.7915,11.7486,11.7926,11.8244,11.8169,11.76,11.7216,11.7022,11.7226,11.7226,11.7148,11.7851,11.8281,11.8164,11.6875,11.6054,11.5781,11.4336,11.3437,11.3203,11.3203,11.3203,11.3203,11.3203,11.3203,11.3203,11.3203,11.3203,11.3203,11.3203,11.3203,11.3203,11.3203,11.3203,11.3203,11.3203,11.3203,11.3203,11.316,11.3155,11.3117,11.3162,11.3203,11.3203,11.3203,11.3203,11.3203,11.3203,11.3203,11.3203,11.3164,11.3633,11.4726,11.6015,11.7031,11.7422,11.7929,11.8281,11.8359,11.8867,11.9258,11.9258,12.0,12.0859,12.1718,12.2226,12.2773,12.3125,12.3164,12.3242,12.3398,12.3515,12.3515,12.3984,12.3633,12.3398,12.3125,12.2578,12.1562,12.0195,11.9492,11.9453,11.9598,11.9961,11.9922,12.1287,12.2451,12.2307,12.1233,11.9942,12.0944,12.0935,12.0023,12.0177,11.9292,11.7792,11.7753,11.7292,11.6517,11.6529,11.6506,11.6506,11.654,11.6673,11.6866,11.6885,11.7044,11.7259,11.7275,11.7437,11.7685,11.739,11.7517,11.8039,11.8244,11.8261,11.8184,11.8237,11.8281,11.8281,11.8203,11.7812,11.7226,11.7773,11.7851,11.7265,11.7851,11.8281,11.8203,11.7422,11.6562,11.5859,11.4922,11.4062,11.3242,11.3203,11.3203,11.3203,11.3203,11.3203,11.3203,11.3203,11.3203,11.3203,11.3203,11.3203,11.3203,11.3203,11.3203,11.3203,11.3203,11.3203,11.3203,11.3203,11.3203,11.3203,11.3203,11.3203,11.3203,11.3242,11.3242,11.3242,11.3437,11.3203,11.332,11.3437,11.4023,11.5429,11.6445,11.7265,11.7851,11.8203,11.8281,11.8281,11.8398,11.8437,11.8633,11.9179,11.9961,12.0742,12.1328,12.164,12.2148,12.2617,12.2617,12.3125,12.3515,12.3476,12.3398,12.3164,12.3086,12.3203,12.2539,12.1328,12.0117,11.914,11.8984,11.9218,11.875,11.8789,12.1339,12.1747,12.1859,12.1508,12.1059,12.1462,12.11,12.0331,12.0292,11.9369,11.7973,11.7781,11.7414,11.6776,11.6776,11.6737,11.6758,11.6942,11.7049,11.7175,11.7144,11.7298,11.7542,11.756,11.7717,11.7914,11.7469,11.6969,11.6761,11.7726,11.8005,11.7654,11.8046,11.8281,11.8281,11.8281,11.8125,11.789,11.8164,11.8125,11.7851,11.8164,11.8281,11.8242,11.7461,11.6875,11.6562,11.5234,11.4336,11.4062,11.3515,11.3203,11.3203,11.3203,11.3203,11.3203,11.3203,11.3203,11.3203,11.3203,11.3203,11.3203,11.3203,11.3203,11.3203,11.3203,11.3203,11.3203,11.3203,11.3203,11.3203,11.3203,11.3203,11.3242,11.3672,11.3984,11.414,11.4492,11.4843,11.4804,11.4804,11.5078,11.5664,11.6484,11.7109,11.7422,11.7929,11.8242,11.8281,11.8281,11.8281,11.8437,11.9023,11.9726,11.9922,12.0625,12.1172,12.1836,12.2304,12.2734,12.3164,12.289,12.2773,12.2656,12.2539,12.1953,12.1797,12.1445,12.0429,12.0156,11.9218,11.8906,11.8828,11.8672,11.8633,12.1591,12.1373,12.1799,12.1831,12.1612,12.1612,12.1266,12.0716,12.0716,11.9822,11.8514,11.8305,11.7877,11.7151,11.7102,11.7178,11.718,11.7275,11.7368,11.7404,11.7409,11.7554,11.7809,11.7863,11.7963,11.8105,11.766,11.705,11.671,11.7733,11.7968,11.7539,11.8047,11.8281,11.8281,11.8281,11.8281,11.8281,11.8047,11.7851,11.7851,11.7617,11.7461,11.7383,11.6875,11.6562,11.6562,11.5234,11.4336,11.4062,11.3515,11.3203,11.3203,11.3203,11.3203,11.3203,11.3203,11.3203,11.3203,11.3203,11.3203,11.3203,11.3203,11.3203,11.3203,11.3203,11.3203,11.3203,11.3203,11.3203,11.3203,11.3203,11.3203,11.3281,11.3984,11.4492,11.4531,11.5,11.539,11.5625,11.5898,11.6054,11.6211,11.6914,11.7383,11.7422,11.7968,11.8242,11.8281,11.8281,11.8281,11.832,11.875,11.9062,11.9179,11.9531,12.082,12.1601,12.2109,12.2578,12.2968,12.2578,12.2226,12.2031,12.1523,12.0781,12.0312,12.0078,12.0,11.9922,11.9648,11.9297,11.9101,11.8867,11.8711,12.205,12.1692,12.2524,12.2293,12.1651,12.1612,12.1574,12.1531,12.1493,12.0605,11.9473,11.9387,11.8615,11.7655,11.7679,11.7719,11.7647,11.7465,11.7516,11.7701,11.7719,11.7841,11.8083,11.8138,11.8185,11.8302,11.8278,11.8203,11.8125,11.8203,11.8242,11.8242,11.8242,11.8281,11.8281,11.8281,11.8281,11.8164,11.7617,11.7148,11.6914,11.6406,11.6054,11.5898,11.5742,11.5703,11.5703,11.4922,11.4179,11.3476,11.3242,11.3203,11.3203,11.3203,11.3203,11.3203,11.3203,11.3203,11.3203,11.3203,11.3203,11.3203,11.3203,11.3203,11.3203,11.3203,11.3203,11.3203,11.3203,11.3203,11.3203,11.3281,11.3281,11.3281,11.3984,11.4492,11.4609,11.4609,11.4883,11.5742,11.6484,11.6953,11.7187,11.7617,11.8086,11.8125,11.8203,11.8281,11.8281,11.8281,11.8281,11.832,11.8633,11.8945,11.8672,11.8554,12.0078,12.1367,12.1758,12.2226,12.2851,12.2812,12.2343,12.2031,12.1484,12.0742,12.0703,12.0468,12.039,12.0273,11.9961,11.9453,11.9062,11.8789,11.8711,12.1772,12.1639,12.187,12.187,12.1612,12.1612,12.17,12.1812,12.1272,12.0846,12.0484,11.9974,11.9262,11.8673,11.8627,11.8434,11.8054,11.7963,11.7959,11.8031,11.8054,11.8099,11.8226,11.8244,11.8303,11.8278,11.8281,11.8281,11.8281,11.8281,11.8281,11.8281,11.8281,11.8281,11.8281,11.8281,11.8281,11.8242,11.8047,11.7656,11.707,11.6718,11.6289,11.5703,11.5156,11.4883,11.4843,11.4648,11.4375,11.4062,11.3515,11.3203,11.3164,11.3203,11.3203,11.3203,11.3203,11.3203,11.3203,11.3203,11.3203,11.3203,11.3203,11.3203,11.3203,11.3242,11.3242,11.3203,11.3203,11.3203,11.3281,11.3664,11.366,11.3242,11.3984,11.4765,11.5351,11.6328,11.6836,11.6718,11.7343,11.7812,11.789,11.8242,11.8281,11.8281,11.8281,11.8281,11.8281,11.8281,11.8281,11.8281,11.8672,11.8945,11.8828,11.8906,11.9922,12.0976,12.1445,12.2031,12.2656,12.2851,12.2383,12.1914,12.1328,12.1054,12.0976,12.0859,12.0703,12.0312,11.9804,11.9336,11.8867,11.8711,11.8789,12.1612,12.1612,12.1612,12.1654,12.1766,12.1728,12.1882,12.2052,12.1601,12.1354,12.1154,12.0768,12.0024,11.9331,11.924,11.8876,11.8269,11.8233,11.824,11.8248,11.8237,11.8286,11.8302,11.8272,11.8278,11.8281,11.8281,11.8281,11.8281,11.8281,11.8281,11.8281,11.8281,11.8281,11.8281,11.8281,11.8281,11.8281,11.7968,11.7539,11.6992,11.6367,11.582,11.5195,11.4453,11.4062,11.4023,11.3982,11.3982,11.3867,11.3164,11.2734,11.2695,11.2422,11.2226,11.2304,11.2539,11.2695,11.2734,11.2968,11.3398,11.3593,11.3672,11.3867,11.4062,11.414,11.4023,11.3667,11.3633,11.3426,11.3164,11.3329,11.3394,11.2943,11.4023,11.5001,11.5985,11.7327,11.7929,11.7656,11.7929,11.8193,11.8271,11.8232,11.8271,11.8271,11.8271,11.8275,11.8276,11.8281,11.8281,11.832,11.8554,11.8828,11.9023,11.9414,11.9883,12.0547,12.1093,12.1836,12.2539,12.25,12.2187,12.1797,12.1289,12.125,12.1172,12.0976,12.0781,12.0234,11.9687,11.9453,11.914,11.9062,11.8984,12.1585,12.1635,12.1647,12.1783,12.2014,12.1995,12.2185,12.2411,12.2432,12.2149,12.1787,12.1588,12.0824,11.9802,11.9545,11.9062,11.8418,11.8303,11.8272,11.8278,11.8273,11.8306,11.8309,11.8279,11.8281,11.8281,11.8281,11.8281,11.8281,11.8281,11.8281,11.8281,11.8281,11.8281,11.8281,11.8281,11.8281,11.8203,11.7461,11.7031,11.6875,11.539,11.4531,11.4453,11.3672,11.3203,11.3203,11.3125,11.3094,11.3086,11.2539,11.2226,11.1875,11.1172,11.1093,11.1211,11.1601,11.1992,11.2187,11.2734,11.3398,11.3906,11.4062,11.4687,11.4883,11.4726,11.4466,11.3886,11.3884,11.3613,11.2832,11.2685,11.26,11.2622,11.3982,11.5303,11.6302,11.7367,11.7831,11.7917,11.8041,11.8156,11.8112,11.8073,11.8073,11.8073,11.8073,11.8087,11.8107,11.8075,11.8223,11.8281,11.8359,11.8476,11.8633,11.8789,11.9258,11.9648,12.0312,12.1211,12.207,12.2109,12.2148,12.1797,12.1445,12.1406,12.1172,12.0859,12.0468,11.9883,11.9609,11.9609,11.9414,11.9179,11.8984,12.1722,12.1872,12.1882,12.2063,12.2282,12.23,12.2442,12.2686,12.2701,12.263,12.2668,12.2232,12.132,12.044,11.9794,11.9098,11.8476,11.8281,11.828,11.8281,11.8281,11.828,11.828,11.8281,11.8281,11.8281,11.8281,11.8281,11.8281,11.8281,11.8281,11.8281,11.8281,11.8281,11.8281,11.8281,11.8281,11.8164,11.7372,11.6969,11.6647,11.5062,11.4068,11.3945,11.3092,11.2598,11.2544,11.2511,11.2645,11.2957,11.2853,11.2695,11.2507,11.2261,11.1993,11.2036,11.234,11.2515,11.2496,11.2767,11.2989,11.2882,11.3343,11.3213,11.3175,11.3249,11.3073,11.2841,11.2841,11.274,11.2459,11.2338,11.2411,11.2917,11.4019,11.5001,11.5578,11.6641,11.7376,11.6865,11.7264,11.758,11.7658,11.7658,11.7658,11.7658,11.7663,11.7677,11.7767,11.7741,11.7786,11.7904,11.8008,11.8086,11.8203,11.8281,11.8476,11.875,11.9414,12.0273,12.1172,12.1758,12.1953,12.2031,12.164,12.1523,12.0937,12.0429,11.9961,11.9414,11.9297,11.914,11.9023,11.8828,11.8789,12.1339,12.1483,12.1956,12.2329,12.2482,12.2224,12.2222,12.2333,12.2119,12.2065,12.2101,12.182,12.1126,12.0267,11.9765,11.9101,11.8359,11.8281,11.8281,11.8281,11.8281,11.8281,11.8281,11.8281,11.8281,11.8281,11.8281,11.8281,11.8281,11.8281,11.8281,11.8281,11.8281,11.8281,11.8281,11.8277,11.8192,11.806,11.7506,11.7217,11.6981,11.5282,11.4484,11.4066,11.3071,11.2283,11.2254,11.2269,11.2372,11.2537,11.2351,11.2159,11.2068,11.1762,11.1613,11.1584,11.1896,11.2027,11.2074,11.2403,11.2966,11.3291,11.3574,11.3949,11.4366,11.4173,11.3895,11.3459,11.3014,11.255,11.2122,11.1971,11.2421,11.3246,11.3765,11.4305,11.5047,11.6518,11.7031,11.6883,11.6999,11.7355,11.7355,11.7349,11.7349,11.7355,11.7407,11.7446,11.7456,11.7399,11.739,11.754,11.7658,11.7767,11.7917,11.8015,11.8101,11.8308,11.8553,11.9398,12.0273,12.1093,12.1328,12.1484,12.1562,12.1321,12.049,11.9729,11.914,11.8789,11.875,11.8643,11.8454,11.895,11.8865,12.0613,12.0766,12.1748,12.2343,12.2371,12.1812,12.1733,12.1837,12.1247,12.1031,12.1081,12.0897,12.0351,11.9609,11.9414,11.8945,11.8125,11.8203,11.8164,11.8125,11.8047,11.8047,11.8047,11.8242,11.8281,11.8281,11.8281,11.8281,11.8281,11.8281,11.8281,11.8281,11.8242,11.8242,11.8146,11.812,11.8002,11.7826,11.7408,11.7303,11.698,11.5643,11.4681,11.437,11.2699,11.203,11.2001,11.1986,11.1995,11.2191,11.1505,11.1378,11.1166,11.0416,11.0183,11.0405,11.1054,11.1321,11.1249,11.1982,11.281,11.3793,11.4155,11.5143,11.5451,11.5017,11.4451,11.3708,11.3599,11.2597,11.1902,11.1591,11.2117,11.3037,11.2982,11.3664,11.5003,11.6362,11.7125,11.7203,11.7203,11.7203,11.7203,11.7203,11.7195,11.7011,11.7067,11.7062,11.7072,11.708,11.7158,11.7297,11.7386,11.7464,11.7605,11.7738,11.7853,11.8018,11.8021,11.8567,11.9436,12.0117,12.0429,12.0552,12.0429,12.0108,11.9559,11.8871,11.8348,11.8348,11.8477,11.8126,11.7852,11.8911,11.9296,12.0137,12.0399,12.0636,12.0897,12.1113,12.0972,12.1325,12.1924,12.111,12.1006,12.1406,12.0468,11.9765,11.9492,11.8828,11.8086,11.7461,11.7812,11.7968,11.7304,11.7265,11.7265,11.7461,11.7968,11.8281,11.8281,11.8281,11.8281,11.8281,11.8242,11.8277,11.8214,11.8027,11.7911,11.7839,11.7616,11.7561,11.739,11.6815,11.6772,11.69,11.5504,11.447,11.419,11.2064,11.1191,11.1375,11.0998,11.0999,11.1468,11.1771,11.1664,11.1615,11.1579,11.1424,11.1352,11.1499,11.1676,11.1632,11.1863,11.2141,11.245,11.2776,11.2548,11.2619,11.2947,11.2581,11.2203,11.2001,11.1885,11.1715,11.1554,11.1829,11.2252,11.2522,11.2813,11.3475,11.4841,11.6003,11.6494,11.6686,11.6684,11.6694,11.6707,11.6697,11.6694,11.6715,11.6715,11.6748,11.6789,11.6882,11.7001,11.7064,11.7159,11.7348,11.747,11.7575,11.7688,11.7669,11.7618,11.8465,11.9175,11.948,11.9405,11.9143,11.8797,11.8593,11.8159,11.7647,11.7913,11.8273,11.8314,11.8533,11.9312,11.9519,11.9553,11.9776,12.0271,12.057,12.0651,12.0346,12.0443,12.0696,11.9994,11.988,12.0117,11.9297,11.8789,11.8359,11.789,11.7226,11.664,11.6836,11.707,11.6953,11.7031,11.7226,11.7567,11.7874,11.8143,11.819,11.8164,11.8092,11.8029,11.7887,11.783,11.7836,11.7709,11.7625,11.7444,11.7034,11.6934,11.6981,11.6274,11.6138,11.6497,11.5571,11.4204,11.35,11.1778,11.0944,11.0812,11.0504,11.0493,11.0819,11.1133,11.1472,11.1731,11.1814,11.1814,11.1789,11.1751,11.1713,11.1673,11.1741,11.1915,11.2015,11.2161,11.239,11.2411,11.2368,11.2088,11.1972,11.184,11.1637,11.1972,11.1626,11.1665,11.1972,11.2099,11.2291,11.2868,11.4214,11.5407,11.5907,11.6309,11.6452,11.6495,11.6484,11.6506,11.6577,11.6577,11.6577,11.6567,11.6603,11.6603,11.6699,11.6727,11.6818,11.7054,11.7228,11.7297,11.7331,11.7359,11.7167,11.736,11.8001,11.8567,11.8405,11.8308,11.8136,11.7885,11.7419,11.7368,11.7725,11.8159,11.8663,11.9068,11.9368,11.9439,11.8924,11.9048,11.9946,12.0388,12.0296,11.9634,11.9368,11.9297,11.8476,11.8242,11.8047,11.8008,11.7461,11.6953,11.6875,11.6367,11.5859,11.5351,11.5586,11.6211,11.6211,11.646,11.6929,11.7081,11.7244,11.7641,11.7569,11.7424,11.7188,11.7229,11.7166,11.7191,11.7333,11.7167,11.6928,11.6388,11.6024,11.6103,11.5794,11.5722,11.6242,11.5654,11.4747,11.3236,11.1725,11.0983,11.0598,11.0214,11.0098,11.0367,11.0147,11.0483,11.106,11.1291,11.1175,11.1109,11.092,11.0997,11.1113,11.1256,11.1554,11.2395,11.2456,11.2763,11.306,11.2714,11.2357,11.2165,11.1906,11.1742,11.2357,11.1895,11.1868,11.2137,11.1829,11.1857,11.2599,11.406,11.4945,11.5407,11.583,11.6061,11.6369,11.6484,11.6484,11.6484,11.6484,11.6446,11.6457,11.6495,11.6529,11.654,11.6594,11.6577,11.6807,11.6914,11.6966,11.702,11.7037,11.6904,11.6715,11.7455,11.804,11.7739,11.7576,11.7545,11.7517,11.7346,11.7425,11.7683,11.8393,11.9209,11.9424,11.9403,11.9587,11.8363,11.8439,11.8643,11.8699,11.8672,11.8554,11.8437,11.8398,11.7578,11.7226,11.7148,11.6523,11.6172,11.5898,11.5937,11.5859,11.5039,11.4258,11.4052,11.4693,11.4745,11.4921,11.5175,11.5589,11.5534,11.5534,11.5907,11.6018,11.5824,11.6018,11.6261,11.6367,11.667,11.6605,11.6011,11.5484,11.502,11.499,11.4981,11.5231,11.5468,11.5561,11.5215,11.3483,11.1714,11.0791,11.0714,10.9906,10.979,11.0983,10.9867,10.9752,11.0175,11.0367,11.006,10.9713,10.9598,10.9867,11.0291,11.0444,11.0868,11.1434,11.1665,11.1703,11.1857,11.1895,11.1857,11.178,11.1703,11.1588,11.1675,11.1588,11.1588,11.1665,11.1665,11.1588,11.2088,11.306,11.4445,11.5022,11.5368,11.583,11.6215,11.6457,11.638,11.638,11.6418,11.6341,11.6226,11.638,11.6495,11.6506,11.6506,11.6517,11.6545,11.6577,11.6663,11.6676,11.6697,11.6707,11.6776,11.7359,11.7577,11.7291,11.7301,11.7422,11.7374,11.7243,11.7623,11.8034,11.8908,11.9831,12.0062,12.0292,12.0716,11.7595,11.7573,11.7144,11.699,11.6992,11.6992,11.6953,11.6914,11.6484,11.6328,11.6093,11.5508,11.4843,11.4414,11.3864,11.3463,11.2806,11.252,11.2523,11.3127,11.36,11.4056,11.4128,11.4506,11.4234,11.4071,11.4201,11.4553,11.4623,11.4876,11.5252,11.5567,11.5582,11.5377,11.5139,11.4389,11.411,11.3907,11.4022,11.4253,11.4522,11.4753,11.4137,11.3522,11.1598,11.0329,10.9906,10.9521,10.9252,10.979,10.9329,10.9213,10.929,10.9136,10.8944,10.8829,10.8829,10.9021,10.9444,10.9521,10.9752,11.0098,11.056,11.0829,11.0983,11.1214,11.1472,11.1511,11.1511,11.1511,11.1549,11.1511,11.1511,11.1511,11.1511,11.1703,11.2049,11.2511,11.3407,11.4561,11.5407,11.5945,11.633,11.6418,11.6226,11.6226,11.6303,11.6226,11.6072,11.6264,11.6484,11.6484,11.6484,11.6495,11.6495,11.6495,11.6484,11.6484,11.6484,11.6484,11.6676,11.7226,11.7111,11.6809,11.693,11.7253,11.7226,11.7166,11.7738,11.8446,11.9369,12.0254,12.0831,12.1266,12.1497,11.6753,11.6679,11.6015,11.5742,11.5742,11.5547,11.5351,11.5195,11.4961,11.4726,11.4609,11.3945,11.3203,11.257,11.1797,11.0985,11.0111,11.0673,11.1218,11.1666,11.2244,11.3023,11.3552,11.3441,11.2894,11.2764,11.2366,11.2772,11.3429,11.3744,11.4164,11.4427,11.4093,11.4137,11.4302,11.3494,11.3291,11.3099,11.3137,11.3176,11.3599,11.3253,11.2972,11.3483,11.1445,10.9906,10.9521,10.9098,10.8906,10.8983,10.879,10.8636,10.8521,10.7867,10.7752,10.8252,10.8367,10.8444,10.8636,10.8675,10.8906,10.956,10.9916,11.0214,11.0637,11.1214,11.1511,11.1511,11.1511,11.1511,11.1511,11.1511,11.1511,11.1511,11.1549,11.1665,11.1972,11.2368,11.2676,11.3868,11.5215,11.5638,11.5638,11.5638,11.533,11.5753,11.583,11.6149,11.6072,11.6341,11.6484,11.6484,11.6484,11.6484,11.6495,11.6495,11.6484,11.6484,11.6484,11.6484,11.6676,11.6984,11.6753,11.6572,11.6792,11.7061,11.7061,11.7446,11.8369,11.9215,11.9985,12.0639,12.1189,12.142,12.1535,11.5898,11.5859,11.5781,11.5781,11.5586,11.4843,11.414,11.3437,11.2773,11.1875,11.1484,11.1124,11.0943,11.0452,11.0076,10.9821,10.9802,10.9688,10.9811,11.003,11.0241,11.0653,11.0889,10.9918,11.0939,11.1375,11.1015,11.1071,11.1921,11.2582,11.2945,11.3214,11.3637,11.3753,11.3291,11.2791,11.2406,11.206,11.2406,11.306,11.3637,11.3099,11.2791,11.2406,11.1175,10.9993,10.9637,10.9136,10.879,10.8713,10.8175,10.7905,10.7713,10.7021,10.6674,10.6664,10.678,10.7021,10.7675,10.7944,10.8444,10.9329,11.0021,11.0598,11.106,11.128,11.1511,11.1511,11.1511,11.1511,11.1511,11.1511,11.1511,11.1511,11.1511,11.1549,11.178,11.206,11.2406,11.2791,11.4022,11.4253,11.4291,11.4368,11.4484,11.4984,11.5445,11.5764,11.6072,11.6303,11.6484,11.6484,11.6484,11.6484,11.6484,11.6484,11.6484,11.6484,11.6484,11.6484,11.6599,11.6753,11.6638,11.6572,11.6792,11.7138,11.7446,11.81,11.91,11.9869,12.0523,12.1023,12.1497,12.1612,12.1612,11.414,11.4922,11.3984,11.3593,11.3476,11.2656,11.2109,11.1718,11.1286,11.0574,10.9771,10.9575,10.9134,10.8497,10.7303,10.719,10.783,10.8044,10.8172,10.8638,10.8892,10.9273,10.9618,10.9612,11.0098,11.0021,11.0598,11.0829,11.1175,11.1598,11.2175,11.2626,11.2637,11.2714,11.2522,11.2214,11.1906,11.1703,11.1895,11.2434,11.2829,11.256,11.2242,11.256,11.0598,10.9713,10.9329,10.8675,10.8252,10.8175,10.779,10.7713,10.7521,10.6944,10.6395,10.6395,10.6433,10.6587,10.6944,10.7433,10.8175,10.8867,10.9675,11.056,11.1291,11.1472,11.1472,11.1511,11.1511,11.1511,11.1511,11.1511,11.1511,11.1511,11.1511,11.178,11.1857,11.1791,11.206,11.2406,11.2714,11.306,11.3407,11.3791,11.4099,11.4638,11.5099,11.5445,11.583,11.6138,11.633,11.6484,11.6484,11.6484,11.6484,11.6484,11.6484,11.6484,11.6484,11.6484,11.6484,11.6522,11.6534,11.6534,11.6649,11.71,11.7715,11.8407,11.9138,12.0023,12.0997,12.1266,12.1535,12.1612,12.1574,11.2031,11.3086,11.2031,11.1562,11.1484,11.0664,11.0273,11.0156,10.9588,10.9076,10.8594,10.8321,10.7772,10.6944,10.586,10.5937,10.6676,10.6467,10.681,10.7444,10.7944,10.8311,10.8657,10.9136,10.9252,10.8867,10.9983,11.0252,11.0252,11.0714,11.156,11.2319,11.1945,11.1895,11.2088,11.1895,11.1549,11.1549,11.1549,11.1895,11.2214,11.1857,11.1934,11.1522,11.0367,10.8906,10.879,10.836,10.8003,10.7357,10.7735,10.7713,10.7238,10.6948,10.6675,10.6703,10.6703,10.6813,10.7093,10.7471,10.7874,10.8636,10.9483,11.0906,11.1291,11.1406,11.1368,11.1472,11.1175,11.1252,11.1434,11.1511,11.1511,11.1511,11.1511,11.1934,11.2165,11.1934,11.1752,11.1934,11.2165,11.2329,11.2753,11.3291,11.3791,11.4291,11.4714,11.5176,11.5638,11.6138,11.6292,11.6484,11.6484,11.6484,11.6484,11.6484,11.6484,11.6484,11.6484,11.6676,11.6792,11.6715,11.6649,11.6649,11.6726,11.7138,11.783,11.8446,11.91,11.9985,12.0754,12.1189,12.1458,12.1535,12.1574,10.9531,10.9687,11.0351,11.0586,11.0508,10.9765,10.9205,10.8796,10.7373,10.7076,10.7285,10.7016,10.6766,10.6555,10.6158,10.5948,10.6407,10.6415,10.6405,10.6444,10.6626,10.7136,10.7598,10.7944,10.8329,10.8636,10.9329,10.929,10.9252,11.006,11.0829,11.1434,11.1472,11.1511,11.1626,11.1626,11.1588,11.1626,11.1703,11.1626,11.1819,11.1665,11.1665,11.1242,11.0011,10.8906,10.8885,10.8536,10.7848,10.689,10.7576,10.7515,10.7,10.711,10.7158,10.6774,10.6966,10.7193,10.7645,10.7817,10.8545,10.9703,11.0714,11.1291,11.1472,11.0741,11.0741,11.1346,11.1028,11.0962,11.1269,11.1511,11.1511,11.1511,11.1549,11.178,11.1934,11.1742,11.1588,11.1588,11.1857,11.2329,11.2791,11.3522,11.4099,11.4638,11.4984,11.5445,11.5945,11.6369,11.6407,11.6484,11.6484,11.6484,11.6484,11.6484,11.6484,11.6484,11.6484,11.6869,11.7292,11.71,11.6688,11.7176,11.7369,11.7638,11.7869,11.8407,11.9023,11.9869,12.0562,12.115,12.1458,12.1535,12.1612,10.7383,10.6992,10.7304,10.7773,10.8125,10.713,10.6935,10.7069,10.5882,10.56,10.612,10.5448,10.5581,10.6025,10.5351,10.5482,10.6164,10.579,10.5713,10.5828,10.6136,10.6251,10.6597,10.7136,10.7675,10.7713,10.8252,10.8559,10.8329,10.9367,11.0137,11.0714,11.1126,11.1472,11.1511,11.1549,11.1742,11.2126,11.2203,11.2203,11.2242,11.2214,11.2011,11.1395,11.0259,10.9294,10.8914,10.8482,10.7734,10.7329,10.7686,10.7326,10.6961,10.7387,10.7185,10.6638,10.6829,10.7443,10.8017,10.8138,10.8788,11.0325,11.1182,11.1489,11.1407,11.0929,11.099,11.1144,11.0957,11.0835,11.1297,11.1511,11.1511,11.1511,11.1615,11.1797,11.1863,11.1814,11.216,11.2407,11.2643,11.2945,11.3445,11.3945,11.4484,11.5022,11.533,11.5715,11.6176,11.6484,11.6484,11.6484,11.6484,11.6484,11.6484,11.6484,11.6484,11.6484,11.6484,11.6984,11.7407,11.6907,11.6676,11.733,11.7819,11.7781,11.7946,11.8331,11.8985,11.9792,12.06,12.1304,12.1497,12.1574,12.1612,10.5625,10.5078,10.4844,10.5351,10.6168,10.5687,10.572,10.5972,10.5288,10.503,10.5346,10.484,10.5251,10.579,10.5405,10.5251,10.6087,10.5905,10.5636,10.579,10.6059,10.5982,10.6213,10.6674,10.7367,10.6933,10.7598,10.8136,10.7405,10.8752,10.9406,10.9944,11.0637,11.1098,11.1511,11.1549,11.1895,11.2522,11.2445,11.2495,11.2473,11.2209,11.1861,11.1135,11.0106,10.9365,10.8689,10.8099,10.7599,10.7206,10.7226,10.7199,10.727,10.7297,10.7099,10.6705,10.6667,10.7338,10.7918,10.8779,10.9391,11.0621,11.097,11.1178,11.1139,11.0843,11.0551,11.1016,11.0781,11.0704,11.1131,11.1178,11.1155,11.1108,11.1757,11.2048,11.2279,11.2383,11.2893,11.3366,11.3393,11.3312,11.4202,11.4664,11.495,11.5423,11.5753,11.6022,11.6253,11.6484,11.6484,11.6484,11.6484,11.6484,11.6484,11.6484,11.6484,11.6484,11.6599,11.71,11.7292,11.6792,11.7061,11.7984,11.8254,11.7934,11.8177,11.8677,11.9215,11.9754,12.06,12.1497,12.1535,12.1612,12.1612,10.4258,10.4101,10.3359,10.3942,10.5291,10.5982,10.5976,10.5754,10.5606,10.5349,10.5274,10.5713,10.6136,10.6318,10.601,10.6164,10.6241,10.628,10.6136,10.6059,10.6213,10.6328,10.6521,10.6867,10.7087,10.679,10.7175,10.729,10.6549,10.7675,10.8367,10.9038,10.9874,11.0758,11.1434,11.1511,11.1934,11.2472,11.1951,11.206,11.2244,11.1778,11.116,11.0729,10.981,10.9042,10.8354,10.7782,10.7388,10.7214,10.6725,10.6729,10.7091,10.7292,10.7204,10.6913,10.6993,10.7428,10.8034,10.9556,11.0134,11.0279,11.0331,11.0499,11.0436,11.0105,10.9952,11.0689,11.0219,11.0105,11.036,11.0716,11.0882,11.102,11.1651,11.2362,11.2618,11.2772,11.327,11.3999,11.3711,11.3534,11.4639,11.5432,11.5563,11.5851,11.6165,11.6369,11.6446,11.6484,11.6484,11.6484,11.6484,11.6484,11.6484,11.6484,11.6484,11.6484,11.6599,11.6984,11.7176,11.6946,11.7523,11.8561,11.8446,11.7946,11.8446,11.91,11.9562,12.0062,12.0869,12.1574,12.1574,12.1612,12.1612,10.332,10.3281,10.2829,10.2902,10.3396,10.3453,10.3976,10.4855,10.5585,10.5727,10.5358,10.602,10.6395,10.6395,10.6395,10.6395,10.6395,10.6356,10.6241,10.5674,10.6136,10.5905,10.6059,10.6444,10.6703,10.6549,10.6751,10.6731,10.6472,10.7046,10.7615,10.8308,10.9398,11.0457,11.1237,11.1538,11.1852,11.2283,11.2226,11.2273,11.2628,11.1643,11.0855,11.0664,10.9461,10.8569,10.8,10.7507,10.7398,10.7242,10.677,10.6936,10.7119,10.7275,10.7165,10.6662,10.6492,10.6978,10.7431,10.8234,10.8948,10.9186,10.9424,10.9699,10.9889,10.9672,10.9893,11.0304,11.0073,11.0151,11.0499,11.1226,11.1404,11.1111,11.1621,11.2577,11.2998,11.3074,11.3419,11.4413,11.4601,11.4523,11.5191,11.5548,11.5698,11.5872,11.6099,11.6328,11.6439,11.6473,11.6484,11.6484,11.6484,11.6484,11.6484,11.6484,11.6484,11.6484,11.6484,11.6599,11.6753,11.6907,11.7446,11.8215,11.81,11.7984,11.8831,11.9562,11.9869,12.0408,12.115,12.1458,12.1381,12.1458,12.1612,10.289,10.2847,10.2599,10.2413,10.2275,10.235,10.3204,10.4529,10.5553,10.5751,10.5713,10.6174,10.6395,10.6395,10.6395,10.6395,10.6395,10.6395,10.628,10.5636,10.6097,10.6059,10.5982,10.6059,10.6395,10.6308,10.6015,10.5896,10.6182,10.6397,10.7033,10.7963,10.9044,11.0117,11.0863,11.1208,11.148,11.1783,11.171,11.1452,11.1519,11.096,11.0029,10.9626,10.8932,10.8081,10.7628,10.7386,10.7386,10.725,10.7083,10.7163,10.7051,10.7051,10.6975,10.6361,10.6268,10.6677,10.6899,10.7085,10.7647,10.7758,10.8256,10.878,10.917,10.9192,10.9424,10.9769,10.9952,11.0322,11.0661,11.1416,11.1506,11.1239,11.2186,11.314,11.3434,11.3511,11.3968,11.4922,11.5106,11.5234,11.5356,11.5568,11.5701,11.583,11.5996,11.6181,11.6359,11.6416,11.6462,11.6484,11.6484,11.6484,11.6484,11.6484,11.6484,11.6484,11.6495,11.6495,11.6792,11.7061,11.7484,11.783,11.7946,11.8331,11.9369,12.0023,12.0485,12.0831,12.1266,12.1381,12.1227,12.1381,12.1574,10.2887,10.2752,10.2542,10.2289,10.2138,10.2522,10.3615,10.4945,10.5107,10.5559,10.629,10.6251,10.6395,10.6395,10.6395,10.6395,10.6395,10.6395,10.6318,10.628,10.6318,10.628,10.628,10.6318,10.6364,10.5994,10.5612,10.535,10.5771,10.5361,10.6048,10.748,10.8424,10.9391,10.9964,11.0329,11.0724,11.091,11.0574,11.0408,11.0458,10.9424,10.8827,10.851,10.8111,10.7609,10.7117,10.6739,10.6739,10.6541,10.6132,10.6364,10.6545,10.6657,10.6486,10.6402,10.6413,10.6438,10.6501,10.6636,10.6632,10.6905,10.7495,10.7888,10.8213,10.851,10.8744,10.9044,10.9274,10.9991,11.0621,11.1023,11.1409,11.2113,11.3126,11.3678,11.3927,11.4245,11.4702,11.5062,11.4937,11.499,11.5144,11.5341,11.5477,11.5519,11.5591,11.5751,11.597,11.6324,11.6382,11.6484,11.6484,11.6484,11.6484,11.6484,11.6484,11.6484,11.6534,11.6572,11.6869,11.7138,11.7407,11.7677,11.8023,11.8677,11.9715,12.0562,12.1216,12.1447,12.1257,12.1346,12.1219,12.1408,12.1612,10.2749,10.2536,10.2265,10.2017,10.1811,10.1796,10.2376,10.3376,10.4482,10.529,10.5482,10.6136,10.6318,10.6395,10.6395,10.6395,10.6395,10.6395,10.6395,10.6395,10.6395,10.6395,10.6395,10.6374,10.6301,10.5849,10.5317,10.471,10.4797,10.4386,10.4859,10.6246,10.7327,10.811,10.8629,10.8865,10.9446,10.9712,10.922,10.9274,10.9151,10.8315,10.7982,10.7921,10.7368,10.6995,10.6612,10.6456,10.6493,10.6349,10.6245,10.6418,10.6434,10.6481,10.6397,10.6397,10.6397,10.6397,10.6376,10.6376,10.6376,10.6376,10.6779,10.7045,10.736,10.7721,10.7979,10.8301,10.8616,10.9212,10.9888,11.0369,11.0968,11.1872,11.2985,11.3836,11.4102,11.4466,11.4922,11.4968,11.4837,11.4868,11.5013,11.5028,11.5117,11.5132,11.5235,11.5383,11.5658,11.6008,11.6277,11.6393,11.6484,11.6484,11.6484,11.6484,11.6484,11.6484,11.6534,11.6534,11.6649,11.6869,11.7215,11.7846,11.8608,11.9323,12.0062,12.0796,12.1292,12.102,12.0855,12.1083,12.126,12.1414,12.1515,10.2585,10.2419,10.2056,10.1744,10.1512,10.1374,10.1625,10.2327,10.352,10.4405,10.5097,10.5636,10.6059,10.6356,10.6395,10.6395,10.6395,10.6395,10.6395,10.6395,10.6395,10.6395,10.6395,10.6312,10.6156,10.564,10.4832,10.3968,10.4022,10.4138,10.4492,10.5058,10.602,10.6899,10.7503,10.7832,10.8067,10.8246,10.8231,10.826,10.7944,10.7481,10.7465,10.7435,10.667,10.6513,10.6376,10.6376,10.6376,10.6376,10.6376,10.6397,10.6397,10.6397,10.6376,10.6376,10.6376,10.6376,10.6376,10.6376,10.6376,10.6376,10.6397,10.6569,10.6881,10.7203,10.7456,10.7703,10.798,10.8384,10.9014,10.97,11.0467,11.1265,11.2548,11.3843,11.4219,11.454,11.4707,11.4799,11.4821,11.4821,11.4837,11.4805,11.4821,11.4891,11.4998,11.5109,11.5453,11.5855,11.6108,11.6253,11.6393,11.6484,11.6484,11.6473,11.6484,11.6484,11.6495,11.6495,11.6484,11.6731,11.7158,11.8265,11.95,12.0064,12.0464,12.0709,12.1041,12.0773,12.0658,12.0799,12.1029,12.1181,12.1295,10.22,10.2059,10.1673,10.128,10.1202,10.1135,10.1241,10.1394,10.2251,10.3366,10.4646,10.5059,10.5559,10.6059,10.628,10.6395,10.6395,10.6395,10.6395,10.6395,10.6395,10.6385,10.6242,10.6134,10.5951,10.5203,10.4147,10.3096,10.3334,10.336,10.3386,10.3907,10.5483,10.6338,10.654,10.6993,10.7246,10.7302,10.7322,10.7277,10.7138,10.6735,10.6376,10.6476,10.6397,10.6376,10.6376,10.6376,10.6376,10.6376,10.6376,10.6376,10.6376,10.6376,10.6376,10.6376,10.6376,10.6376,10.6376,10.6376,10.6376,10.6376,10.6397,10.6439,10.6632,10.68,10.7045,10.7163,10.7378,10.7624,10.8184,10.8932,10.9712,11.0763,11.2012,11.3123,11.3768,11.4231,11.473,11.4805,11.4805,11.4805,11.4805,11.4805,11.4805,11.4821,11.4868,11.4968,11.5168,11.5618,11.5829,11.6046,11.6241,11.6359,11.6405,11.6405,11.6473,11.6484,11.6473,11.6484,11.6484,11.6785,11.7177,11.8377,11.9609,12.0311,12.0741,12.088,12.088,12.0763,12.0659,12.0625,12.0771,12.0921,12.0989,10.0411,10.0146,9.9692,9.9815,10.0337,10.0375,10.0789,10.1279,10.151,10.2251,10.3289,10.4443,10.5213,10.552,10.6164,10.6395,10.6395,10.6326,10.6395,10.6364,10.6326,10.6199,10.6123,10.594,10.5754,10.49,10.3667,10.2034,10.1512,10.1667,10.2116,10.2373,10.4075,10.5321,10.5377,10.5941,10.6546,10.653,10.6657,10.6693,10.6611,10.6549,10.6376,10.6376,10.6376,10.6376,10.6376,10.6376,10.6376,10.6376,10.6376,10.6376,10.6376,10.6376,10.6376,10.6376,10.6376,10.6376,10.6376,10.6376,10.6376,10.6376,10.6376,10.6376,10.646,10.6528,10.6611,10.6693,10.6792,10.7025,10.7351,10.8133,10.9002,11.0162,11.1274,11.2169,11.3128,11.3882,11.4591,11.4698,11.4698,11.4805,11.4805,11.4805,11.4805,11.4821,11.4821,11.4883,11.4937,11.5226,11.5505,11.5685,11.6021,11.6169,11.6229,11.6265,11.63,11.637,11.6359,11.6416,11.6462,11.7004,11.7525,11.8524,11.9557,12.0146,12.0517,12.0716,12.0688,12.056,12.0497,12.0432,12.0417,12.0535,12.0655,9.9704,9.9475,9.899,9.9058,9.9529,9.9913,10.0375,10.0789,10.1125,10.1548,10.2251,10.3712,10.4713,10.5146,10.602,10.6308,10.6336,10.6242,10.621,10.6199,10.6112,10.594,10.5836,10.5668,10.5256,10.4505,10.2691,10.1084,10.0006,10.0538,10.1207,10.128,10.2927,10.418,10.417,10.5036,10.5825,10.5846,10.6156,10.6339,10.6376,10.6376,10.6376,10.6376,10.6376,10.6376,10.6376,10.6376,10.6376,10.6376,10.6376,10.6376,10.6376,10.6376,10.6376,10.6376,10.6376,10.6376,10.6376,10.6376,10.6376,10.6376,10.6376,10.6376,10.6376,10.6481,10.6481,10.6507,10.6507,10.6701,10.6758,10.732,10.8069,10.9131,10.977,11.0498,11.1696,11.2805,11.3307,11.3611,11.4006,11.4805,11.4805,11.4805,11.4805,11.4805,11.4805,11.4805,11.4861,11.4907,11.5147,11.5364,11.5645,11.5881,11.5932,11.5983,11.6046,11.612,11.6217,11.6217,11.627,11.7119,11.7935,11.8583,11.9173,11.9705,12.0065,12.0324,12.0311,12.0182,12.0143,12.0156,12.0172,12.0241,12.0365,9.9186,9.9135,9.8635,9.8557,9.875,9.9413,9.9798,10.0067,10.075,10.1125,10.1404,10.2981,10.4097,10.4866,10.579,10.6038,10.6158,10.6079,10.5991,10.5894,10.5754,10.567,10.546,10.5229,10.4491,10.3369,10.1737,10.0462,9.9322,10.0063,10.0535,10.0518,10.1664,10.3264,10.3309,10.4027,10.5018,10.5364,10.5752,10.6192,10.6302,10.6376,10.6376,10.6376,10.6376,10.6376,10.6376,10.6376,10.6376,10.6376,10.6376,10.6376,10.6376,10.6376,10.6376,10.6376,10.6376,10.6376,10.6376,10.6376,10.6376,10.6376,10.6376,10.6376,10.6376,10.6376,10.6376,10.6376,10.6376,10.6397,10.6434,10.6591,10.7369,10.7949,10.8484,10.9168,11.0535,11.1696,11.2079,11.2443,11.3165,11.406,11.4221,11.4237,11.4522,11.4522,11.4714,11.4768,11.4821,11.4852,11.4937,11.5073,11.5278,11.5449,11.5602,11.5736,11.5816,11.5868,11.5945,11.5945,11.6174,11.7025,11.7705,11.8093,11.8685,11.9497,11.9761,11.9957,11.9906,11.989,11.9944,12.0014,12.0111,12.0165,12.0253,9.7282,9.6922,9.6814,9.7134,9.775,9.798,9.8365,9.9144,9.999,10.0337,10.0789,10.1981,10.2981,10.3174,10.4713,10.5305,10.5366,10.5552,10.576,10.5644,10.556,10.5447,10.5163,10.4638,10.321,10.2,10.0877,9.9963,9.9029,9.9565,10.0053,10.0056,10.1739,10.2794,10.2933,10.3733,10.4504,10.4908,10.5401,10.5862,10.6302,10.6376,10.6376,10.6376,10.6376,10.6376,10.6376,10.6376,10.6376,10.6376,10.6376,10.6376,10.6376,10.6376,10.6376,10.6376,10.6376,10.6376,10.6376,10.6376,10.6376,10.6376,10.6376,10.6376,10.6376,10.6376,10.6376,10.6376,10.6376,10.6376,10.6397,10.6397,10.6905,10.7234,10.766,10.877,11.0032,11.0498,11.0887,11.1071,11.1384,11.1824,11.1934,11.2316,11.3094,11.3362,11.4183,11.4253,11.4468,11.4591,11.4752,11.4898,11.4968,11.5088,11.5255,11.5519,11.5615,11.5656,11.5656,11.5656,11.6021,11.6965,11.7589,11.7894,11.8714,11.9574,11.9733,11.9792,11.9809,11.9841,11.9825,11.9863,12.002,12.0013,11.9968]}]]